GFSCGP_prec_cthk_000.txt.gz
RH
82 92 84 79 64 60 62 52 48 37 25 28 30 31 29 26 23 18 21 22 24 28 30 27 23 21 20 20 19 20 20 21 22 25 27 29 31 31 31 33 34 37 38 38
84 81 74 76 72 63 65 53 47 38 26 28 30 31 25 20 21 22 23 25 27 29 27 24 23 21 21 20 20 19 19 19 21 23 26 30 32 35 36 38 40 42 41 41
80 78 84 74 70 67 61 50 46 43 32 28 30 32 23 20 22 26 27 27 30 28 26 25 23 23 23 21 20 19 20 22 24 26 28 32 35 38 42 44 44 44 44 44
77 73 75 77 68 63 52 47 44 41 35 35 33 36 24 23 26 30 29 28 28 28 27 26 26 24 24 22 23 24 25 27 29 30 32 35 38 39 40 40 40 42 42 42
66 65 73 74 61 53 50 47 43 40 34 32 33 35 27 27 30 33 33 30 29 28 27 26 25 24 24 25 27 28 30 30 29 28 28 28 30 31 32 31 30 32 35 38
69 66 72 64 55 53 53 46 44 43 36 38 30 33 29 28 26 31 32 30 27 28 27 25 25 26 27 29 32 34 32 30 30 28 28 28 29 30 30 29 30 31 32 33
72 68 63 54 56 53 48 46 52 50 47 39 28 32 24 24 24 25 28 28 28 29 28 29 31 33 35 36 37 37 34 32 30 28 28 29 30 32 34 36 37 39 40 41
74 66 65 53 53 49 43 45 50 48 48 38 30 33 25 23 22 24 26 30 33 33 33 34 36 38 38 37 35 34 34 32 33 34 35 36 38 40 41 40 39 38 38 37
74 67 55 51 46 41 39 43 38 44 43 43 39 31 24 25 26 29 31 33 36 38 37 39 38 37 36 33 34 36 37 38 39 40 41 41 39 38 37 36 36 37 37 36
62 63 56 49 42 36 37 34 40 44 44 44 39 34 32 31 33 34 37 39 42 41 41 41 39 37 36 38 40 42 44 46 45 39 36 35 35 36 37 38 38 38 38 38
58 54 54 44 40 37 36 34 32 38 40 42 42 36 31 33 37 39 42 42 41 40 40 39 38 38 41 46 49 50 48 43 40 36 36 36 38 39 40 40 40 40 40 40
54 53 48 41 35 36 36 37 36 38 38 42 44 41 37 38 40 40 39 37 38 38 39 39 41 48 52 52 47 43 41 40 36 37 38 39 40 40 41 42 42 42 41 40
49 52 52 50 47 43 41 38 38 40 43 46 49 45 36 34 34 34 35 37 38 39 40 44 50 52 46 43 42 41 40 40 40 41 42 43 44 43 42 40 39 37 35 34
54 53 47 47 42 42 44 44 43 44 51 48 48 39 33 33 35 36 36 36 39 43 48 49 47 43 42 42 43 43 43 43 44 46 46 46 45 42 38 35 31 28 26 23
47 48 47 45 42 44 48 49 50 49 47 42 34 34 33 34 34 35 37 40 44 47 47 45 44 44 44 45 44 42 44 47 49 50 48 44 40 36 31 28 26 24 22 22
56 59 55 51 47 46 44 43 42 40 39 38 36 35 42 45 44 41 41 43 44 44 43 43 44 45 46 45 46 50 51 53 52 49 43 39 36 34 30 27 25 23 23 23
62 60 56 50 54 52 48 40 37 32 31 35 41 43 35 32 35 38 39 40 41 42 44 45 47 48 47 50 51 50 50 51 48 44 41 38 32 29 28 26 27 27 26 26
57 54 53 52 47 50 37 38 45 47 48 46 44 35 35 36 37 38 39 41 43 46 48 50 50 49 50 53 55 56 53 49 44 43 40 34 32 31 30 30 29 29 30 30
40 40 44 47 47 42 44 46 47 48 47 40 38 38 38 38 38 40 42 44 46 48 49 47 49 54 59 63 62 57 52 47 45 44 40 35 33 33 34 33 33 32 32 30
38 40 45 62 61 58 47 46 40 36 39 39 40 41 42 43 47 43 43 44 45 46 50 57 60 62 66 66 60 53 48 47 45 40 37 36 38 37 35 35 36 34 30 26
68 68 67 70 64 51 40 39 36 40 37 42 43 44 44 48 49 48 47 48 49 54 59 62 65 68 65 59 54 52 49 42 39 38 39 42 42 42 42 42 38 32 30 28
62 66 60 58 58 53 40 41 42 43 44 44 45 47 47 48 48 47 48 49 50 54 56 59 62 59 61 55 53 48 44 42 43 42 44 45 44 45 42 35 33 33 31 30
56 52 52 47 47 42 43 44 45 47 49 50 50 49 49 47 47 47 48 51 54 56 61 63 64 64 62 52 47 45 42 42 43 43 44 41 35 32 34 35 33 31 31 30
51 46 48 46 45 48 49 50 51 51 52 51 49 46 45 46 45 44 45 47 52 56 60 62 63 59 54 49 46 41 37 39 39 31 30 32 35 37 36 33 30 28 28 32
51 47 48 49 47 48 51 51 51 51 49 47 46 48 48 44 41 43 47 51 53 55 58 57 55 49 43 39 36 34 31 28 29 32 35 37 36 32 28 27 28 29 32 41
47 44 48 50 46 47 48 48 48 48 49 51 50 47 45 45 46 48 51 54 56 56 56 53 42 37 33 30 26 26 29 32 36 38 36 30 28 28 29 29 27 27 31 35

GFSCGP_prec_cthk_003.txt.gz
RH
96 94 80 63 79 61 67 60 56 53 45 38 26 29 28 30 29 28 28 26 21 21 26 29 30 28 24 22 22 22 22 21 21 22 24 27 29 32 35 37 39 39 42 44
93 90 66 67 67 68 67 59 57 52 45 40 26 29 29 28 27 25 21 20 22 26 28 29 29 26 23 23 24 23 22 21 21 22 26 29 32 36 40 42 45 46 49 49
79 76 80 71 74 72 68 62 59 55 46 44 32 28 30 29 25 21 21 22 26 29 30 30 28 26 26 26 25 23 23 22 23 26 28 30 34 38 40 41 42 43 42 41
85 76 79 83 80 76 78 62 62 53 51 51 37 39 31 27 25 24 25 27 29 30 31 30 30 28 27 26 26 25 25 27 27 28 29 30 31 33 33 32 32 32 32 33
82 78 76 89 72 69 73 66 58 55 50 45 39 36 30 25 27 27 31 29 31 31 31 31 29 28 28 28 27 28 29 31 34 33 32 31 30 31 31 32 33 34 36 37
72 70 72 63 78 74 74 61 57 56 52 51 38 33 29 27 26 30 31 31 31 30 31 31 30 29 28 29 32 34 35 37 36 35 33 32 33 34 34 35 37 37 37 36
74 74 69 73 77 75 64 62 68 63 60 54 36 35 23 25 26 28 29 30 30 31 33 33 31 29 31 34 36 37 36 35 35 36 36 36 36 38 38 38 35 33 32 32
76 81 66 71 67 61 58 57 61 59 58 48 37 36 24 25 26 25 26 29 32 33 34 33 32 33 35 38 38 38 38 39 39 39 38 39 39 36 34 33 33 34 35 35
69 62 60 55 55 56 53 56 53 54 55 58 45 31 24 29 28 26 28 33 33 34 35 35 36 40 41 41 40 41 43 43 44 43 41 38 35 34 34 35 36 36 36 36
62 64 61 54 56 55 53 55 54 55 58 56 45 36 33 30 32 31 34 34 36 37 39 42 43 41 39 40 42 45 48 49 45 38 34 33 34 35 36 37 38 38 38 37
62 60 67 60 57 55 53 47 45 48 50 48 45 36 28 29 34 35 37 38 40 42 43 42 40 38 40 43 49 53 49 42 37 35 35 36 36 38 39 39 38 37 35 33
66 71 69 64 59 55 52 42 41 43 41 45 44 38 32 34 37 41 43 43 43 41 38 38 39 41 46 51 53 48 42 40 38 37 37 39 40 41 40 38 34 32 29 26
67 71 79 72 66 55 47 38 36 38 41 44 46 41 36 37 38 39 39 38 38 38 38 40 45 51 52 50 47 44 44 42 41 41 42 43 43 41 37 33 29 26 23 20
70 71 62 55 51 44 39 35 36 40 48 46 46 44 43 42 39 36 36 36 38 39 44 45 47 49 49 48 47 46 43 44 45 46 43 40 37 33 29 27 26 23 23 23
67 60 59 48 37 40 39 42 44 44 45 47 46 51 44 39 39 38 35 40 43 42 44 46 48 48 47 46 44 43 45 48 46 43 42 39 33 31 29 29 27 26 26 25
54 54 49 43 39 42 41 44 49 49 50 50 50 47 40 34 35 45 51 42 41 42 43 45 46 47 47 45 45 45 45 47 48 51 45 36 34 33 32 28 28 28 28 27
55 53 49 47 49 45 45 45 45 47 46 42 38 33 34 43 53 45 37 37 38 41 42 44 47 48 46 46 46 47 52 56 58 50 41 37 37 36 32 32 30 30 30 30
58 56 56 55 56 58 46 52 50 45 43 36 42 45 52 55 41 38 38 38 39 42 44 48 48 46 44 48 53 59 63 58 49 40 41 41 37 33 33 32 32 32 33 37
64 64 67 66 65 56 56 50 47 45 51 53 55 54 44 39 38 39 40 40 42 44 45 45 43 44 49 55 60 66 59 49 43 44 42 37 35 32 31 32 33 36 37 35
56 53 52 61 59 53 43 41 42 46 59 56 51 42 39 40 44 44 42 42 42 42 43 46 48 52 58 65 63 54 48 47 46 43 40 35 33 32 31 30 29 30 31 32
46 46 49 53 52 47 43 43 47 54 43 39 38 41 42 44 45 43 42 42 43 44 46 49 52 54 57 58 54 51 51 48 43 37 33 30 26 24 24 26 29 30 29 25
64 67 63 64 66 65 52 47 43 40 40 41 44 44 45 45 44 41 40 41 43 46 48 49 53 56 58 56 52 50 47 39 34 30 25 21 20 23 27 28 26 23 21 22
65 58 65 61 56 43 40 41 42 43 45 46 47 47 48 46 43 42 42 43 44 47 51 54 56 55 52 52 48 43 35 29 23 19 19 20 26 27 25 22 22 22 23 25
62 61 58 52 50 47 45 45 46 47 49 49 50 49 46 45 44 42 41 44 47 52 54 54 53 54 52 47 38 29 24 20 19 20 22 28 26 24 22 23 23 25 26 27
62 61 59 57 54 54 51 49 48 49 49 48 47 46 45 45 45 44 46 49 51 55 57 56 54 51 44 34 28 22 20 21 21 26 29 28 25 24 23 23 24 25 27 34
66 61 62 56 48 48 49 49 48 49 48 47 45 43 43 46 47 48 49 51 52 53 56 54 51 39 32 27 24 23 23 23 28 30 30 27 26 25 25 23 21 23 29 32

GFSCGP_prec_cthk_006.txt.gz
RH
86 93 89 76 63 59 60 59 57 56 53 45 44 33 23 28 27 26 27 30 31 29 28 24 20 24 29 30 28 23 23 23 24 25 26 28 31 35 38 40 43 45 48 49
97 90 79 81 73 73 60 63 61 59 54 46 46 37 23 28 27 28 29 31 30 25 22 23 26 29 31 30 26 26 25 25 25 25 26 28 31 33 35 38 41 42 43 43
87 83 82 83 76 72 70 63 67 63 58 50 46 42 24 24 26 29 29 27 25 23 24 28 29 31 32 30 28 27 27 26 25 25 27 30 33 36 38 38 37 36 35 35
92 91 87 85 81 70 83 66 70 64 65 57 47 51 32 23 27 29 29 28 28 28 31 30 32 33 32 31 31 30 28 27 27 28 29 33 35 35 36 36 36 36 36 36
88 87 95 87 77 69 68 73 73 67 62 53 50 52 35 23 28 29 28 30 32 31 33 34 33 33 34 33 32 30 28 28 29 30 32 34 36 38 38 37 37 37 36 34
88 85 89 82 80 73 75 76 74 68 61 61 50 47 37 26 26 27 29 33 35 34 34 34 35 35 33 34 32 31 30 31 34 35 37 39 39 38 38 37 36 32 30 31
80 82 73 70 83 75 81 80 86 73 69 59 46 47 36 24 26 27 32 34 36 35 34 35 34 34 34 33 33 32 35 38 39 40 40 40 40 39 36 32 30 30 31 32
83 91 81 80 72 74 80 77 72 70 66 55 48 44 30 24 24 26 30 31 35 36 36 36 35 36 35 35 36 39 42 42 43 44 43 41 37 32 30 30 31 33 33 33
85 77 69 62 60 77 80 77 65 67 60 60 51 39 30 29 30 29 30 32 37 37 37 36 36 38 39 40 42 44 44 44 45 45 42 36 33 34 34 34 35 37 36 33
67 67 60 60 64 71 71 70 69 67 65 61 50 42 39 31 31 32 33 35 36 38 38 39 41 43 44 44 44 44 44 47 48 44 38 35 36 37 39 40 38 34 29 26
64 65 71 65 64 67 66 60 61 62 62 59 54 42 33 30 33 37 38 38 39 40 42 44 46 45 42 43 46 48 50 49 44 38 38 39 41 39 36 33 29 26 24 22
62 63 69 61 60 65 62 60 59 63 59 56 50 39 30 33 36 39 41 41 43 45 46 44 41 42 44 49 53 51 46 41 41 40 41 42 39 37 34 29 26 25 24 24
65 68 79 76 67 64 59 59 59 59 54 49 48 40 32 36 39 41 42 43 44 43 41 41 44 48 52 52 48 46 44 43 43 43 43 42 39 36 33 32 28 27 26 25
66 67 64 69 61 63 64 60 60 55 50 45 40 34 36 41 44 45 45 42 39 39 43 48 51 51 49 49 49 46 45 45 45 45 44 42 37 37 36 30 29 28 27 24
77 72 70 63 63 62 66 63 47 36 31 40 38 46 46 43 47 47 42 38 40 47 49 48 46 46 47 48 48 46 47 48 47 47 44 42 39 35 31 31 30 27 25 24
80 73 68 66 62 55 51 51 39 37 39 40 45 47 47 46 46 45 40 39 50 47 40 41 44 46 48 48 48 48 48 48 48 47 46 42 40 34 32 29 27 25 24 22
74 70 61 65 60 54 45 37 49 47 46 49 51 50 50 51 47 40 44 55 48 40 39 41 44 47 47 47 46 47 49 50 53 52 48 42 34 32 30 27 24 23 20 17
65 68 65 59 57 52 37 42 40 45 47 47 48 48 42 44 45 52 58 51 40 39 41 42 45 46 45 45 48 51 53 56 53 48 42 38 34 31 27 24 19 15 15 18
66 66 63 59 58 51 49 46 49 49 53 49 48 50 50 55 58 52 45 39 40 40 41 43 46 46 46 48 51 55 58 53 46 40 40 36 32 27 19 15 16 19 19 17
65 61 59 73 73 64 54 58 55 52 59 55 56 60 61 60 54 45 41 41 40 40 41 43 46 47 49 52 54 53 53 47 42 41 36 29 23 17 16 19 22 20 18 18
69 69 67 70 67 60 53 50 50 57 49 53 56 58 54 47 42 42 41 41 40 41 43 46 48 49 51 54 55 54 46 43 42 32 26 21 18 18 22 24 22 20 20 20
64 68 67 68 65 60 48 47 47 50 52 49 45 43 42 43 43 42 42 40 41 43 45 47 50 53 56 56 53 46 43 39 31 25 21 19 21 24 27 24 22 23 23 22
49 49 63 66 63 59 59 59 55 50 45 44 44 45 45 45 44 41 40 42 43 44 47 49 53 56 55 52 47 43 38 30 25 22 21 23 25 28 26 24 25 25 24 23
65 69 70 64 60 61 58 52 45 45 46 47 47 47 45 43 42 42 41 41 43 47 50 53 58 58 54 50 45 37 29 26 24 23 25 27 29 27 26 27 27 25 25 27
64 64 65 68 67 62 55 53 52 51 50 48 46 45 43 42 42 42 43 44 47 51 53 55 54 53 52 48 36 30 28 26 25 26 27 30 28 27 27 27 28 27 29 31
63 62 64 64 62 61 59 56 52 50 49 46 44 43 42 42 42 43 45 49 52 53 53 53 52 55 46 35 32 29 28 28 28 28 31 30 29 28 28 28 26 28 29 29

GFSCGP_prec_cthk_009.txt.gz
RH
86 96 96 87 75 67 66 58 53 56 52 49 43 40 40 29 24 29 28 30 31 32 32 32 32 28 22 19 24 31 31 30 27 27 29 31 32 33 35 37 39 40 42 44
91 94 89 87 77 71 67 66 58 58 54 51 49 41 40 27 22 26 28 31 30 30 33 32 27 21 24 28 31 32 30 29 27 28 29 29 31 33 36 38 40 40 38 37
79 88 86 90 84 78 68 62 59 64 61 57 47 41 42 31 23 25 29 32 31 31 29 25 23 26 31 34 33 32 31 30 30 29 29 30 31 32 34 36 37 38 39 39
90 93 88 93 84 77 75 67 62 66 68 65 51 48 45 36 25 27 31 32 31 30 26 26 27 31 34 37 37 34 32 32 30 29 28 28 30 34 38 40 40 40 38 36
95 96 88 91 80 78 76 72 72 69 68 58 53 51 43 39 25 26 31 34 33 31 29 31 33 36 38 38 37 36 34 31 29 28 31 35 37 40 41 40 38 35 31 29
96 92 91 81 84 82 72 76 76 70 67 60 51 50 45 33 25 25 30 33 35 32 32 34 35 38 38 39 38 36 34 33 31 33 36 39 41 41 40 37 32 31 30 31
97 91 90 89 86 83 80 82 91 90 80 62 51 51 40 35 29 27 28 31 35 34 34 35 37 38 39 38 38 36 36 36 36 38 40 42 42 40 36 32 31 31 32 32
98 97 84 87 91 83 81 79 81 82 70 60 56 49 34 31 30 28 28 33 35 35 35 36 38 40 40 39 39 39 40 40 40 42 44 45 42 38 35 33 33 32 29 26
87 84 80 81 81 75 91 87 74 71 65 63 54 42 36 35 35 35 31 31 34 36 36 38 40 40 42 43 43 43 43 42 44 46 46 43 38 36 35 34 32 31 28 27
74 74 75 69 78 75 78 74 88 72 70 66 56 48 43 38 37 36 35 36 36 36 38 40 43 45 47 47 46 45 46 48 48 45 41 38 38 37 36 36 34 32 29 26
68 66 70 68 68 73 69 78 76 74 68 61 55 46 41 38 36 38 37 36 37 38 41 45 47 49 50 47 47 51 52 50 45 42 41 41 38 39 38 34 31 28 25 23
66 64 70 63 65 65 61 69 78 70 66 62 58 52 40 35 35 35 37 38 40 44 48 50 50 50 48 50 54 53 50 46 44 44 43 41 42 42 39 35 32 28 25 24
67 69 74 74 71 64 64 65 67 66 60 59 59 52 40 37 36 37 37 41 44 45 47 46 46 48 54 54 51 49 49 47 46 46 44 44 44 42 39 36 32 26 25 24
71 69 67 67 59 60 61 60 61 63 64 61 56 51 37 33 37 41 42 45 48 49 46 45 50 54 51 50 49 48 47 48 48 46 47 47 47 42 39 34 26 26 25 23
72 70 64 61 59 60 59 58 66 62 59 64 57 43 32 36 41 44 46 49 51 46 44 50 52 48 48 48 48 47 48 49 48 48 49 49 45 41 36 29 27 26 23 19
75 74 67 65 63 63 66 65 63 63 66 51 38 30 31 39 44 47 51 52 50 44 47 55 52 48 50 47 47 48 49 50 51 50 51 44 41 36 30 28 27 22 17 16
81 73 72 76 68 66 62 58 60 60 58 37 35 31 41 46 49 52 52 49 45 45 58 55 50 45 45 46 49 51 51 52 53 50 44 42 36 33 29 26 20 17 18 19
83 84 79 73 69 71 57 56 51 47 45 42 40 42 48 52 55 51 49 48 51 57 53 43 41 43 47 49 51 52 54 54 53 48 43 38 35 30 25 20 18 20 21 20
82 78 80 74 69 59 56 52 44 41 45 44 47 49 52 53 52 53 53 57 55 46 39 38 41 46 48 50 52 54 56 54 50 44 41 36 30 24 20 20 23 23 21 18
70 69 74 85 68 60 50 55 55 48 49 47 50 53 53 54 57 61 63 56 44 37 35 38 43 46 49 51 53 55 55 52 47 42 38 30 24 22 22 25 25 22 20 19
78 78 79 75 69 62 58 55 53 59 51 54 54 53 56 60 62 61 52 43 37 35 37 42 45 48 51 54 56 56 54 49 44 41 30 25 24 24 26 27 24 21 21 20
73 77 76 78 75 67 61 58 56 55 54 54 59 61 59 57 50 46 42 38 36 39 42 46 47 50 54 57 57 54 49 46 41 31 27 25 26 28 29 26 23 22 21 22
72 69 70 67 60 56 51 51 51 55 53 56 56 51 49 47 45 41 38 37 39 43 46 48 49 52 56 58 54 47 48 42 32 29 27 27 29 31 28 24 23 22 24 25
59 56 58 54 60 68 65 62 65 65 61 51 47 47 46 44 42 40 39 40 43 45 46 48 50 54 56 51 49 50 41 33 30 28 28 31 32 29 25 24 25 25 26 29
57 62 68 72 71 69 67 64 60 56 56 54 52 49 47 42 41 41 42 43 43 45 47 50 53 53 51 53 50 38 34 32 29 30 32 33 31 27 25 25 27 27 32 36
64 64 64 62 59 62 64 67 68 66 62 57 53 48 42 39 40 41 42 43 44 46 49 51 53 54 56 50 38 35 32 31 31 32 35 33 29 26 27 28 27 32 34 39

GFSCGP_prec_cthk_012.txt.gz
RH
84 89 87 88 89 75 67 59 59 56 53 50 47 41 40 41 37 28 25 27 27 31 32 31 30 29 28 28 29 25 23 29 35 37 34 36 38 39 38 39 40 42 42 41
92 90 78 93 88 77 70 65 62 62 52 51 49 41 41 41 36 29 24 28 28 30 32 33 32 30 28 28 24 25 30 34 35 34 34 36 36 35 35 35 33 33 35 37
85 72 87 97 90 82 75 69 63 61 59 57 50 40 39 39 36 30 22 27 30 31 32 33 32 31 29 24 26 31 34 36 35 35 36 35 32 30 31 34 37 39 39 39
85 85 89 96 87 81 80 70 69 67 71 65 53 47 40 38 36 33 25 27 30 31 33 33 31 26 25 27 31 34 37 37 36 35 34 32 32 34 36 38 40 41 40 36
87 84 94 93 86 79 75 73 69 71 74 66 57 52 38 37 36 32 26 28 32 32 34 35 32 28 30 34 36 36 38 37 36 34 32 33 35 38 40 42 41 38 36 32
80 89 91 91 86 86 81 76 76 71 70 64 51 48 39 35 33 30 26 29 32 32 35 37 33 32 36 37 38 39 38 37 34 34 34 36 39 43 44 43 40 36 32 29
88 98 84 89 93 88 82 84 94 90 86 61 49 48 38 39 35 32 28 28 29 34 37 36 35 36 37 38 39 39 37 37 37 36 37 42 45 46 43 38 34 31 30 29
98 99 97 81 89 85 86 75 70 71 63 54 56 47 38 36 36 34 32 31 31 34 37 37 38 38 39 40 39 38 39 40 38 38 44 47 45 41 37 33 32 31 30 28
97 98 93 85 80 84 93 85 69 63 57 54 48 43 38 34 34 33 34 32 32 36 39 39 40 40 40 40 41 43 43 40 41 47 49 45 41 38 35 35 35 34 32 28
88 96 89 88 88 87 85 78 80 65 66 61 49 45 41 37 35 34 34 35 36 39 39 39 42 43 43 45 46 46 43 46 50 48 46 43 41 40 38 37 37 35 32 27
85 82 84 84 90 90 85 86 79 66 59 54 50 44 39 37 34 35 36 36 39 41 41 42 45 48 48 49 48 47 51 51 47 47 46 45 44 41 41 41 40 37 32 26
76 69 86 76 74 80 77 71 76 75 67 56 51 45 42 39 36 35 36 39 42 42 44 47 50 52 51 48 50 55 52 49 47 47 48 47 44 43 44 42 39 34 28 26
70 67 75 89 79 72 77 70 68 61 57 57 60 49 43 42 41 37 36 39 42 44 47 48 51 49 50 52 57 52 49 48 48 49 50 48 47 46 46 42 34 29 28 26
71 67 60 61 59 58 60 61 64 61 68 60 51 48 46 50 50 37 38 40 41 44 49 53 54 52 51 58 52 49 48 49 50 51 50 49 48 48 42 35 31 29 27 24
76 69 66 62 57 56 57 60 58 58 57 57 53 54 52 52 42 35 34 40 43 47 54 56 53 50 58 57 53 53 51 50 52 51 49 50 51 43 38 34 30 27 24 23
74 73 65 62 62 59 57 55 57 56 59 54 57 48 50 38 34 35 40 44 48 53 56 56 51 54 63 58 55 50 50 52 54 53 53 53 47 39 35 31 27 26 25 25
77 73 70 66 63 61 62 54 54 52 50 50 52 47 42 34 32 36 42 49 53 54 53 53 55 64 61 54 49 49 52 55 56 56 55 51 42 36 32 28 27 27 26 27
78 78 74 68 72 71 51 52 50 51 48 48 49 46 40 38 39 43 49 53 53 52 53 56 59 60 49 46 48 52 56 57 57 55 52 45 39 34 30 29 28 27 29 28
82 87 84 76 69 57 52 53 52 52 48 43 43 43 44 46 48 51 53 54 56 56 57 61 55 45 44 46 50 54 56 56 54 52 47 42 35 32 31 29 28 31 30 25
86 91 93 80 73 65 55 55 52 50 42 37 39 44 48 51 52 54 57 56 56 61 64 52 44 40 43 49 52 53 54 54 53 51 45 38 34 33 30 29 32 32 26 22
84 82 84 80 92 61 58 60 59 55 51 53 52 51 53 55 55 59 62 65 65 61 47 40 37 40 45 49 52 54 54 53 54 49 41 36 34 30 30 34 33 28 23 22
75 76 72 80 90 75 60 61 59 55 56 55 54 51 52 58 61 63 63 60 49 42 36 35 40 44 48 51 54 55 53 54 50 43 37 35 31 32 35 34 28 23 23 23
75 71 71 70 66 66 67 63 59 56 52 54 56 57 59 58 57 53 48 42 36 34 36 40 44 47 50 53 55 54 52 50 46 38 35 31 33 37 36 31 25 25 25 26
73 76 72 72 72 65 56 50 60 61 59 62 59 58 53 54 49 42 38 35 35 38 41 43 46 48 51 54 52 52 51 44 38 34 32 33 38 38 34 29 28 28 30 31
67 64 60 61 60 58 62 70 68 65 63 62 59 57 55 48 43 39 37 40 42 41 42 44 47 50 53 52 51 52 41 36 32 32 35 40 40 36 30 30 31 31 32 34
54 54 55 56 63 63 62 63 65 66 67 67 66 61 53 46 43 41 41 40 40 41 43 46 50 54 53 54 50 38 32 31 34 38 41 42 38 33 32 32 32 33 34 36

GFSCGP_prec_cthk_015.txt.gz
RH
64 70 70 53 67 70 69 72 67 60 59 58 53 46 42 36 39 41 38 33 26 28 30 32 32 34 33 33 33 32 32 34 36 34 39 45 44 41 42 43 43 41 38 35
81 85 59 48 62 85 77 79 64 64 63 58 51 46 41 39 39 41 38 34 26 29 31 33 35 35 33 32 32 32 33 34 32 35 39 41 40 40 38 35 32 31 32 35
86 67 65 65 77 91 86 73 62 67 68 56 53 50 42 40 40 37 37 35 28 30 32 31 32 33 34 33 30 29 28 27 35 44 40 38 36 36 34 31 32 35 39 42
89 81 94 79 80 88 92 70 67 72 72 66 60 48 42 40 35 35 36 34 30 30 32 33 32 33 33 30 28 26 26 29 35 37 38 38 35 33 32 34 36 40 42 40
82 86 92 84 90 87 91 75 70 77 72 74 66 59 43 43 34 35 36 37 31 29 31 35 34 35 33 30 27 30 31 34 36 37 34 34 33 34 35 38 43 42 39 34
85 82 87 73 92 87 89 76 79 79 74 69 55 55 42 42 36 35 37 38 34 32 33 36 35 36 34 32 32 34 36 37 37 36 35 35 35 38 41 43 41 36 30 27
91 89 89 87 98 97 97 87 94 90 87 59 54 53 48 41 35 32 34 35 35 33 35 36 35 35 37 35 35 37 38 39 38 38 37 37 40 43 44 40 35 31 29 29
93 97 93 92 97 94 95 85 72 68 64 54 52 50 43 40 38 37 36 37 36 32 34 34 35 36 38 38 38 39 40 40 41 40 38 41 46 47 42 38 36 33 33 32
89 92 91 88 94 91 94 84 70 63 54 56 51 46 40 35 37 36 36 38 37 35 36 37 37 37 39 40 40 41 42 42 42 40 44 48 46 43 42 40 38 36 35 33
94 96 95 97 94 92 88 78 75 61 61 58 51 48 48 39 34 35 36 40 40 37 38 39 39 38 39 42 43 44 45 43 42 46 50 45 44 43 43 42 39 37 36 33
97 98 93 93 95 86 95 88 71 60 56 58 54 49 44 38 36 36 34 37 40 37 40 43 43 42 44 46 46 47 46 44 50 52 46 45 45 45 45 44 40 38 32 28
95 96 99 91 77 82 83 87 70 64 61 53 50 50 44 41 37 35 36 39 41 40 42 44 46 46 47 49 49 45 47 54 53 48 46 45 47 48 46 42 40 36 30 29
85 84 98 96 82 84 85 76 72 69 61 55 52 52 46 44 41 38 36 39 42 42 44 46 47 46 47 48 48 50 54 56 50 48 47 50 51 49 46 44 39 32 30 29
87 80 75 71 65 71 81 79 69 67 66 58 53 55 48 49 48 45 41 40 41 44 47 46 46 49 52 53 52 52 59 55 52 52 53 52 52 51 48 43 37 32 30 28
81 72 65 63 59 62 70 70 70 68 63 56 54 54 53 55 50 49 47 44 40 43 45 46 48 53 56 56 53 56 62 57 55 54 53 54 54 51 47 41 33 30 29 28
77 74 65 63 60 58 58 58 58 57 55 56 52 49 57 51 51 47 47 39 40 42 45 49 54 58 58 56 53 63 61 55 54 53 55 56 55 50 43 36 32 31 30 30
80 76 70 69 62 63 60 51 50 49 48 49 48 47 49 51 52 41 36 36 36 41 47 53 57 59 57 57 60 61 55 52 52 56 57 56 52 46 38 34 33 32 31 34
80 81 72 73 66 73 52 48 48 48 46 48 47 50 50 50 51 42 40 34 39 45 53 56 57 59 60 61 61 54 51 51 55 57 56 53 49 41 36 34 33 33 35 35
81 85 83 77 74 67 55 52 52 51 48 48 46 48 48 52 49 48 44 44 48 53 55 57 59 61 64 64 55 52 49 54 56 55 52 49 44 39 35 35 33 34 35 31
87 84 86 81 75 71 58 54 51 52 51 46 45 46 46 49 50 49 49 52 52 53 56 59 63 65 66 52 48 46 52 55 54 52 49 45 41 37 36 32 33 35 33 27
90 92 92 93 81 69 59 57 54 56 55 52 46 44 45 49 50 52 54 55 59 61 61 64 64 58 47 42 43 49 53 54 51 48 48 45 39 35 30 33 35 31 26 24
83 88 89 92 90 83 65 61 61 61 58 56 53 52 53 55 55 57 58 56 56 59 62 54 46 40 39 44 49 51 51 48 47 50 47 38 32 29 32 34 31 26 26 26
80 71 71 69 71 69 65 64 63 62 60 57 54 54 55 56 57 57 58 57 53 48 45 41 37 41 45 48 49 48 47 48 52 47 36 29 29 33 35 33 29 28 29 28
69 71 69 68 69 70 70 70 67 61 54 60 59 59 62 61 59 58 52 51 42 37 36 39 43 45 45 46 48 49 51 52 42 33 28 30 33 37 36 33 32 31 31 30
74 74 73 71 73 71 67 59 54 58 69 66 64 62 59 57 55 51 47 41 39 40 44 45 42 42 44 48 52 52 52 37 30 28 30 34 38 38 36 34 33 32 32 34
72 68 67 62 57 54 54 57 63 65 63 63 63 64 65 63 57 52 47 44 44 44 42 42 42 45 50 53 50 47 34 29 29 30 35 39 40 40 37 34 32 33 34 35

GFSCGP_prec_cthk_018.txt.gz
RH
60 62 55 44 44 42 48 60 67 52 52 61 56 52 50 49 43 39 38 36 36 36 31 28 28 28 33 36 37 37 36 36 36 38 38 40 40 42 48 47 43 41 37 31
72 68 42 48 52 52 55 67 68 64 60 59 58 53 54 48 41 37 36 37 38 37 33 30 31 31 35 38 39 38 38 37 38 37 37 39 41 44 44 40 37 34 31 32
74 51 66 61 57 62 53 67 72 82 69 63 66 56 53 45 39 37 36 37 40 37 36 29 31 33 36 37 38 38 37 36 37 35 33 32 41 40 37 35 35 34 34 35
78 60 62 66 65 63 63 50 63 86 93 82 67 63 49 43 41 39 37 37 38 38 35 30 33 32 33 33 33 34 34 34 31 29 31 34 35 36 36 36 36 36 37 37
74 66 67 76 70 70 62 62 76 81 88 86 70 68 48 47 42 39 37 36 36 38 38 32 32 33 32 33 34 34 34 31 32 35 37 35 35 36 37 38 38 38 37 35
72 78 80 71 73 69 64 80 95 96 90 91 75 68 51 47 38 40 37 35 37 39 41 33 31 34 34 36 36 35 35 34 35 36 36 37 37 38 39 40 41 39 36 31
82 87 83 93 86 73 80 88 98 98 98 84 57 63 52 44 41 39 35 35 38 41 42 36 32 34 36 37 36 36 38 37 37 37 38 39 40 40 42 42 42 39 36 33
85 76 83 85 83 84 79 98 98 96 90 71 56 65 52 48 41 38 38 36 38 40 39 36 33 35 36 36 37 39 39 38 39 39 40 42 40 43 41 43 39 39 38 36
91 92 85 75 78 94 87 97 91 82 54 57 56 52 46 45 43 41 37 38 38 38 38 37 35 34 35 37 39 40 40 40 41 42 44 41 44 43 44 41 41 41 40 37
92 98 82 91 91 95 98 88 97 82 68 70 62 55 48 44 40 36 39 39 40 39 39 39 39 40 39 40 41 41 42 43 44 44 43 44 48 46 42 42 43 43 41 35
96 98 98 93 91 93 97 97 93 77 65 69 68 61 45 41 37 35 36 38 41 42 41 40 43 43 41 43 44 45 47 46 46 43 46 52 48 46 43 45 46 45 39 32
96 98 98 94 85 86 88 91 81 69 68 66 61 55 45 43 39 39 38 40 41 42 41 41 44 45 45 46 48 49 48 46 44 46 55 53 50 46 48 50 47 43 38 31
95 96 99 96 96 93 94 87 78 76 67 69 61 58 48 46 42 40 39 41 43 43 43 42 45 47 46 48 49 49 48 48 49 54 59 53 50 52 51 49 47 42 35 30
96 90 94 94 79 89 91 82 79 76 70 64 60 54 53 51 47 44 41 41 43 44 45 45 47 48 48 48 49 52 53 54 53 59 63 56 53 53 52 50 47 40 32 30
93 96 96 93 77 70 77 79 79 69 63 64 58 55 52 52 51 47 47 48 46 46 47 46 49 50 48 49 52 56 57 59 55 65 61 53 53 54 53 50 44 35 31 31
82 92 83 75 75 71 73 69 67 63 65 62 61 57 56 52 50 54 54 48 50 48 47 46 49 49 48 51 57 59 59 56 62 62 55 55 55 55 53 48 38 32 32 31
85 86 79 70 62 62 64 64 62 58 56 55 60 55 60 57 55 54 52 47 42 46 45 44 47 50 52 58 60 58 58 62 65 56 58 54 56 54 49 40 34 33 33 34
77 79 80 72 64 71 55 51 48 49 47 49 50 51 55 52 53 52 52 54 46 40 39 42 49 54 60 62 60 60 65 68 63 56 51 55 54 48 41 35 35 34 33 31
78 82 85 77 74 67 59 54 52 50 49 48 47 50 54 51 51 57 58 55 48 47 45 48 54 60 62 60 63 65 69 64 52 50 54 53 48 43 39 37 34 31 32 27
81 81 85 89 81 76 64 57 51 49 56 50 48 50 49 51 57 57 58 56 54 53 54 56 60 61 66 68 67 65 57 49 50 53 51 49 45 42 38 33 31 33 28 24
87 88 89 89 89 74 65 63 56 58 59 52 50 50 50 50 48 51 53 55 55 55 56 61 64 63 65 65 56 50 45 50 52 50 47 46 43 37 31 33 34 30 26 24
90 94 92 92 91 87 67 65 63 64 60 57 55 54 55 54 55 55 55 56 57 57 57 57 57 60 53 49 42 45 49 50 47 48 47 41 35 29 34 34 32 29 26 25
82 76 79 79 78 71 70 70 65 64 63 61 58 58 57 57 58 59 59 57 56 56 59 57 51 46 40 42 47 49 48 46 49 46 38 33 29 34 34 33 31 29 27 26
70 75 74 73 72 72 69 70 69 67 64 62 57 59 60 59 60 60 60 59 59 54 49 41 37 39 45 49 48 48 47 51 45 37 30 29 33 33 33 34 32 29 29 28
68 72 74 73 74 72 73 71 70 71 62 53 63 66 63 62 60 58 55 51 48 44 42 42 45 46 46 46 45 47 49 45 36 28 29 31 33 34 35 35 33 31 31 32
74 74 76 74 73 71 71 67 62 59 60 62 63 62 61 58 59 58 57 54 51 47 47 46 43 42 41 44 50 49 45 34 28 29 30 32 34 36 37 34 32 32 31 32

GFSCGP_prec_cthk_021.txt.gz
RH
61 60 64 58 54 53 52 57 61 53 57 58 51 51 44 45 51 48 44 39 38 33 32 39 32 28 28 29 32 37 37 38 40 42 43 45 45 48 49 54 52 49 42 36
72 66 61 57 56 61 58 58 52 50 56 68 57 54 41 45 47 48 45 41 43 36 35 39 36 31 30 32 34 35 39 41 42 42 43 45 46 46 42 46 46 38 36 36
75 69 63 65 63 64 63 61 50 49 50 61 74 62 47 45 47 49 46 43 44 36 37 40 38 34 33 35 37 40 42 43 42 41 43 41 37 36 36 36 35 37 38 37
83 76 74 77 71 68 69 52 52 47 62 65 70 74 50 45 42 46 46 41 42 38 38 42 38 35 33 38 41 43 45 44 41 40 37 33 33 35 35 35 38 40 39 38
82 75 76 74 61 75 59 60 58 56 60 75 80 92 60 44 42 44 43 41 40 37 37 41 39 33 32 36 39 41 40 38 37 35 35 34 35 36 37 40 42 41 41 41
87 84 80 70 65 69 58 68 63 66 65 84 70 97 70 46 38 37 41 43 42 39 38 39 41 38 31 33 35 37 37 36 37 39 40 38 38 39 41 42 42 42 39 37
96 86 82 76 78 76 77 75 80 80 79 64 64 91 76 47 39 37 41 41 41 39 38 40 43 40 33 32 35 37 38 38 40 41 41 40 41 42 43 43 42 40 39 39
96 92 78 71 68 71 76 72 76 81 62 50 60 95 73 53 43 41 43 42 42 40 39 43 43 40 36 33 34 37 37 40 41 42 42 42 44 45 44 45 42 42 42 42
88 79 70 71 70 81 86 93 53 81 64 78 89 70 55 51 45 46 43 43 41 39 40 42 42 38 35 34 34 36 38 40 41 42 45 46 47 45 47 46 47 44 44 43
82 86 78 86 95 92 84 69 85 95 97 94 84 61 51 44 47 46 43 42 41 41 39 40 40 38 38 36 37 38 40 42 42 46 49 49 46 46 52 53 49 46 45 46
87 96 89 92 97 75 93 91 81 90 90 89 82 61 47 47 45 44 43 43 42 41 40 40 41 41 42 42 41 42 43 45 48 51 51 47 46 53 60 55 49 47 49 44
89 98 97 92 88 73 78 86 87 87 95 81 63 54 48 51 44 39 39 40 41 42 42 43 43 44 45 43 44 45 46 49 51 53 48 49 52 60 63 55 51 52 46 40
95 98 93 91 93 90 85 94 95 96 96 76 67 58 53 51 45 42 43 44 43 43 43 43 43 44 46 46 46 47 49 51 51 52 54 56 58 64 65 56 51 49 45 37
94 98 96 97 92 90 88 88 94 98 93 75 65 58 53 48 46 43 43 44 44 44 45 44 45 46 48 48 49 50 51 53 55 57 60 64 61 69 59 51 52 51 41 33
95 97 99 92 87 86 91 88 94 93 82 77 66 62 56 51 48 46 47 47 47 47 47 48 49 50 51 51 52 51 53 56 59 63 67 63 68 64 56 57 51 44 36 30
94 98 97 90 79 78 83 85 85 86 75 72 70 65 57 55 53 52 51 52 52 52 52 53 53 53 53 52 51 52 56 62 66 68 65 70 71 66 60 51 46 38 31 34
88 95 96 85 89 88 88 79 81 76 71 69 71 67 60 57 55 56 55 55 54 49 48 50 51 51 51 49 52 58 64 68 66 67 73 76 70 57 50 50 37 31 35 37
81 87 90 82 77 80 65 65 68 69 65 64 64 65 60 59 57 55 54 54 55 54 51 44 45 47 49 52 58 65 68 67 70 74 78 70 54 52 50 38 33 35 37 35
78 78 87 87 82 72 64 58 56 58 56 54 54 57 59 56 54 55 54 55 56 59 56 50 50 48 52 59 66 68 70 74 76 74 63 53 53 50 38 35 36 38 35 31
84 81 86 92 85 77 62 59 54 54 58 51 52 52 51 53 57 60 57 56 57 58 58 59 60 61 63 68 72 73 71 74 67 58 52 52 48 39 38 37 37 35 32 27
86 88 90 88 89 76 65 63 57 59 58 52 53 53 54 54 55 59 60 59 59 59 59 61 63 65 68 67 66 67 67 58 51 51 51 46 41 39 36 37 36 33 29 24
85 91 93 91 92 87 64 65 62 62 60 58 55 53 56 56 56 56 58 59 60 61 62 65 65 64 64 66 65 57 48 48 51 52 46 40 38 36 37 36 34 31 27 26
88 81 88 80 77 72 70 67 64 63 62 63 57 58 58 61 61 61 61 60 62 60 59 60 61 64 61 54 44 45 51 53 50 43 40 37 35 37 36 34 32 29 29 28
77 75 78 76 70 69 70 70 69 67 64 65 62 60 60 60 61 62 62 60 61 61 63 61 54 48 42 43 49 53 51 45 44 41 36 34 36 35 35 34 32 32 31 28
71 70 69 72 73 71 70 68 69 68 67 67 63 60 61 61 61 60 61 60 57 54 51 49 48 48 49 51 50 46 44 47 41 35 33 34 34 34 34 35 35 34 30 31
75 70 71 73 71 71 71 70 72 72 69 62 58 64 65 62 59 55 53 51 50 50 50 48 47 48 46 44 45 48 48 40 35 32 33 33 34 34 36 36 35 32 29 29

GFSCGP_prec_cthk_024.txt.gz
RH
65 65 61 56 56 57 58 59 60 58 56 60 57 50 48 46 44 43 44 42 45 43 39 37 34 37 36 27 26 29 34 38 41 46 51 53 51 52 52 54 55 49 50 44
72 71 62 60 59 61 63 63 59 54 51 58 59 56 52 43 42 42 45 45 47 45 42 39 34 35 38 31 26 26 29 33 40 46 49 51 51 53 55 53 47 40 38 37
78 68 66 68 65 66 65 65 62 61 52 46 52 47 48 39 40 39 40 42 48 46 42 40 37 37 40 34 32 30 34 38 42 47 51 53 53 53 48 42 37 36 37 39
85 79 76 77 76 75 71 60 64 64 64 64 61 58 42 42 41 39 36 41 45 45 43 41 39 39 42 39 35 35 38 43 48 50 50 49 47 44 39 35 37 38 41 43
86 80 84 82 80 81 75 72 70 69 70 69 52 66 42 40 42 37 32 38 44 44 43 42 40 43 46 40 38 39 40 43 45 45 44 42 41 39 39 40 40 42 44 43
88 86 84 79 78 80 82 84 81 79 81 81 46 60 41 38 36 35 34 35 44 47 44 42 43 45 49 43 42 40 42 43 43 40 38 38 40 41 43 43 43 45 44 43
98 94 91 87 88 85 85 90 93 96 92 66 45 56 36 35 32 43 36 37 40 46 42 42 44 45 49 48 45 42 39 41 38 37 38 41 42 44 46 45 46 46 45 43
98 96 94 85 82 85 87 86 92 88 86 56 56 62 38 28 41 48 40 40 46 48 45 45 45 47 49 49 45 40 35 37 39 39 41 43 45 46 46 47 47 49 48 46
91 94 85 82 82 82 83 93 56 75 67 82 63 48 31 23 45 49 43 44 43 46 45 47 47 49 50 49 43 39 36 39 41 41 42 44 46 48 49 50 49 52 54 51
80 85 71 76 79 78 79 77 93 92 84 71 59 61 39 26 35 51 48 45 49 49 49 49 50 50 51 46 41 39 39 39 40 42 45 47 50 53 53 50 49 58 61 52
78 83 80 77 79 77 94 96 86 76 70 80 63 53 27 25 43 52 54 54 53 51 49 49 48 49 47 44 41 40 42 43 45 48 49 53 56 56 52 52 57 65 65 54
85 92 91 81 82 90 98 93 92 86 67 88 94 61 46 43 48 54 60 58 55 52 49 47 46 45 44 43 43 46 46 46 49 51 53 56 58 54 58 62 64 68 62 51
96 97 97 90 92 91 89 85 96 79 71 77 98 74 53 51 56 61 56 52 52 51 50 48 48 48 46 46 45 45 47 48 51 54 56 58 59 63 66 70 67 67 54 46
97 98 94 95 96 90 81 81 82 90 92 83 91 86 60 54 56 53 49 48 47 48 48 49 49 47 46 47 47 48 49 52 55 57 58 61 64 67 72 69 69 63 53 48
98 98 98 96 94 98 89 77 83 93 93 97 87 75 62 54 53 51 51 52 52 52 51 50 49 48 49 51 52 53 55 57 58 59 61 65 70 73 70 72 72 62 48 34
96 97 98 97 94 97 98 96 93 95 97 97 95 70 57 55 51 50 50 51 52 53 53 54 54 54 56 57 57 57 57 58 58 60 66 71 73 72 76 78 69 48 37 36
97 98 98 98 92 95 99 96 97 97 95 96 88 68 60 59 57 58 57 57 58 55 54 55 57 58 59 59 60 59 57 56 61 66 72 75 76 81 79 68 50 40 35 36
91 92 96 95 94 86 74 79 84 85 79 75 70 64 61 59 59 59 60 60 61 62 59 54 53 54 55 57 58 57 58 62 68 73 76 80 82 79 64 50 39 34 38 41
85 84 88 96 94 76 69 67 68 71 67 62 67 67 68 65 61 60 58 60 60 60 60 61 61 54 54 56 58 59 64 72 76 78 80 80 76 61 47 38 37 39 42 39
85 84 86 90 89 80 64 60 56 58 63 55 57 57 57 60 60 60 58 58 58 59 62 64 64 65 67 68 69 71 75 77 74 75 77 66 54 46 40 36 39 43 39 34
85 85 85 85 90 75 69 65 60 62 59 54 55 54 54 54 56 58 58 58 60 62 65 68 67 67 68 70 72 74 73 71 75 68 54 51 48 39 34 40 43 39 35 30
79 82 84 88 89 81 65 64 61 60 57 57 55 56 57 59 60 59 60 61 61 60 62 64 66 69 71 71 70 70 72 66 55 50 52 46 36 34 41 42 39 35 32 29
83 79 85 79 76 68 70 67 65 63 63 63 58 61 60 62 63 64 64 65 66 67 68 69 68 68 68 70 69 62 52 49 53 51 43 34 35 41 41 38 36 34 32 29
81 79 80 77 71 73 74 72 70 68 66 67 66 63 63 64 66 67 67 68 68 68 67 67 68 68 61 54 51 51 54 54 49 40 36 37 40 39 37 36 35 33 31 27
81 78 74 74 74 72 71 71 71 71 69 69 69 67 66 66 66 65 65 64 64 64 62 58 55 52 49 47 50 53 49 43 41 37 37 38 37 35 36 35 35 34 30 27
74 77 78 76 70 70 70 72 72 70 69 69 68 65 63 65 67 67 63 58 54 52 50 49 48 46 47 50 49 45 45 42 39 37 37 35 33 35 36 36 36 33 28 27

GFSCGP_prec_cthk_027.txt.gz
RH
54 59 63 66 71 67 70 71 69 65 60 58 54 50 46 43 41 38 37 39 38 38 40 44 41 38 36 36 40 34 32 38 47 56 60 58 59 65 63 61 60 59 56 48
60 59 56 56 60 65 67 70 67 65 59 57 52 46 42 41 38 37 35 34 34 37 37 44 43 39 38 36 41 37 32 35 40 46 51 55 58 58 59 60 59 58 47 34
61 55 58 63 66 70 69 68 64 63 57 52 53 38 30 28 32 32 31 31 31 33 37 42 43 41 39 37 40 39 35 31 32 40 48 54 55 58 58 56 59 48 36 36
73 69 70 70 74 76 76 70 70 70 75 69 56 54 34 31 27 26 28 28 30 33 34 38 42 41 41 42 43 40 37 35 36 41 46 49 52 57 57 56 48 39 40 42
77 78 76 77 75 82 80 79 82 83 79 74 58 72 43 33 27 27 32 31 26 27 33 37 43 44 44 45 46 45 41 40 42 46 50 52 54 56 54 46 40 42 45 46
79 78 79 77 78 84 86 89 91 91 91 85 64 66 39 31 26 26 28 28 29 28 30 37 44 46 46 46 50 50 47 47 48 49 50 49 48 46 43 41 43 46 47 49
87 84 83 83 87 88 91 97 97 98 97 79 63 67 40 29 29 28 27 31 32 31 32 36 44 48 48 48 54 55 52 48 47 46 45 45 43 42 42 44 47 48 49 50
79 79 76 78 84 86 92 93 96 93 89 82 64 63 37 29 24 20 19 30 35 33 33 37 45 50 50 50 56 59 57 50 46 43 41 42 42 43 47 48 49 51 51 50
75 76 74 77 84 85 97 97 76 94 84 94 79 52 41 31 31 25 30 37 37 36 36 40 48 51 50 53 58 62 60 55 49 40 41 42 44 47 49 51 52 53 53 52
68 79 71 80 89 92 95 86 97 98 95 91 56 54 53 38 28 20 18 36 43 42 41 44 51 51 52 56 60 64 63 53 45 43 43 43 47 50 52 55 57 57 54 53
75 79 76 77 74 71 84 92 90 87 88 85 65 43 26 30 24 21 27 44 41 47 49 50 54 54 55 59 60 63 56 48 46 46 45 47 51 54 57 60 61 57 58 61
80 90 88 75 80 79 77 74 81 82 78 72 65 48 37 40 35 25 30 45 52 57 56 54 55 56 59 59 61 58 51 47 48 50 50 52 55 58 61 63 62 63 64 67
86 94 96 95 92 94 98 96 94 87 85 82 80 44 37 41 39 33 38 58 62 65 58 56 56 58 59 57 54 51 50 50 52 52 53 55 57 62 65 65 66 68 70 66
91 97 96 93 92 98 98 97 94 96 95 80 71 61 49 48 54 65 62 64 67 65 62 59 57 56 53 52 52 50 51 52 53 53 55 59 63 65 66 68 72 73 70 69
97 98 98 95 90 93 98 98 92 94 86 90 73 71 65 67 75 74 77 68 64 63 61 58 58 56 55 54 52 51 51 53 56 58 60 63 65 66 69 73 77 74 76 70
97 97 98 95 91 94 97 96 92 87 85 87 84 79 66 79 82 71 70 59 56 57 57 58 57 55 54 53 53 55 56 58 60 62 64 63 64 69 75 80 79 81 73 54
99 98 98 92 97 96 98 94 93 93 89 92 95 87 80 74 70 67 66 59 57 57 57 58 60 61 59 58 59 60 62 63 63 63 61 64 70 77 82 82 82 74 53 39
98 99 99 98 99 98 93 96 94 96 95 95 94 87 82 76 70 64 61 61 59 60 60 61 63 64 64 63 65 66 66 65 63 61 65 72 79 84 83 81 73 48 40 42
89 93 98 99 97 84 76 83 95 96 97 95 95 86 79 75 70 68 67 66 66 67 68 66 65 62 64 64 64 64 64 62 64 68 76 82 84 82 79 65 43 42 42 38
87 90 91 90 93 83 75 69 68 83 77 79 85 81 79 73 68 66 67 67 67 66 65 64 65 68 69 65 66 68 69 68 72 79 82 81 80 76 53 43 42 39 40 44
86 89 89 86 88 77 68 67 65 68 66 63 65 70 69 68 69 67 65 62 61 62 63 65 68 72 74 74 74 73 76 80 80 78 79 77 59 49 44 40 37 42 43 39
79 79 80 85 87 78 67 63 59 58 58 56 56 56 59 59 61 62 62 62 62 63 65 69 72 73 70 72 77 78 75 74 75 74 59 53 51 42 36 39 43 42 38 34
77 74 77 80 76 69 70 67 65 61 62 60 59 59 59 60 61 63 62 63 64 63 63 66 70 74 75 74 73 75 76 66 57 55 56 49 36 36 40 42 41 38 35 33
76 77 85 81 74 71 70 70 68 66 65 66 64 62 62 62 64 65 65 66 67 69 71 73 73 73 74 75 68 60 57 55 55 52 41 37 39 39 40 39 37 36 35 32
75 78 78 79 76 74 72 72 71 70 70 69 69 68 66 66 67 66 67 68 69 70 71 71 69 62 57 55 53 52 53 52 46 41 40 38 38 38 36 37 37 37 34 29
76 77 76 75 71 72 70 72 71 72 73 71 70 70 70 69 67 68 71 71 68 64 57 54 53 51 49 47 50 51 49 45 44 39 37 36 35 35 37 39 39 35 29 26

GFSCGP_prec_cthk_030.txt.gz
RH
51 55 59 57 58 56 61 67 67 61 60 63 55 47 40 37 37 36 33 32 32 32 32 34 36 38 43 39 37 35 39 41 33 39 50 62 71 73 70 70 68 69 64 63
53 54 50 52 58 61 62 64 62 61 55 54 53 44 40 37 33 32 32 30 29 32 32 30 34 37 43 42 38 37 41 44 38 39 48 57 67 71 68 68 65 66 65 61
54 46 46 52 54 59 61 63 63 61 57 54 52 41 34 27 24 23 24 26 27 29 31 33 38 38 41 44 41 38 39 43 42 42 47 54 60 61 64 65 65 64 62 51
60 55 57 60 64 68 70 66 68 71 75 73 63 56 36 33 29 25 23 23 24 27 28 31 38 39 42 46 44 41 40 41 44 44 44 48 53 57 61 62 61 61 54 42
60 63 67 71 69 77 77 75 79 82 86 83 72 77 44 34 33 27 24 22 23 24 25 28 33 38 42 45 45 45 45 41 43 44 46 49 53 58 59 61 60 54 46 44
63 68 72 72 75 79 82 86 88 93 95 87 68 77 42 36 29 25 23 20 20 22 25 27 32 37 41 46 47 48 49 45 44 44 49 52 56 59 59 60 56 47 44 47
76 74 76 74 79 82 90 97 97 97 96 79 67 73 41 35 32 30 29 24 21 22 26 28 32 34 41 48 49 50 53 49 48 52 55 58 60 61 58 55 48 46 48 51
76 66 58 58 58 71 84 94 96 95 89 83 72 66 39 33 33 32 28 25 21 27 29 30 29 32 39 49 51 52 57 56 54 58 57 58 56 54 51 46 46 49 52 53
67 61 55 57 60 67 79 86 77 98 97 97 76 55 41 36 34 34 33 27 26 22 32 35 32 33 40 53 55 54 60 62 61 62 58 53 49 46 44 46 49 52 53 56
64 66 57 61 69 68 73 80 91 95 97 95 69 58 43 35 34 34 34 29 27 29 36 39 36 40 47 58 60 59 64 65 66 63 57 51 46 44 45 48 51 54 58 62
61 71 69 76 84 77 85 83 89 94 96 93 75 49 33 31 36 42 39 34 31 26 35 42 44 45 51 64 63 62 67 68 70 64 54 50 48 48 49 53 57 60 63 65
62 76 79 74 74 81 88 87 89 86 82 85 83 52 34 36 43 44 45 39 32 37 44 40 47 51 60 65 65 66 69 71 71 62 54 51 49 52 55 58 62 63 66 67
74 83 86 81 84 86 97 94 90 88 83 88 92 47 36 34 38 48 46 42 42 60 53 55 55 57 67 68 67 69 70 72 68 59 53 52 54 57 60 62 64 68 68 69
80 89 90 88 84 98 98 94 97 98 97 88 89 68 56 46 52 51 44 53 61 66 65 65 64 64 67 68 68 70 70 68 61 55 54 56 59 60 63 66 68 69 70 72
88 92 94 92 93 96 97 98 97 97 92 97 78 71 55 53 54 54 49 59 69 76 70 67 69 67 66 65 65 65 62 57 56 56 57 59 61 64 67 68 68 71 75 79
94 95 97 95 94 98 97 97 98 97 97 95 92 86 71 67 60 67 66 68 79 78 76 74 71 65 62 60 59 58 58 58 57 58 60 62 65 67 68 68 70 77 82 81
97 98 98 91 94 98 98 97 97 93 97 95 96 77 80 82 82 81 74 73 81 80 75 74 69 64 63 61 59 58 57 58 59 62 64 67 68 68 69 72 79 83 81 72
97 99 98 97 97 98 95 94 90 88 86 86 87 87 89 91 85 78 71 71 72 70 69 69 67 64 62 60 60 60 62 63 65 68 68 68 69 71 76 82 84 80 73 51
93 98 96 99 97 92 83 88 94 92 82 80 83 87 85 82 74 72 68 68 67 66 66 66 68 68 68 67 66 67 68 69 70 69 67 69 74 80 84 84 78 69 44 44
90 92 96 97 97 94 75 74 78 86 80 84 85 84 82 79 75 72 72 71 70 70 72 72 72 72 71 68 70 70 68 69 70 72 74 78 83 84 81 77 53 46 42 38
88 90 93 92 92 86 73 68 66 66 71 75 83 84 86 85 82 77 77 74 72 74 75 74 73 71 73 76 76 74 76 76 75 79 84 81 79 78 62 51 45 37 40 43
79 85 82 84 91 82 76 68 62 62 60 59 63 70 76 78 77 80 78 75 73 71 70 70 72 75 79 83 82 78 78 81 81 78 78 76 63 57 48 38 38 42 42 39
77 77 79 82 80 74 77 73 69 67 63 62 62 63 65 69 72 74 75 74 73 72 71 72 74 75 75 77 81 80 78 79 78 69 61 59 52 40 37 41 40 39 38 37
75 78 83 83 75 74 73 73 71 68 70 67 66 68 70 72 73 73 73 72 71 72 71 74 76 77 78 78 80 79 72 62 59 57 55 45 39 40 39 38 38 38 39 36
76 80 78 80 78 75 73 75 75 73 72 71 70 70 71 70 72 72 73 74 75 76 77 78 78 77 75 69 62 57 55 54 54 50 43 41 40 37 36 37 39 41 38 31
76 76 79 79 74 75 72 75 75 74 74 74 72 73 73 74 73 73 73 75 76 76 76 73 66 58 54 53 53 52 52 51 45 44 41 38 36 36 38 42 43 38 31 27

GFSCGP_prec_cthk_033.txt.gz
RH
50 52 52 51 52 50 54 58 56 52 51 52 46 41 39 36 35 33 31 29 30 29 30 31 33 35 38 39 40 45 43 38 36 42 48 45 46 57 70 76 78 76 82 73
53 51 45 48 51 55 57 59 52 50 50 50 45 37 35 32 30 29 28 26 25 25 28 29 30 32 34 37 37 43 44 41 40 40 43 42 46 58 72 78 79 78 78 80
50 44 44 49 53 56 57 59 59 56 51 48 47 35 27 26 26 27 27 26 24 23 24 25 28 31 31 35 36 42 46 44 42 43 45 49 51 62 73 80 78 80 75 70
54 48 51 55 58 57 61 56 58 62 67 65 58 48 30 29 28 27 28 27 25 23 23 22 24 29 32 32 35 40 46 46 44 46 49 49 51 56 63 69 71 71 67 62
53 56 60 62 60 64 64 64 68 71 77 75 68 74 35 36 35 33 29 28 26 23 22 21 23 26 31 35 37 42 45 48 45 46 51 54 58 60 67 66 67 69 60 57
59 59 61 61 62 67 68 73 76 80 85 84 63 77 39 38 34 33 33 31 28 24 22 23 24 28 31 38 41 45 46 49 49 48 50 54 60 60 63 64 64 64 56 54
65 63 64 66 64 63 66 74 76 80 82 72 60 79 44 37 38 36 34 33 31 27 25 23 28 31 32 37 41 46 48 52 54 52 54 55 62 60 66 66 60 59 58 49
72 66 61 56 55 59 62 69 71 75 70 63 64 67 40 35 35 34 32 34 33 31 27 28 27 31 34 36 39 47 51 56 58 56 56 59 61 69 68 66 62 55 50 50
75 65 53 51 55 60 73 77 69 81 72 83 63 48 41 32 35 34 36 36 37 33 28 28 28 34 35 38 40 50 54 57 60 61 59 62 68 71 70 61 54 49 49 52
68 62 49 51 60 64 74 76 87 91 91 83 67 64 45 36 38 30 35 39 39 37 31 28 32 36 36 40 43 52 58 59 65 69 66 70 72 69 61 55 48 48 51 56
56 58 54 61 67 68 83 89 95 92 89 86 75 51 42 37 37 38 45 42 39 39 35 30 34 38 35 37 42 53 62 65 69 71 72 73 69 63 57 53 52 53 57 62
55 63 68 67 63 70 74 83 90 97 87 94 91 56 46 49 49 46 40 42 45 44 38 35 34 39 41 42 49 60 71 74 73 75 74 72 66 59 58 55 55 59 63 66
59 77 81 70 75 78 88 85 88 95 94 93 95 49 54 57 52 45 45 49 54 48 49 42 44 50 51 52 60 69 78 78 78 79 75 69 63 62 59 56 60 64 66 69
70 82 81 79 75 88 98 94 94 98 97 84 87 71 65 66 59 53 50 59 61 59 55 46 51 49 56 61 67 76 78 82 82 78 75 67 66 64 59 62 66 67 70 73
84 89 88 88 87 91 97 98 98 98 92 96 78 91 70 62 55 54 65 67 68 66 57 62 63 62 64 68 75 79 81 83 82 78 73 70 66 60 63 67 69 72 74 72
90 94 94 90 90 93 98 97 94 95 94 92 80 78 64 57 59 69 70 74 74 73 74 74 72 74 74 78 81 83 82 82 79 76 71 63 61 65 68 72 74 73 72 73
96 96 96 87 86 94 98 95 91 91 86 85 87 65 69 75 71 82 73 76 79 90 82 74 76 78 78 81 84 82 79 76 70 65 63 64 67 70 74 74 72 73 76 80
94 97 97 92 95 96 95 95 91 90 82 80 78 76 77 77 75 71 66 71 81 88 79 76 77 77 75 74 73 69 68 66 63 62 65 70 73 74 73 74 76 79 83 82
88 94 95 96 95 84 82 87 89 93 93 91 94 82 75 78 76 67 67 72 80 85 81 79 77 74 73 72 70 67 65 64 65 69 72 73 73 74 76 79 84 85 76 61
91 93 95 92 92 92 79 79 83 87 87 92 92 91 91 90 88 79 78 76 78 78 76 76 77 77 77 75 73 72 70 69 70 71 71 74 78 79 83 86 81 70 49 45
90 90 90 90 93 80 73 71 69 72 81 89 91 91 89 88 84 80 78 78 78 77 78 81 82 81 81 78 75 74 75 73 74 77 78 79 84 84 81 73 54 46 38 39
81 84 87 86 86 84 71 65 66 65 65 71 76 86 88 89 86 84 82 79 80 81 81 81 81 81 81 80 81 81 81 80 79 81 83 81 80 73 57 49 40 37 42 41
81 78 78 81 78 70 71 69 67 65 62 66 68 73 81 83 80 78 78 79 79 79 78 78 79 80 81 82 82 81 81 81 80 81 78 66 58 53 43 38 40 41 38 40
75 76 79 79 75 74 72 72 68 68 68 65 66 67 70 72 74 75 79 81 81 79 79 78 77 79 79 81 83 83 82 80 71 61 57 54 46 39 39 40 37 39 41 39
73 77 77 79 78 74 74 77 74 72 70 68 68 69 70 71 74 76 78 79 80 79 81 82 82 83 83 82 79 71 64 59 56 52 49 42 40 39 37 37 41 43 40 34
72 72 75 76 76 76 76 78 76 77 76 75 73 73 74 75 75 77 79 81 81 82 83 84 83 78 69 64 61 58 54 50 50 44 41 41 37 36 39 43 44 40 32 28

GFSCGP_prec_cthk_036.txt.gz
RH
51 51 46 42 43 43 44 45 45 42 42 40 36 34 34 31 31 30 30 30 30 28 28 28 28 30 33 35 35 37 41 49 49 45 48 51 54 53 53 57 62 68 75 78
51 49 41 41 43 46 48 47 44 41 41 40 36 25 27 25 23 24 25 25 26 26 26 26 27 28 30 31 34 36 37 42 49 49 46 48 50 56 62 59 66 73 79 80
45 42 39 44 46 50 50 49 45 44 42 41 38 27 23 21 21 22 23 23 24 26 26 25 24 26 29 30 32 34 36 37 43 49 50 47 47 52 58 56 64 74 83 83
48 44 44 47 47 47 48 45 48 49 51 51 48 40 26 25 24 24 25 27 26 26 28 27 25 25 28 29 29 32 34 35 39 45 47 48 48 53 61 65 64 74 87 86
47 48 52 51 49 52 52 52 55 56 57 58 53 69 27 29 29 29 28 29 31 30 28 29 25 23 27 28 30 30 32 33 37 43 48 52 55 59 62 70 77 76 79 72
48 51 52 53 54 56 59 61 61 60 64 66 44 56 26 24 27 29 29 30 33 32 31 27 26 24 24 27 30 33 34 34 38 41 48 54 55 58 66 72 75 77 81 71
58 55 56 59 61 62 63 68 60 66 68 50 36 43 29 20 24 26 31 32 33 34 33 30 30 26 26 27 28 34 38 37 39 42 49 55 57 64 72 74 73 80 66 67
60 57 57 62 56 53 56 57 54 57 45 42 53 46 27 28 32 27 26 30 34 36 36 34 31 31 29 28 30 36 40 43 45 47 51 57 63 68 68 72 72 76 66 62
64 61 56 55 51 50 60 63 54 67 64 71 51 36 32 33 34 37 33 35 34 40 39 37 30 32 32 34 32 38 43 48 49 53 55 59 64 67 77 71 80 72 70 62
64 69 56 53 52 52 56 57 74 83 77 66 48 45 43 41 41 41 38 42 41 39 40 38 34 31 32 37 36 42 48 51 53 56 59 64 66 69 72 80 78 73 66 60
65 65 58 53 54 54 69 76 84 79 81 82 64 48 49 52 45 46 37 40 43 41 41 41 38 33 37 41 42 46 48 51 57 60 61 69 69 69 81 79 82 67 64 61
64 68 58 47 50 58 64 72 82 94 82 89 86 58 58 61 53 53 50 45 47 46 45 48 43 37 41 44 45 49 52 58 64 65 67 72 79 78 80 83 72 66 65 64
70 64 60 53 71 73 81 77 80 88 90 88 96 64 66 67 68 62 53 45 43 46 50 53 47 41 46 44 46 52 58 63 69 72 72 76 83 85 78 73 67 67 70 66
60 63 65 64 66 77 95 91 92 98 96 83 77 65 72 77 77 69 60 51 50 53 61 60 51 47 46 48 49 51 56 66 73 74 83 85 82 81 76 70 69 73 70 69
67 81 76 79 78 84 92 92 96 98 92 95 63 74 72 81 84 70 65 57 55 64 68 63 56 51 52 54 54 58 64 70 79 85 86 85 82 76 74 72 76 73 71 75
79 87 92 91 86 92 94 94 94 92 89 85 80 69 65 66 63 60 57 58 71 75 72 65 58 54 64 66 64 70 75 82 86 88 89 84 79 78 76 78 71 72 76 80
84 92 94 91 89 85 92 94 91 88 77 75 73 61 62 67 72 79 86 84 81 75 72 62 61 65 65 75 76 79 85 85 86 90 85 83 81 79 73 72 76 79 82 80
88 97 96 95 91 94 87 85 85 88 71 69 63 66 72 83 92 88 84 80 78 77 70 75 75 76 82 87 86 87 87 91 91 85 84 81 74 73 76 79 82 82 77 80
86 90 96 93 93 84 81 82 84 97 96 88 77 73 71 80 80 88 90 88 93 91 89 88 89 91 91 92 91 90 89 86 84 77 73 74 77 80 83 82 79 81 84 83
90 91 94 95 96 85 75 77 78 91 97 96 97 90 83 86 79 80 92 97 94 89 87 89 90 90 90 88 85 81 77 75 74 74 78 80 82 80 81 84 87 88 77 62
91 90 89 91 94 81 71 74 68 70 79 86 93 96 94 92 82 82 84 90 94 91 89 87 86 84 83 81 79 78 78 78 78 79 79 82 85 85 87 89 80 65 47 42
81 82 86 89 89 86 73 72 71 69 71 75 86 93 95 91 88 90 91 89 88 86 86 87 87 86 85 85 83 80 79 81 84 86 86 87 89 87 81 66 49 43 38 39
79 72 73 77 74 72 75 74 75 70 69 69 75 87 93 92 92 88 87 90 90 90 88 87 87 84 82 83 85 87 86 85 85 86 87 85 77 60 51 45 38 38 40 40
75 72 73 75 72 73 74 76 75 72 72 71 72 77 80 83 84 84 87 88 88 87 86 83 81 80 80 81 82 83 84 85 84 80 67 58 54 47 39 37 39 40 40 38
71 72 73 73 72 73 73 76 75 74 75 75 75 75 76 77 81 83 83 84 85 84 82 82 83 83 83 83 84 83 77 70 63 59 55 49 41 38 38 38 41 41 38 35
64 63 67 69 72 76 74 77 77 77 78 78 78 77 77 77 78 80 82 84 84 84 85 85 86 85 79 71 68 65 62 58 54 50 43 39 39 37 40 43 42 38 34 30

GFSCGP_prec_cthk_039.txt.gz
RH
58 57 51 46 46 45 43 43 41 37 39 36 32 29 27 26 25 24 25 26 26 28 29 27 27 28 30 31 34 37 37 37 42 46 52 59 60 58 62 64 60 64 61 61
59 54 45 43 43 44 44 42 40 35 33 33 30 23 23 20 18 19 19 20 22 23 24 27 28 27 26 27 32 36 37 37 37 41 48 57 60 58 59 62 65 71 80 75
52 46 43 44 45 44 43 40 37 38 35 32 31 23 19 18 17 17 18 19 19 20 20 22 24 27 27 26 27 32 37 38 37 39 44 54 55 56 54 55 58 65 73 78
52 47 43 41 42 42 42 38 38 39 42 42 39 34 22 19 19 20 21 20 20 21 22 22 22 24 26 26 28 28 35 37 38 39 41 42 43 51 53 55 58 66 74 74
51 46 47 46 42 42 44 45 45 45 47 51 43 54 24 21 21 21 22 22 23 25 25 24 24 24 25 27 29 32 34 37 38 37 40 40 43 47 52 55 60 65 72 80
51 49 47 45 46 47 49 50 52 53 60 63 38 42 22 20 18 19 21 22 25 26 27 28 27 26 27 26 30 33 35 37 37 38 37 39 44 44 50 58 62 68 75 81
51 48 49 47 51 53 54 61 61 66 66 48 29 35 26 20 24 25 27 27 27 25 28 27 28 30 28 27 28 35 36 39 36 35 39 42 46 45 52 60 63 69 81 84
58 62 52 56 57 55 55 59 53 53 36 35 39 39 26 25 26 29 30 28 26 24 21 27 32 32 34 31 29 32 35 41 38 38 42 46 46 49 54 63 71 73 80 78
60 61 52 55 54 51 56 62 48 57 48 52 36 28 30 33 32 37 36 32 31 30 30 26 29 36 37 36 34 35 35 40 42 45 48 48 49 53 58 67 75 74 77 77
62 62 51 55 57 55 51 50 62 69 70 58 40 39 44 45 46 47 49 46 42 42 39 34 31 37 38 40 39 39 40 41 47 50 52 52 56 59 65 71 73 80 77 80
58 57 57 60 59 49 54 56 60 63 72 73 63 44 50 58 61 61 57 55 50 44 43 39 35 42 43 42 44 46 46 45 52 52 53 58 62 67 69 74 81 74 86 80
59 60 64 58 44 46 53 64 72 87 75 81 84 55 57 63 66 64 69 67 53 48 47 47 43 53 51 52 51 52 51 50 56 54 58 64 68 70 75 75 75 85 80 88
59 65 66 53 56 59 64 72 78 83 89 89 95 60 63 68 65 65 70 71 63 56 51 51 49 62 59 60 59 56 54 54 58 59 63 69 72 76 77 80 84 88 83 80
63 68 58 51 62 66 83 81 85 97 93 80 73 66 68 67 70 78 80 79 70 60 54 53 56 69 61 60 61 58 56 60 61 64 68 73 77 79 85 84 85 85 79 72
71 63 57 65 73 76 83 88 87 97 96 89 66 80 65 63 65 71 77 75 74 66 59 57 63 72 61 60 59 57 57 65 69 71 76 80 82 82 83 86 82 77 74 76
64 69 81 86 78 85 88 86 89 94 85 79 77 70 64 61 60 64 69 68 72 63 57 63 72 72 58 57 57 57 63 71 77 80 80 81 85 85 86 81 84 78 77 83
68 85 92 85 80 79 90 92 94 93 86 78 72 59 62 74 84 87 86 77 66 62 66 74 75 65 55 58 59 66 68 72 77 76 79 79 83 85 84 81 77 83 85 81
80 88 93 95 81 91 81 81 81 85 91 90 76 68 71 81 93 95 93 92 82 81 80 75 67 63 63 72 72 71 75 78 76 76 81 85 88 84 85 87 86 82 82 85
78 86 96 90 83 74 75 76 76 81 94 93 93 87 74 83 94 97 93 89 84 79 76 70 64 69 81 85 82 82 81 82 82 85 86 89 89 90 83 79 80 85 86 85
84 86 95 84 90 79 69 70 68 75 83 88 94 94 85 90 90 98 94 87 83 78 82 82 76 79 85 86 84 86 86 89 92 93 89 83 78 76 79 86 85 87 90 84
92 93 92 91 93 76 69 69 70 70 73 79 92 95 94 89 89 97 99 98 97 97 98 98 98 97 98 98 98 96 94 89 83 76 75 77 81 85 86 88 94 86 72 54
81 84 89 91 93 89 72 73 76 72 71 72 87 95 94 91 92 93 96 97 94 91 90 91 90 90 90 89 88 84 80 77 79 83 85 85 86 91 95 87 74 53 45 38
77 68 84 85 81 74 75 76 76 72 72 74 79 90 95 95 94 95 96 95 94 92 91 90 89 86 85 87 90 90 88 84 84 86 90 94 92 86 71 52 45 38 36 39
71 69 71 76 75 75 74 74 75 73 74 73 81 83 89 92 91 90 93 93 91 89 90 91 91 89 88 86 85 87 89 89 93 93 89 78 62 53 46 39 35 38 41 39
70 70 67 70 71 72 72 74 75 75 78 76 77 82 84 85 86 87 87 89 90 88 86 84 83 82 83 85 87 89 90 85 77 68 60 53 46 39 35 37 40 42 38 35
66 60 60 63 70 73 75 76 76 76 78 79 79 80 79 80 83 86 86 88 89 88 88 87 86 86 84 79 75 72 69 65 60 54 49 42 37 37 39 43 40 37 34 28

GFSCGP_prec_cthk_042.txt.gz
RH
69 70 66 65 61 61 57 53 50 46 44 41 39 33 30 26 26 23 23 24 24 24 24 25 25 24 22 24 29 33 35 36 35 39 44 46 48 56 59 60 62 58 61 64
65 64 58 55 55 54 52 52 50 44 39 38 33 27 23 20 17 18 18 18 19 19 21 21 23 25 25 24 26 30 35 36 34 36 40 45 49 52 56 59 61 60 65 68
65 57 51 52 50 49 49 49 45 42 37 34 32 26 20 18 17 17 16 16 17 17 18 18 19 21 24 25 26 29 32 36 37 36 39 45 49 50 51 54 59 61 63 70
61 56 49 46 48 47 48 42 41 39 41 45 37 44 22 17 16 16 16 16 16 17 17 18 18 19 20 22 26 27 32 36 39 40 40 41 44 44 47 49 54 58 63 72
56 49 49 47 44 44 45 45 44 44 46 47 40 47 24 17 17 16 17 19 19 18 18 18 20 21 21 22 25 27 29 36 38 41 41 43 44 45 46 48 51 56 64 70
53 48 44 45 44 44 47 48 48 49 52 59 41 41 29 19 19 18 20 21 21 22 21 21 21 21 22 24 23 25 30 32 40 43 43 43 43 43 45 47 49 54 62 70
52 49 48 47 48 47 51 55 68 70 67 57 30 41 28 19 20 20 22 23 25 26 25 22 21 22 22 23 25 25 29 37 39 46 47 43 45 45 45 44 48 53 59 68
57 57 48 49 51 54 56 61 67 64 57 50 38 39 27 20 22 24 28 31 32 32 31 28 26 25 25 26 27 29 30 42 45 47 46 48 45 44 43 45 49 53 63 68
58 61 52 55 56 57 60 64 51 59 46 56 37 23 23 30 32 35 38 39 39 40 39 37 35 33 30 29 28 34 31 41 48 48 49 52 50 43 44 48 55 61 65 73
61 65 56 60 57 56 55 51 63 65 68 61 40 38 38 41 46 47 47 46 48 48 48 47 45 42 37 33 31 32 41 40 47 48 55 55 51 48 49 54 59 63 71 78
59 62 63 61 62 58 57 57 56 57 61 74 66 51 45 52 57 61 62 62 61 61 56 53 48 44 40 39 36 37 47 53 55 55 57 56 54 54 57 63 67 71 78 79
63 65 67 59 54 53 52 54 56 70 71 75 80 60 51 52 55 60 65 60 62 60 60 57 52 45 41 40 43 49 54 61 60 58 58 60 62 64 67 72 75 81 81 82
60 64 69 61 57 52 53 55 66 74 79 82 87 60 51 55 63 66 68 65 62 68 69 67 65 50 49 48 57 64 66 70 60 58 60 67 71 72 76 81 84 84 84 77
57 60 63 73 66 60 67 72 75 84 89 82 73 61 49 61 62 63 69 69 71 74 75 76 71 59 55 58 75 79 72 70 63 61 66 74 75 80 84 85 84 87 79 83
60 67 65 59 52 60 71 78 83 95 95 95 80 77 66 67 64 69 76 71 65 67 70 78 75 62 60 67 80 77 68 67 67 68 77 79 81 84 85 84 82 85 89 84
64 75 67 65 66 77 81 82 86 87 90 94 94 92 73 67 72 88 92 84 76 70 73 75 66 61 66 76 80 70 69 71 70 74 80 81 81 80 82 90 86 79 77 87
71 69 68 81 79 80 88 86 86 87 91 93 96 89 77 72 87 95 95 95 86 73 69 64 63 63 78 80 70 72 72 70 73 79 82 81 83 89 89 87 86 85 90 88
67 70 84 90 86 94 80 76 78 78 80 92 93 90 87 83 93 97 89 91 82 72 67 67 72 84 81 71 73 69 72 75 79 83 81 85 88 86 83 76 80 88 87 88
65 84 90 92 87 74 77 77 75 75 81 81 89 90 87 90 98 92 85 83 80 78 77 78 82 78 69 66 65 69 73 77 80 81 86 84 82 80 88 93 93 85 84 86
73 83 94 94 92 83 69 72 75 76 85 79 87 91 90 89 96 86 82 81 79 78 77 77 73 69 73 76 79 82 82 77 83 84 82 82 87 98 97 90 83 83 90 92
89 94 93 91 89 74 67 74 76 80 80 76 85 94 92 92 96 97 91 85 84 81 77 75 72 80 86 87 84 84 91 93 95 96 98 98 93 84 82 86 94 95 87 73
89 91 89 81 88 85 75 76 81 79 78 74 81 93 94 92 93 96 97 97 98 98 95 90 92 95 97 98 98 98 98 98 95 89 85 84 86 90 95 93 84 70 53 44
82 73 78 77 79 74 76 78 77 77 75 75 81 89 92 96 95 96 95 91 90 90 91 93 96 94 94 97 94 86 83 84 84 86 89 90 92 88 81 65 48 42 37 36
77 71 71 72 75 75 76 76 77 76 77 75 79 87 90 95 96 95 94 95 93 92 90 90 89 88 88 89 89 89 88 87 87 90 91 84 73 57 47 41 36 35 39 38
77 73 69 67 66 73 76 76 78 76 79 79 77 83 86 89 89 89 91 91 89 88 88 89 88 86 83 81 84 85 87 88 85 75 64 55 48 41 35 35 39 40 36 34
71 70 68 64 63 67 73 77 79 78 79 80 79 79 82 81 84 86 88 90 90 90 89 88 84 81 79 77 76 74 70 66 64 56 48 41 37 36 39 42 38 35 31 26

GFSCGP_prec_cthk_045.txt.gz
RH
74 76 75 76 64 58 58 57 51 48 45 41 39 36 32 28 27 26 25 25 23 22 22 23 23 23 22 20 22 31 32 36 39 37 41 41 45 50 49 51 52 51 52 59
68 70 67 66 65 63 63 58 53 48 46 42 38 31 28 25 20 20 18 18 18 19 19 21 23 24 25 26 25 26 34 38 41 42 38 41 47 53 58 56 57 53 53 59
70 63 67 66 63 59 57 56 54 52 45 40 35 27 22 19 18 18 17 16 16 16 17 17 17 18 22 24 26 28 30 35 42 44 43 42 47 55 61 63 59 56 55 55
68 64 60 61 60 56 56 49 47 45 44 45 39 49 29 20 18 16 15 15 15 15 16 16 17 17 17 20 24 26 28 32 36 43 45 39 41 44 48 54 52 53 56 61
69 63 61 58 53 53 52 46 45 44 46 47 42 47 31 23 19 17 17 16 16 16 16 15 15 16 17 18 19 22 25 29 34 39 42 44 41 42 46 53 61 61 61 63
61 58 55 54 49 48 47 46 45 47 51 59 42 43 32 22 18 17 16 17 17 17 18 18 18 18 19 19 20 22 24 26 30 37 40 45 44 42 44 52 59 61 60 61
59 58 53 50 50 47 48 50 62 62 66 58 40 46 33 22 18 18 19 21 22 24 24 24 24 22 21 21 22 23 25 26 29 34 33 44 48 44 45 50 56 61 61 62
63 61 51 47 50 50 52 52 63 67 65 58 42 47 28 19 21 25 27 29 30 31 32 31 30 28 26 26 23 23 23 25 28 32 34 38 45 48 55 56 59 63 66 65
59 59 53 50 49 51 58 61 58 62 56 63 42 27 19 22 31 36 36 38 39 40 42 41 38 37 36 35 33 28 25 26 28 30 39 40 44 55 62 60 63 69 68 66
54 61 57 57 55 55 57 53 64 64 63 64 46 37 33 38 42 45 45 44 44 46 48 47 44 43 42 43 45 37 31 27 30 33 44 50 53 60 60 61 64 64 63 66
53 56 63 61 61 61 62 63 56 56 61 68 67 52 43 49 51 51 49 52 56 62 64 59 53 50 47 43 40 39 40 35 33 36 52 62 64 62 61 66 64 64 66 68
57 62 69 64 56 57 55 56 56 66 59 66 74 59 51 53 52 50 52 55 53 59 67 64 60 56 51 50 45 40 45 46 39 45 46 61 65 63 61 67 67 67 69 74
60 67 73 65 59 58 60 57 59 63 73 78 84 64 55 57 59 62 64 61 66 69 78 69 67 63 56 59 52 50 53 51 52 52 57 62 62 60 73 75 75 74 77 80
61 64 61 66 64 62 63 57 65 77 88 77 74 66 68 71 75 71 70 82 83 79 73 73 65 65 73 65 63 58 58 57 62 62 65 74 67 77 81 80 80 83 86 86
61 65 62 63 62 59 58 67 79 86 84 89 71 79 77 81 80 74 80 88 92 80 69 61 63 70 70 72 66 63 67 71 80 77 78 72 77 84 83 81 84 87 93 88
63 68 70 62 57 59 75 79 83 85 84 88 89 86 84 82 81 84 87 94 94 85 73 72 76 79 71 64 64 69 79 85 82 88 83 77 82 83 83 89 87 94 83 84
66 67 70 68 63 81 89 85 83 81 81 86 89 80 82 82 87 89 86 86 84 76 72 71 72 71 70 66 80 86 86 87 88 86 78 78 83 83 83 95 95 86 93 92
67 69 68 75 84 92 82 73 77 78 78 78 81 81 82 86 90 86 80 79 75 73 67 68 71 72 78 90 90 85 86 88 87 81 79 80 86 91 91 81 82 95 95 90
68 69 75 92 93 77 78 76 75 75 74 75 82 82 88 87 90 82 78 78 78 78 78 79 84 89 89 88 84 83 84 84 83 84 83 95 85 80 91 97 96 89 96 97
71 73 89 95 94 87 77 69 73 74 77 74 82 89 89 89 94 90 84 74 74 75 79 81 86 86 77 71 79 82 79 80 81 87 97 95 97 99 98 95 88 90 89 88
76 89 95 94 91 77 69 73 77 79 75 73 78 94 89 91 95 97 92 86 78 75 71 71 73 73 74 76 79 80 88 92 94 97 95 96 98 97 98 97 91 91 94 84
84 91 94 93 88 85 74 77 80 76 74 73 78 90 95 94 96 94 95 94 94 89 85 88 90 96 98 98 96 95 97 94 94 97 97 97 95 92 91 96 94 76 58 47
86 82 88 78 77 73 77 78 75 76 75 75 79 89 93 97 91 93 94 94 95 95 96 98 98 98 98 97 98 98 98 98 98 97 94 92 94 96 83 62 49 40 36 34
84 83 83 78 76 77 76 76 77 76 77 78 79 89 91 95 93 90 90 92 92 94 97 97 97 97 98 98 97 97 97 95 93 89 90 88 69 52 43 38 34 34 34 35
82 83 80 73 68 68 71 76 78 79 78 79 80 87 90 91 91 91 92 90 89 88 87 89 90 90 90 90 88 85 86 84 82 72 57 50 44 38 33 35 38 38 36 33
73 81 81 76 66 64 65 70 76 80 80 80 82 83 85 87 87 88 92 92 91 90 89 87 85 84 82 79 77 74 68 62 58 53 45 40 37 39 41 39 36 33 29 25

GFSCGP_prec_cthk_048.txt.gz
RH
78 82 85 86 81 72 65 60 56 46 41 37 37 36 29 27 29 29 27 24 23 22 21 21 19 18 20 22 25 30 32 34 38 47 56 52 51 56 54 47 46 48 48 51
82 78 80 92 91 85 71 61 56 49 46 42 38 34 29 26 25 24 23 21 21 21 22 22 23 24 23 21 21 21 22 30 33 37 43 50 45 46 51 57 60 63 56 55
76 67 70 70 69 73 63 57 55 54 50 44 41 31 26 21 18 18 18 17 17 16 15 16 18 21 24 25 26 27 25 25 31 33 37 49 56 55 52 56 60 66 66 68
75 62 65 68 65 59 60 56 57 55 50 50 41 44 29 21 19 18 17 16 16 17 16 16 16 16 17 19 21 24 25 26 29 31 34 40 50 53 51 49 53 60 61 62
68 64 63 62 64 60 59 54 51 50 51 48 42 46 28 23 20 17 17 16 16 15 16 16 15 15 16 18 18 19 23 26 29 29 31 38 50 52 49 47 51 54 63 70
66 64 65 62 58 56 55 53 53 52 51 56 42 44 34 23 20 18 17 16 17 17 17 17 17 17 17 18 18 19 19 22 27 30 30 31 35 47 52 54 52 54 59 67
71 69 65 61 60 55 52 55 61 60 61 52 41 50 35 26 21 20 22 22 21 23 24 23 22 22 22 21 21 21 21 22 24 26 29 31 32 39 48 53 54 56 59 63
73 71 62 56 55 54 52 51 56 55 64 57 43 45 31 24 20 22 26 28 28 29 30 29 29 29 29 28 26 26 23 22 22 23 25 27 31 38 42 50 53 57 60 62
68 64 56 53 51 49 53 58 52 60 60 64 45 34 22 24 31 34 35 35 37 38 38 37 35 34 35 36 36 36 33 27 25 22 21 24 28 33 38 48 54 60 65 67
56 65 57 56 52 51 51 54 65 64 57 59 44 41 32 34 40 43 45 46 47 46 43 42 41 41 40 39 41 41 42 40 35 28 23 23 26 32 39 44 57 62 69 71
52 54 64 59 59 59 59 61 56 57 57 62 63 41 41 44 48 52 52 51 53 54 53 51 53 53 51 52 52 49 46 43 37 37 32 26 27 36 46 56 62 68 75 76
51 56 69 66 59 57 57 59 57 61 52 64 68 58 49 55 56 58 59 67 70 60 61 65 66 62 64 65 62 54 49 45 40 36 42 37 40 47 67 69 73 72 73 78
50 59 67 62 60 58 60 57 55 54 60 72 79 65 57 61 64 69 72 73 70 72 73 74 71 76 76 73 69 64 54 48 42 41 44 50 51 51 75 81 81 76 77 84
57 63 60 64 58 57 60 56 57 63 78 77 80 63 67 69 70 72 74 76 75 75 82 82 71 66 70 70 72 71 64 63 53 58 62 66 70 64 70 80 81 76 82 82
61 67 65 63 60 60 60 57 63 75 76 83 69 77 71 75 75 77 80 78 75 71 69 70 66 67 71 73 78 73 67 68 74 77 80 73 75 69 71 64 75 82 83 82
65 70 68 65 55 56 59 62 71 78 79 80 76 77 76 74 80 85 79 72 71 69 64 63 61 70 80 87 84 74 69 76 88 90 90 82 94 82 75 80 84 84 79 78
63 66 71 63 59 63 75 77 79 82 81 80 84 76 78 80 83 77 72 71 72 73 65 63 61 59 63 64 65 68 78 91 96 98 97 94 82 81 83 85 83 79 83 90
66 69 71 68 65 79 77 75 77 81 77 78 79 82 82 86 86 79 79 72 73 73 73 70 65 65 65 67 75 86 96 94 99 97 98 93 84 85 82 80 82 95 98 97
64 66 74 72 79 77 80 81 78 80 77 75 78 83 85 84 88 87 84 74 71 70 72 78 80 83 84 87 88 87 91 92 93 94 91 87 88 93 88 93 99 98 97 96
68 71 73 83 91 87 79 73 77 78 81 76 77 80 87 86 89 90 89 82 75 67 66 69 78 76 78 82 83 85 91 87 89 88 86 90 98 98 98 93 92 96 97 95
76 77 85 92 93 81 74 75 81 82 78 76 77 83 87 89 91 88 87 86 83 76 71 75 80 74 70 73 82 89 85 85 93 98 98 97 97 95 96 98 98 97 97 92
76 78 92 93 92 87 73 78 84 79 77 77 77 84 87 90 89 90 88 89 88 88 84 88 92 90 91 82 84 93 96 96 97 97 97 97 98 98 97 97 95 81 63 54
81 80 90 86 79 73 77 82 80 79 76 79 79 86 88 91 89 88 90 91 91 92 92 91 92 92 95 97 96 96 96 98 98 98 98 96 96 96 83 64 54 44 36 34
76 82 88 87 77 82 78 79 80 79 77 79 80 86 91 93 90 89 92 93 92 93 94 94 94 95 96 96 96 97 96 96 96 94 90 84 66 54 44 37 33 34 37 37
74 85 87 85 78 73 71 76 77 77 79 80 83 87 92 94 95 92 92 94 94 93 93 92 90 90 91 93 92 91 85 78 68 59 53 47 40 35 34 37 39 35 30 28
71 78 88 85 77 73 67 65 69 73 76 79 81 85 90 92 92 93 93 91 92 92 91 89 86 82 79 76 68 63 58 55 53 47 42 38 36 36 39 35 31 29 26 23

GFSCGP_prec_cthk_051.txt.gz
RH
95 93 94 76 70 64 62 59 54 44 38 37 35 35 27 25 28 27 25 23 21 20 18 19 19 19 20 23 24 30 34 34 32 31 39 51 56 61 62 59 54 55 49 54
95 94 91 96 91 77 72 68 61 52 45 42 37 36 28 25 25 26 25 23 22 22 21 21 22 23 21 20 19 21 29 35 34 33 33 36 40 49 58 58 54 55 57 58
89 81 87 94 96 96 85 76 66 56 48 45 42 34 28 23 23 21 19 19 18 17 16 16 18 20 23 24 24 22 22 25 32 36 37 35 40 40 48 51 55 53 55 62
82 75 75 80 87 87 83 74 68 57 51 55 46 47 30 22 20 18 18 19 18 16 17 17 17 17 16 18 23 26 28 28 27 27 27 29 33 38 42 51 69 69 57 56
76 78 79 73 69 72 71 60 56 55 55 52 46 49 28 22 20 19 19 18 17 17 17 17 17 16 17 17 17 19 24 26 28 29 29 29 33 35 41 47 48 57 61 55
70 72 69 66 65 63 62 59 57 57 53 56 43 44 30 24 22 20 20 19 19 18 17 17 17 17 17 18 17 18 19 20 21 24 28 29 30 34 40 44 59 74 71 64
72 74 68 63 62 60 62 62 63 57 59 51 46 49 33 26 25 23 22 22 22 22 22 22 21 21 20 20 20 20 20 21 21 21 22 28 30 33 35 40 48 61 65 65
78 80 67 64 63 64 60 57 59 50 59 57 48 49 31 27 24 22 24 26 28 28 29 29 29 28 27 27 26 25 24 24 23 22 22 23 26 31 33 35 38 43 54 63
73 72 67 64 59 57 60 60 51 57 56 61 47 36 24 25 27 33 33 33 33 34 36 37 37 37 35 34 34 34 35 34 33 29 25 22 21 23 27 30 38 42 46 52
60 71 62 60 57 56 53 51 58 60 49 51 41 42 30 30 36 39 40 39 40 44 45 43 41 40 39 39 39 38 38 39 42 43 42 34 28 26 24 25 29 37 42 48
57 60 66 56 55 58 57 59 57 58 55 59 58 36 35 42 45 48 51 53 56 57 56 56 54 52 48 47 49 50 50 49 48 45 43 40 37 34 30 27 29 37 44 51
56 58 64 60 58 59 59 59 57 62 56 65 63 52 47 51 53 57 60 63 64 61 60 58 57 55 53 51 53 58 62 61 60 56 51 47 43 42 40 34 36 45 51 60
52 56 64 64 61 60 62 59 58 58 60 64 65 60 55 59 61 64 68 67 66 67 66 64 59 58 54 52 55 60 68 76 71 66 60 54 51 50 55 54 53 53 60 70
49 55 58 64 58 60 63 60 58 58 65 64 72 66 65 65 66 66 69 74 71 64 60 57 56 56 49 49 57 64 64 68 78 70 62 64 63 63 66 67 70 74 80 86
52 62 66 63 62 61 61 58 58 57 64 75 73 72 67 68 68 70 74 69 64 61 60 58 60 58 53 59 72 70 69 71 78 73 68 73 75 76 76 76 72 75 84 86
60 74 72 68 59 60 63 58 60 66 73 79 76 75 67 72 75 80 74 69 64 63 66 60 62 62 57 60 63 77 78 75 73 73 77 84 84 81 78 83 76 71 72 73
68 71 75 67 62 62 60 60 65 71 76 74 79 71 76 78 82 84 78 73 65 65 63 63 64 63 61 60 62 68 75 80 79 83 84 87 81 80 82 81 76 71 67 78
73 73 73 70 62 68 56 71 75 77 76 76 73 72 80 83 83 85 82 72 65 65 65 68 70 72 72 71 71 79 87 95 96 96 96 98 88 97 95 89 83 79 87 96
66 70 75 71 69 61 70 82 82 82 79 76 77 78 82 85 85 86 82 77 68 64 65 68 69 73 78 80 83 84 86 88 93 98 98 97 95 91 84 95 92 98 87 91
70 69 72 75 73 78 77 79 79 80 84 79 79 79 85 87 86 84 81 80 76 69 70 73 74 71 73 79 85 86 88 87 90 89 89 88 86 85 95 97 98 96 96 98
77 74 72 73 84 80 75 80 81 85 82 81 78 80 85 86 84 83 82 82 81 80 78 80 82 83 76 75 77 86 86 87 92 92 93 91 94 98 97 97 98 98 98 94
76 74 75 82 95 90 73 81 86 84 81 80 78 82 84 84 85 84 80 83 82 81 81 82 84 85 83 83 80 86 91 94 93 97 97 98 98 98 98 98 94 80 65 57
80 71 79 85 84 75 79 78 83 82 80 78 79 81 87 87 86 86 84 82 84 84 84 86 87 88 88 90 92 92 92 94 95 97 97 97 96 92 76 61 53 45 38 36
80 76 82 88 86 84 83 81 79 80 81 79 79 82 88 90 89 89 88 86 85 85 85 84 85 87 88 89 91 91 92 94 96 94 87 68 54 44 37 34 35 38 38 34
81 75 79 88 85 82 80 75 77 78 79 79 80 82 88 91 91 91 92 90 88 88 87 85 85 84 84 84 83 80 77 68 59 52 44 40 37 36 37 39 37 31 28 25
77 78 78 86 84 78 75 71 68 70 74 75 80 82 86 90 91 92 93 93 91 87 83 80 78 75 72 70 65 59 54 51 49 44 39 37 36 38 37 31 28 27 25 23

GFSCGP_prec_cthk_054.txt.gz
RH
95 94 84 66 59 52 50 50 45 39 37 36 36 35 28 26 25 24 23 21 19 17 17 18 17 19 19 21 25 28 31 31 33 34 32 30 31 38 48 49 57 59 58 60
97 91 88 81 73 70 65 62 57 50 44 40 37 36 27 23 24 23 23 22 21 21 20 20 19 20 21 20 21 22 25 30 32 33 34 32 31 31 40 50 60 68 70 68
96 97 95 96 88 79 75 70 64 59 52 46 43 35 27 22 22 21 21 21 21 18 16 16 17 18 19 20 21 22 22 23 25 27 30 32 34 32 33 39 45 54 61 68
89 95 94 96 95 94 94 77 72 66 60 59 47 51 32 26 22 22 19 19 20 21 19 17 17 17 18 18 19 22 25 26 25 24 24 27 31 32 33 35 41 42 45 57
88 89 90 93 94 95 86 81 74 67 64 56 49 50 28 24 23 22 23 23 23 22 21 19 18 18 18 17 17 18 18 23 28 30 29 28 28 30 33 35 38 44 49 53
85 84 85 80 78 76 79 79 77 70 61 60 46 45 28 25 25 24 24 24 24 23 21 20 19 18 17 17 18 18 19 21 23 25 28 31 32 33 32 33 34 36 45 52
83 82 79 78 77 71 65 69 73 57 61 53 50 48 32 28 25 26 25 24 22 23 23 22 21 20 20 20 20 20 20 21 22 23 23 23 23 25 29 34 36 37 47 56
79 82 76 75 69 67 66 64 63 48 57 56 51 51 32 29 26 28 26 25 26 27 28 28 27 27 26 25 24 25 24 24 23 23 24 24 24 24 26 29 36 42 42 43
76 76 76 73 68 64 66 66 56 61 58 62 46 37 26 30 29 28 31 31 31 33 34 35 34 33 33 32 33 32 31 31 31 31 30 28 27 26 25 24 26 30 35 41
70 83 74 71 67 63 61 59 60 59 48 45 35 39 29 29 32 34 37 38 39 42 44 44 44 43 43 45 42 41 41 38 35 36 40 42 42 37 32 29 28 27 28 33
63 67 75 66 70 67 62 62 55 55 53 55 46 31 34 33 40 44 46 49 51 54 55 54 53 51 50 50 47 43 43 42 44 45 47 46 45 47 46 43 37 32 30 28
60 66 69 65 65 57 54 56 54 60 58 64 62 44 37 44 48 50 53 55 59 60 59 57 56 53 49 47 48 46 43 42 42 44 45 51 58 52 50 48 48 45 42 37
60 62 70 67 59 59 62 60 58 57 58 64 60 44 47 51 54 58 59 62 63 60 54 53 52 52 48 44 41 38 39 43 46 52 53 57 62 71 62 56 54 54 52 50
56 58 56 61 56 60 65 61 59 59 64 60 57 54 55 58 61 63 64 66 61 56 55 56 55 51 50 46 42 46 50 54 63 63 61 66 70 79 78 68 65 68 68 64
56 60 61 61 59 61 62 58 61 59 57 59 60 67 65 65 64 65 70 65 63 58 54 57 53 55 54 49 49 49 54 64 72 72 73 87 85 84 83 78 76 78 76 77
56 66 65 65 60 62 63 59 60 60 59 67 72 74 68 69 69 73 73 68 62 58 59 56 53 54 51 52 52 54 61 68 67 71 79 84 87 91 94 90 92 87 80 85
62 68 70 67 63 64 60 54 52 61 68 72 80 70 70 72 75 77 76 71 66 61 58 59 56 56 58 62 64 63 71 79 77 75 78 86 92 94 94 94 92 95 83 80
67 69 70 73 65 68 48 54 66 73 76 77 73 70 68 74 79 79 80 76 71 63 62 64 63 64 69 72 74 75 75 81 88 94 93 99 95 90 90 92 97 86 86 86
67 72 76 71 64 57 54 70 81 83 83 79 75 73 74 79 81 80 79 74 73 68 63 67 67 71 69 72 77 79 82 84 88 93 97 98 99 97 97 99 98 97 95 94
70 67 69 75 67 69 55 75 84 84 84 78 78 77 78 82 80 79 77 76 75 75 73 73 71 73 71 72 72 82 82 88 92 96 94 94 91 90 85 88 93 91 95 98
79 78 71 71 68 64 65 79 85 91 81 79 80 76 82 81 79 79 78 77 76 76 75 77 76 77 77 71 74 79 84 87 92 97 98 98 98 98 97 97 98 98 98 96
75 76 72 70 74 78 72 84 91 85 82 79 78 79 82 83 82 81 79 77 77 77 76 77 78 80 77 78 82 87 89 89 92 95 96 96 96 96 97 97 85 67 57 51
79 69 70 68 71 75 83 84 83 82 82 80 78 80 84 87 87 84 82 81 80 78 78 77 78 79 83 87 86 87 89 92 93 93 93 94 92 73 58 50 42 37 35 35
76 73 75 79 81 88 87 85 81 81 82 80 78 79 83 87 90 89 86 84 83 81 80 80 81 82 84 86 86 84 84 84 83 75 60 48 41 37 36 37 38 36 32 28
80 79 78 76 83 87 86 84 83 80 80 79 78 80 80 86 90 89 90 89 86 82 81 79 78 78 78 78 76 74 68 60 53 46 41 37 36 36 36 35 31 28 26 25
75 75 80 76 79 86 85 86 81 74 72 74 75 77 81 84 89 91 92 92 90 87 84 78 74 71 68 67 62 56 53 51 46 40 37 36 36 37 33 30 28 27 25 24

GFSCGP_prec_cthk_057.txt.gz
RH
88 91 76 70 60 49 45 45 44 40 35 36 37 37 30 27 25 23 22 20 20 20 19 19 19 18 18 20 21 21 23 25 28 31 33 33 32 39 43 44 47 55 58 57
98 91 83 77 63 53 50 50 49 44 40 38 37 36 29 26 24 24 23 22 21 20 19 18 17 17 16 16 17 19 21 22 24 26 30 31 33 34 38 41 40 47 51 56
97 90 89 83 74 68 65 59 55 50 45 43 40 34 27 25 23 22 20 21 21 21 20 18 17 16 17 17 17 18 19 20 20 21 24 26 29 32 34 34 34 36 44 53
97 96 94 96 86 76 77 70 62 56 53 53 45 47 33 28 26 26 25 24 24 23 21 20 18 18 18 17 17 18 19 21 23 24 23 23 23 24 28 33 36 38 40 50
97 97 97 96 96 93 89 77 70 63 60 53 49 49 33 28 26 27 27 26 26 25 23 22 21 20 19 18 18 18 18 19 21 26 28 30 29 28 27 28 31 35 37 40
91 94 93 91 95 94 91 80 76 69 62 59 49 48 31 30 28 28 28 28 27 27 26 24 23 21 20 19 19 19 18 19 19 20 24 27 30 31 32 34 34 34 34 36
94 88 86 86 85 83 81 83 85 69 71 57 53 51 35 31 29 29 30 29 27 27 26 25 24 23 22 21 21 20 21 21 20 20 21 23 24 25 26 27 31 36 40 41
91 95 86 83 81 80 79 75 77 58 58 50 51 49 33 31 29 31 30 31 29 30 30 30 30 29 28 27 26 24 23 24 24 24 24 24 24 23 24 24 25 27 30 37
82 84 79 81 77 72 73 70 60 62 60 57 43 39 31 32 31 33 33 33 34 35 37 37 36 35 34 33 33 33 31 31 31 31 32 32 33 32 30 29 27 26 27 30
70 80 75 76 75 73 66 65 64 63 57 43 33 34 27 34 35 36 36 36 38 41 42 43 43 43 43 43 43 43 42 41 40 40 39 40 40 39 40 42 42 38 32 28
71 71 81 79 77 73 72 70 62 56 51 46 37 27 31 31 35 36 38 41 45 47 48 49 48 48 47 45 44 43 42 41 41 41 42 41 40 41 46 46 46 48 47 44
68 72 81 77 71 68 66 63 57 56 54 57 56 37 34 35 37 38 45 49 53 54 53 51 49 46 42 42 42 40 39 39 35 32 33 34 38 40 44 44 46 52 56 55
62 67 79 72 67 66 67 60 54 52 53 63 55 34 40 44 43 48 53 59 61 59 54 46 46 44 45 45 43 41 37 33 33 35 41 42 46 52 55 57 57 59 62 68
61 63 59 63 58 61 65 60 57 58 63 57 54 43 42 43 50 57 61 67 65 59 53 52 49 45 46 45 41 37 36 35 38 44 46 48 52 56 60 61 66 72 76 74
60 64 62 58 59 62 61 60 62 60 56 56 44 53 52 55 59 62 67 69 65 60 56 52 49 46 47 45 43 42 40 41 44 50 51 57 64 73 76 83 85 89 90 91
60 67 62 60 60 63 65 61 61 58 55 52 55 62 59 62 65 70 76 72 64 61 56 54 50 47 50 49 47 46 48 52 57 61 62 66 69 78 88 91 97 97 96 98
60 64 62 67 64 65 66 58 55 55 55 57 69 65 64 68 70 74 74 73 69 64 58 54 55 54 56 57 60 60 60 60 63 69 76 75 80 82 88 92 98 98 97 96
63 64 67 72 66 69 48 53 57 59 60 66 70 70 67 69 73 75 76 72 70 69 60 56 59 62 63 64 67 67 66 67 71 74 79 84 86 92 94 97 96 98 98 97
63 68 74 71 63 55 56 61 66 69 74 75 76 73 70 73 76 76 75 71 70 70 69 66 67 67 66 64 63 65 69 72 77 80 81 85 87 92 95 98 98 98 97 98
69 68 69 74 68 66 53 59 72 75 86 81 79 75 75 77 77 73 71 70 72 72 72 72 71 72 71 67 64 69 73 76 79 82 85 85 90 91 89 96 98 97 96 98
79 78 73 74 71 57 55 60 73 93 87 82 78 77 77 78 76 74 72 72 72 73 72 72 75 75 76 69 72 76 79 81 84 86 89 92 95 97 97 98 98 97 97 90
76 78 73 72 69 65 55 69 88 89 84 81 80 77 77 80 81 78 77 76 74 73 72 74 76 78 77 78 79 81 82 83 84 85 87 88 91 94 92 80 62 49 44 40
80 71 70 66 60 58 64 80 85 87 85 82 81 78 79 82 85 85 83 79 76 75 75 76 76 76 79 81 81 80 81 83 82 80 79 69 52 41 37 35 36 35 33 30
79 75 74 72 69 71 80 88 90 88 83 83 81 79 80 83 87 88 87 83 81 79 76 76 77 80 80 79 78 76 74 71 63 52 43 38 36 35 36 36 32 29 27 25
80 79 74 72 71 77 83 92 89 86 81 81 80 79 80 82 85 87 89 88 84 83 81 75 74 75 74 74 72 66 57 53 46 40 37 36 36 36 33 30 29 27 25 24
78 77 76 78 75 77 84 90 90 85 81 79 78 78 80 83 85 89 90 91 90 85 86 80 74 70 68 66 61 56 52 46 41 38 37 37 37 35 32 31 29 27 26 26

GFSCGP_prec_cthk_060.txt.gz
RH
92 97 89 69 56 49 48 45 40 34 35 34 34 35 31 29 26 23 21 20 19 20 18 17 16 16 16 19 20 22 24 24 24 29 26 29 31 33 33 36 39 43 49 52
92 93 91 84 69 55 48 42 40 41 37 36 37 33 29 27 26 25 23 21 20 19 19 17 16 16 16 16 16 17 18 20 21 23 27 26 31 32 34 35 37 39 41 48
81 85 87 86 76 65 52 45 46 41 40 39 38 32 29 26 25 24 23 23 22 21 20 19 18 17 16 16 16 15 15 16 17 18 23 28 31 32 31 30 32 37 39 41
91 87 88 82 77 65 59 54 50 46 46 45 38 34 31 28 28 27 27 27 27 24 23 22 21 19 18 17 16 16 17 19 20 22 22 25 28 28 25 27 30 33 36 38
98 97 93 91 84 76 74 65 58 54 52 47 43 41 32 29 29 30 29 29 28 27 26 25 23 21 20 19 18 17 17 17 18 19 22 25 31 32 32 35 31 27 28 33
97 98 97 97 96 87 74 68 64 59 57 56 44 43 31 30 28 30 29 30 29 29 28 27 25 23 22 20 19 18 18 18 17 17 18 20 24 30 34 35 36 35 36 34
98 98 97 96 96 97 89 77 79 74 71 56 47 45 33 31 29 30 32 33 32 31 30 28 27 24 23 22 21 20 19 19 20 19 19 20 20 24 31 34 35 35 35 34
95 96 96 95 86 86 84 82 75 60 50 47 51 43 32 33 31 33 33 34 33 32 31 30 29 28 26 25 24 24 24 23 22 22 23 23 24 24 25 26 26 26 27 27
86 93 86 88 85 80 80 81 70 64 61 55 42 39 36 34 34 35 34 35 36 36 36 36 35 34 34 33 32 31 30 30 29 28 29 30 31 32 34 35 35 36 35 33
75 87 82 83 81 77 75 69 71 70 61 48 34 30 29 33 34 36 36 38 41 42 41 40 39 39 38 37 37 37 38 39 40 40 38 36 36 36 38 40 42 43 43 42
70 68 77 76 77 76 73 72 64 52 44 42 26 25 28 34 36 37 38 40 44 44 43 44 44 43 42 41 41 41 40 40 41 40 39 38 36 34 31 33 35 37 40 44
70 69 75 73 73 72 69 65 58 55 54 48 48 30 31 34 35 35 39 44 48 48 48 49 48 45 42 40 38 37 36 35 34 33 31 28 28 30 32 33 37 41 46 50
62 67 74 73 74 68 68 63 58 51 51 56 43 32 35 36 38 37 45 51 54 54 53 52 48 44 42 42 41 38 36 36 33 32 30 32 35 34 35 36 39 45 50 60
58 59 58 59 61 61 66 60 55 58 58 45 44 37 39 39 38 47 52 57 60 58 55 52 49 46 44 44 42 40 38 37 36 35 36 38 40 42 46 49 54 59 67 67
62 65 64 60 60 59 59 57 55 57 54 59 43 41 38 41 48 54 59 63 65 63 56 53 51 47 47 46 44 43 42 41 41 43 45 47 48 49 53 60 66 72 81 82
62 72 65 63 56 58 61 55 56 55 53 51 47 45 47 54 58 60 68 70 68 63 58 55 53 49 50 50 48 48 49 50 49 51 55 58 56 58 61 64 73 83 90 97
59 64 63 57 57 59 61 54 52 52 52 50 54 54 57 60 64 70 74 72 67 65 65 56 52 53 55 55 52 55 54 55 55 57 60 61 65 66 71 75 77 85 91 98
60 58 60 61 61 65 47 51 50 49 47 50 55 62 65 68 71 74 74 70 67 65 65 62 57 56 58 57 54 55 56 59 62 64 65 66 67 70 73 77 81 86 88 94
62 62 66 66 60 50 50 54 57 60 63 65 70 72 73 72 75 73 70 69 67 67 67 66 65 64 62 59 57 56 60 63 67 68 70 68 70 70 74 79 83 89 92 97
67 67 65 70 69 53 52 59 62 64 74 75 78 78 75 74 74 71 69 67 67 66 66 68 68 68 65 64 59 63 67 68 72 74 74 77 77 79 80 84 87 90 91 95
79 77 72 68 68 51 50 54 64 79 75 80 83 79 73 74 74 73 71 69 68 67 68 68 70 71 70 65 68 71 72 75 76 77 76 77 78 80 83 85 87 88 78 60
73 75 74 69 70 62 49 61 71 74 76 84 83 79 77 76 77 79 76 74 71 69 68 70 71 72 71 73 74 76 76 77 79 76 72 72 72 68 55 41 35 35 34 32
75 66 69 65 58 54 57 66 68 75 84 87 85 80 78 79 81 82 82 77 76 72 69 70 73 73 76 77 76 76 75 73 71 69 61 46 37 34 34 34 32 29 26 24
74 72 70 68 64 62 63 68 77 83 89 87 85 82 80 80 81 84 83 83 78 76 73 70 70 72 73 73 72 70 68 65 53 46 37 34 33 34 33 30 28 28 25 23
76 77 74 72 69 71 70 74 84 88 89 86 83 82 80 80 82 84 86 86 84 80 79 75 73 70 70 70 69 64 55 48 42 36 34 34 34 33 32 30 29 27 25 24
71 74 73 70 69 67 73 80 88 92 90 85 81 81 80 80 82 84 86 89 88 85 82 82 78 74 69 67 59 52 50 44 39 36 36 37 36 34 33 32 29 27 26 26

GFSCGP_prec_cthk_063.txt.gz
RH
67 80 82 75 66 56 52 47 47 41 48 48 46 44 38 35 32 29 27 25 25 23 23 23 21 19 17 16 18 22 24 26 28 30 34 31 26 26 31 35 38 42 44 47
79 81 80 79 71 63 54 52 50 46 44 40 37 41 41 33 28 25 23 23 22 22 21 18 17 16 16 16 16 16 18 21 23 25 27 31 26 23 24 27 30 35 37 43
75 82 92 92 78 66 55 53 47 42 43 39 40 38 34 30 26 24 24 22 22 21 20 19 18 17 17 17 16 16 17 17 17 18 20 23 29 27 28 25 26 29 36 40
85 93 94 92 86 69 59 51 47 46 44 38 37 27 34 30 27 26 26 27 27 25 24 23 22 20 19 17 16 16 16 16 17 19 20 21 24 29 29 30 31 32 34 34
94 93 93 94 88 77 72 54 53 47 47 50 44 36 41 34 30 28 29 31 32 28 27 27 24 23 22 19 18 17 17 16 16 17 18 21 24 27 31 34 33 33 35 35
97 91 94 96 90 84 76 63 56 54 53 58 43 39 42 34 30 31 29 30 29 29 29 29 26 25 25 22 20 19 18 19 17 17 17 17 19 23 30 34 34 34 36 37
98 98 95 97 94 88 80 70 79 80 75 58 43 43 34 29 30 31 33 32 31 31 31 30 28 27 27 26 24 22 21 21 19 19 19 19 20 21 23 28 32 34 35 36
98 98 98 97 95 94 90 82 79 69 57 54 49 45 35 32 31 35 33 33 33 33 34 32 30 29 29 28 27 26 25 25 25 22 22 23 24 24 25 26 30 34 37 38
94 97 97 96 89 93 97 96 72 62 50 49 41 39 40 37 35 35 35 35 36 37 37 36 34 33 34 33 32 30 30 30 30 30 29 28 28 30 32 33 34 35 38 39
77 90 90 87 85 81 82 80 82 75 68 50 41 35 34 36 37 37 37 39 39 41 40 38 36 36 35 35 35 35 36 36 36 36 37 37 36 35 33 33 34 33 32 32
69 71 80 82 83 78 75 73 72 68 57 56 36 33 34 34 34 39 39 41 43 43 41 40 40 38 39 39 37 38 37 37 37 38 39 39 38 37 34 31 28 28 30 32
65 70 74 71 73 73 68 67 62 63 59 51 55 44 34 35 36 37 40 43 46 45 43 43 44 44 44 42 38 37 35 34 32 31 32 31 29 27 25 26 29 31 31 34
63 71 73 69 69 67 69 65 63 60 60 65 47 41 36 39 37 37 38 46 47 48 47 48 48 47 45 41 39 37 36 34 33 34 32 30 29 30 32 33 34 35 37 42
60 60 63 62 66 62 67 63 63 69 72 52 45 41 36 37 39 40 43 51 52 52 52 52 52 50 44 42 42 40 38 38 37 36 34 35 36 36 37 37 39 42 46 50
64 65 59 56 56 59 62 61 61 67 58 65 46 41 40 40 41 41 47 55 56 57 57 56 55 49 47 45 44 42 42 42 40 39 40 42 43 44 45 44 46 48 51 58
59 72 68 67 58 56 61 56 54 54 56 49 44 44 40 39 40 49 56 62 65 64 62 60 54 53 51 48 48 50 52 49 46 46 45 46 47 50 51 54 55 56 61 65
62 66 68 62 58 55 58 49 49 50 49 48 51 42 42 44 52 59 67 67 68 65 63 60 56 54 52 52 54 54 53 52 52 51 53 54 54 54 58 58 61 65 68 71
59 61 62 59 59 66 55 49 48 47 46 46 45 46 49 56 61 67 69 69 67 64 63 64 62 60 56 55 56 56 53 52 55 57 58 57 58 57 59 62 64 66 69 73
57 59 63 61 55 48 44 49 52 53 52 44 47 56 63 65 70 74 71 68 65 65 66 65 64 64 63 62 60 57 56 56 60 61 62 61 62 63 64 66 69 71 73 75
61 62 64 66 67 58 58 54 56 58 64 62 65 69 73 76 80 78 71 68 66 65 64 64 65 67 66 62 61 60 62 64 65 68 67 66 66 67 69 69 69 70 71 72
67 70 70 66 66 54 46 57 60 71 71 71 73 79 79 79 78 76 74 72 70 66 65 65 66 68 68 66 65 67 69 69 71 70 68 68 66 65 65 62 55 40 32 30
69 70 70 66 69 64 47 57 60 71 70 74 77 82 82 78 78 79 78 76 72 69 66 67 69 70 70 71 72 73 72 72 72 72 71 65 58 47 34 30 30 29 27 25
68 62 65 62 61 54 53 60 59 63 68 73 78 85 84 82 80 81 81 79 75 74 71 69 69 68 72 74 75 74 74 73 70 66 55 38 31 30 30 30 28 26 25 24
64 65 65 65 61 60 59 61 62 66 71 77 84 88 86 83 81 80 82 82 78 75 75 72 68 67 69 69 70 69 67 64 56 42 33 31 31 32 30 28 26 26 25 24
70 69 68 66 65 66 67 66 68 71 74 79 83 86 85 84 82 82 83 83 82 79 76 78 72 71 67 67 67 67 63 51 41 34 32 33 34 32 30 29 28 27 26 25
61 65 69 68 67 67 68 70 73 76 80 83 87 85 84 81 82 82 83 85 85 84 80 78 80 76 73 69 68 65 50 43 38 35 35 36 35 33 32 32 31 30 29 27

GFSCGP_prec_cthk_066.txt.gz
RH
87 79 68 61 61 67 65 68 58 50 54 61 57 66 57 51 50 47 43 38 35 31 29 27 24 22 22 22 23 24 26 27 27 33 40 40 34 31 33 31 34 36 42 43
86 71 60 70 76 76 79 76 59 56 56 56 54 52 57 50 45 44 40 37 35 33 30 27 25 23 22 20 20 19 18 19 22 23 25 32 30 29 27 27 28 31 35 39
78 66 66 64 69 74 75 69 61 56 58 54 51 49 48 50 42 39 37 32 30 28 25 24 22 20 19 18 17 17 16 16 16 17 18 19 23 24 26 22 21 21 24 35
79 78 66 75 76 74 79 65 67 62 58 57 49 41 40 41 40 35 31 29 27 25 23 22 22 20 19 17 16 16 16 16 17 18 19 19 20 23 26 25 23 25 25 26
79 70 77 81 83 82 75 67 61 60 57 56 52 48 33 40 41 36 29 28 29 27 27 26 24 23 22 20 18 18 17 17 16 16 16 17 20 22 26 31 36 37 35 34
82 83 86 93 96 94 80 77 65 62 64 71 54 46 43 39 34 36 36 34 32 32 31 30 30 28 26 24 23 21 20 20 18 18 17 17 17 18 20 23 28 31 33 35
89 91 94 96 98 95 88 83 86 85 81 68 44 51 42 37 34 34 34 34 36 34 33 32 29 27 27 25 24 22 22 21 20 19 18 19 18 18 19 22 25 30 35 34
88 92 96 92 95 94 89 81 83 69 71 59 51 52 39 38 37 38 39 38 37 38 35 32 31 29 28 27 25 23 23 23 23 22 22 22 22 22 23 23 25 28 35 41
98 95 92 94 89 94 94 94 75 71 55 64 53 43 39 36 37 37 36 36 37 37 35 34 33 32 32 31 31 30 30 30 29 29 29 29 28 27 27 28 30 31 31 33
87 98 98 97 97 95 96 88 86 80 73 62 51 47 41 38 37 37 38 38 38 40 40 37 36 35 34 33 32 32 33 33 34 34 35 35 35 35 35 33 31 31 31 29
77 81 93 91 95 94 96 96 84 73 64 74 53 44 36 36 37 38 40 42 43 44 41 40 38 37 37 37 36 35 35 35 35 36 36 35 35 36 36 35 32 30 27 27
68 73 80 81 81 82 81 80 82 89 71 68 70 53 39 37 38 40 41 43 46 45 43 41 41 41 40 40 40 38 36 36 35 33 31 30 30 30 28 26 25 25 27 27
60 71 79 72 74 77 76 73 71 71 75 82 76 58 47 44 44 42 42 42 45 45 44 43 42 44 44 45 43 40 37 36 34 34 33 32 31 30 28 29 31 31 32 33
56 62 68 75 71 69 73 69 68 72 78 67 64 48 48 45 42 40 40 42 46 48 48 47 48 48 49 48 43 40 39 38 37 35 34 34 34 35 36 37 37 36 38 40
63 65 59 57 57 57 61 62 64 70 66 69 60 49 45 43 40 40 43 45 51 54 54 52 52 51 52 48 43 43 42 43 41 40 40 40 38 39 42 43 43 43 43 44
61 70 67 66 56 56 57 56 59 60 61 61 59 57 48 45 42 43 45 52 58 57 56 56 57 57 52 51 49 48 47 47 47 47 47 46 45 46 48 49 49 48 49 51
59 66 69 67 60 59 61 52 53 55 53 53 57 44 45 43 43 44 53 63 63 62 61 59 60 59 55 55 52 49 49 49 49 49 51 52 51 51 52 51 52 53 55 56
60 65 69 71 64 73 53 47 49 49 48 48 49 48 46 45 44 52 64 65 64 62 63 64 62 61 60 58 55 52 52 52 52 54 56 56 54 55 55 54 55 57 59 60
61 64 68 71 64 51 53 50 51 55 54 47 48 48 47 48 58 66 68 67 66 63 64 62 59 61 62 63 63 59 57 57 56 60 60 60 59 60 59 58 59 59 58 58
62 59 64 70 65 62 58 59 55 57 63 52 44 46 55 67 75 74 71 69 68 64 61 59 61 62 65 65 63 62 60 60 64 65 66 65 63 61 61 60 58 51 44 37
68 67 69 69 67 54 51 53 60 71 70 64 63 67 71 75 77 83 77 75 71 68 64 62 63 63 64 63 63 64 67 68 70 70 68 67 65 63 56 39 30 27 25 23
68 74 73 67 71 63 49 51 59 66 64 69 72 74 75 78 82 82 80 78 75 72 69 65 65 66 65 64 68 71 72 73 73 72 71 70 61 37 28 28 27 24 23 22
71 64 65 62 63 54 52 55 57 64 67 68 70 74 77 82 84 81 80 80 76 72 73 69 67 67 65 67 69 71 73 74 75 74 70 44 31 28 29 28 26 24 23 23
62 61 65 65 60 58 55 58 60 61 61 63 66 73 78 85 87 82 79 82 81 77 76 73 70 68 66 66 66 67 68 67 65 52 36 30 29 31 30 28 27 26 25 25
61 64 64 63 63 64 63 60 59 66 64 66 70 74 78 84 86 84 81 81 83 82 78 76 74 71 72 67 65 65 65 62 51 37 32 30 33 33 31 30 29 28 27 28
58 61 65 70 64 64 67 68 67 69 71 72 73 75 77 83 86 86 83 82 85 87 85 82 77 76 75 73 71 68 65 56 42 36 34 35 36 35 34 33 32 31 31 31

GFSCGP_prec_cthk_069.txt.gz
RH
95 92 70 58 56 55 61 76 74 66 59 53 53 60 69 63 54 50 47 43 37 34 33 31 29 27 26 25 25 27 34 38 36 32 32 33 32 38 46 42 42 43 44 42
89 83 75 66 62 68 68 68 66 65 62 57 52 55 62 64 58 51 49 46 42 37 33 31 29 27 26 26 26 25 25 26 28 28 29 28 30 29 29 30 32 36 37 39
92 78 71 72 66 71 69 68 67 62 62 61 52 56 56 55 56 54 49 45 43 40 36 34 31 30 29 27 25 23 22 22 21 22 21 20 19 19 20 22 23 24 27 29
96 78 69 68 69 68 70 68 73 64 65 71 54 57 44 48 49 50 50 45 40 39 37 34 32 29 27 24 21 19 18 18 19 19 18 18 19 19 18 21 26 26 25 25
92 80 72 71 75 72 70 74 75 70 72 68 59 59 41 42 45 43 44 43 37 36 34 32 29 25 23 22 21 19 18 17 17 17 17 18 19 21 22 23 24 27 32 34
89 86 76 77 75 75 82 77 77 77 82 88 59 56 44 42 36 39 41 41 37 36 34 31 29 26 24 24 22 20 20 20 19 18 17 17 17 17 17 19 21 25 29 31
93 89 82 79 79 81 88 95 96 96 95 77 55 60 40 41 34 34 40 44 40 38 34 31 30 30 28 28 27 26 24 22 21 20 19 18 17 17 17 17 18 20 24 27
82 87 86 83 85 91 98 88 84 84 85 72 54 59 44 37 38 36 36 35 41 39 36 34 32 30 28 28 28 25 24 23 21 21 21 20 20 20 20 19 20 22 25 30
81 81 81 88 91 93 98 95 75 78 70 72 54 44 38 39 41 41 42 38 40 41 38 37 34 33 32 30 29 28 27 27 27 27 26 26 25 25 25 25 25 27 29 31
87 91 89 89 88 90 97 90 88 92 84 76 60 47 43 41 42 38 42 45 45 41 39 37 37 36 34 32 31 30 29 28 29 29 29 29 30 30 31 32 32 32 31 31
84 83 93 92 90 90 94 96 89 80 78 83 64 51 41 41 42 40 41 42 42 44 42 40 39 38 37 36 34 33 32 32 31 30 31 31 31 31 31 31 33 33 30 27
77 80 95 90 91 89 91 93 87 87 79 74 76 59 42 41 44 44 43 44 45 45 47 45 44 42 41 40 40 38 36 36 34 32 31 30 29 28 28 28 26 24 22 23
62 73 83 79 81 83 86 83 88 87 80 82 80 61 49 46 44 44 44 44 47 49 49 49 49 48 45 44 44 43 41 38 35 34 32 31 30 31 31 29 28 28 29 29
55 62 67 72 67 74 82 78 79 86 92 81 81 65 60 55 50 48 46 46 47 48 49 50 50 48 48 47 46 45 43 39 37 35 34 33 33 34 36 36 36 36 36 35
55 60 57 60 63 64 66 71 75 75 71 74 65 58 55 50 45 43 41 44 44 45 50 52 51 51 52 51 49 46 42 40 40 40 41 41 42 42 40 41 43 44 42 41
59 69 68 65 58 58 60 58 62 66 66 66 65 64 54 54 52 47 43 47 46 52 55 56 55 54 54 54 52 47 43 46 46 46 46 47 48 49 48 47 47 48 47 47
62 67 67 68 62 63 63 53 52 53 56 53 60 55 53 53 52 49 52 48 52 60 58 57 57 58 57 56 54 52 52 50 48 48 48 50 53 52 52 51 50 52 52 53
68 68 69 71 67 71 45 49 49 49 50 52 50 49 50 50 48 49 46 50 61 60 59 59 59 59 62 62 62 57 55 51 51 51 53 57 55 54 54 55 55 56 56 56
67 65 68 70 69 51 52 51 51 54 53 48 47 48 50 50 48 47 49 63 64 63 61 60 61 62 62 63 63 63 62 56 55 57 59 59 58 59 59 59 59 59 58 52
68 65 69 72 72 69 55 54 54 52 61 53 47 46 48 51 56 59 66 67 65 65 65 64 64 63 63 64 64 63 62 61 60 62 64 63 63 63 63 62 57 43 32 25
75 73 77 73 70 58 47 54 56 70 62 56 45 46 48 54 66 74 76 71 73 72 71 67 64 64 63 63 62 63 61 63 67 68 68 67 67 67 62 41 29 26 23 22
72 72 78 75 75 68 50 53 61 63 66 68 66 65 69 71 74 77 79 78 78 75 73 71 66 66 65 64 63 64 67 71 72 72 72 71 69 56 36 31 26 25 24 22
75 67 66 66 62 55 54 53 56 62 65 67 69 71 73 75 78 79 82 82 81 78 74 73 70 68 66 64 65 68 69 72 73 74 74 69 49 35 30 27 26 26 25 23
58 58 64 65 60 59 57 58 60 63 64 65 65 68 73 74 77 80 83 82 81 81 78 76 73 70 69 66 65 66 67 68 68 67 55 39 34 31 29 29 29 28 27 27
57 60 61 59 61 65 64 61 61 64 66 66 63 62 65 72 78 83 85 84 81 84 85 81 77 74 73 73 71 67 65 65 63 52 40 34 33 32 31 32 32 31 31 31
59 63 65 66 63 61 64 64 65 65 67 70 70 68 70 72 75 78 84 87 86 86 88 88 84 79 77 75 74 73 72 68 60 46 38 35 35 35 35 35 35 34 33 34

GFSCGP_prec_cthk_072.txt.gz
RH
97 92 71 58 57 53 58 63 66 68 62 60 61 61 63 59 49 47 50 46 42 41 36 33 32 30 29 28 28 31 33 34 35 35 37 39 41 42 44 44 47 48 48 51
94 87 79 62 58 54 54 62 64 62 64 67 62 58 56 59 59 53 49 47 43 42 38 34 31 31 30 29 28 27 28 29 33 35 35 33 34 34 37 39 41 42 41 44
86 79 82 70 65 62 60 59 60 62 61 59 63 60 55 49 55 57 52 51 47 44 42 39 34 32 31 30 29 28 28 27 26 26 27 28 26 25 23 22 23 25 28 32
92 87 84 77 75 72 73 64 62 59 63 67 59 66 47 45 46 53 53 51 50 48 42 41 39 35 34 32 30 27 26 25 25 25 25 25 23 21 20 19 19 19 21 23
88 85 82 85 74 68 67 68 64 65 66 62 59 65 46 40 43 41 46 50 49 50 47 42 40 37 35 32 29 26 24 22 21 20 19 19 19 19 19 19 20 21 23 25
92 91 86 80 79 74 76 70 71 73 77 79 62 67 48 40 33 36 41 47 47 47 47 44 42 40 36 32 30 27 28 28 25 23 20 18 18 18 18 19 19 19 20 22
95 97 87 78 72 76 78 77 90 91 90 79 65 71 39 37 32 34 39 42 46 47 47 46 42 39 34 30 30 29 25 23 23 21 21 20 20 19 19 18 18 18 18 20
92 92 80 73 71 69 81 80 82 86 84 73 66 65 43 37 32 35 40 42 47 47 48 46 40 36 33 29 28 26 25 25 26 25 24 22 21 21 20 19 19 19 19 21
74 80 83 81 74 75 83 83 84 78 73 77 63 52 41 39 35 36 43 42 44 47 49 46 41 37 31 29 28 27 27 28 28 27 26 25 25 25 25 24 24 24 24 24
69 79 82 85 86 84 85 93 97 88 81 75 63 59 47 40 38 38 42 42 44 45 43 45 41 36 34 34 33 32 31 30 29 29 29 28 28 28 29 29 29 29 30 31
75 77 84 82 81 78 88 96 93 81 74 79 69 58 46 39 36 39 45 51 53 53 45 43 42 41 40 38 37 36 35 34 32 31 31 31 30 29 29 29 30 31 31 32
85 89 92 90 85 84 85 91 85 86 81 76 79 61 48 44 45 44 45 52 51 53 52 48 47 44 41 40 40 39 36 35 34 34 33 32 31 30 28 27 26 26 26 25
79 82 92 95 89 88 88 85 86 82 80 79 78 59 54 49 47 49 50 53 54 53 49 49 48 47 46 43 42 41 41 40 39 39 37 35 32 30 30 30 29 29 28 27
65 70 69 73 66 73 82 83 90 94 93 79 75 62 60 60 56 54 53 51 52 53 55 54 53 51 50 49 48 47 47 46 44 41 38 35 33 32 33 34 36 36 35 34
60 62 60 62 66 68 67 76 80 84 81 84 72 70 65 65 66 59 52 55 52 52 50 50 52 53 54 53 52 51 49 47 43 39 38 39 39 40 43 43 42 42 42 41
60 64 63 64 58 58 63 62 67 73 71 70 69 68 65 60 58 54 49 48 48 46 49 52 54 54 55 54 53 53 50 47 43 44 43 44 46 48 49 49 47 47 45 43
66 69 68 66 62 60 61 54 53 55 58 58 65 55 57 57 54 58 55 48 47 47 50 58 58 57 57 57 55 54 52 50 48 48 47 48 49 52 52 51 52 50 48 51
72 72 72 74 67 72 46 48 47 47 47 48 47 49 51 50 51 54 53 53 52 58 64 61 59 59 59 59 60 60 58 56 54 52 50 50 55 56 53 53 55 54 55 54
70 76 78 77 73 55 44 47 51 53 49 47 45 47 49 51 53 51 47 47 47 59 64 63 62 62 61 60 61 64 65 63 58 55 54 56 60 58 57 58 57 58 58 55
77 74 77 81 75 70 50 49 51 54 59 49 46 45 47 49 55 50 46 46 57 68 68 67 64 65 65 64 66 66 65 64 63 63 60 62 64 63 62 62 62 57 41 28
86 82 79 76 77 59 49 55 54 65 60 58 54 50 47 50 49 52 56 71 74 74 72 72 71 68 67 66 65 64 62 61 60 61 66 69 67 66 66 59 41 32 26 24
82 85 82 79 79 69 51 55 59 60 64 65 58 50 49 53 54 60 76 81 77 75 76 76 73 68 67 65 64 63 62 63 68 71 73 72 71 70 56 41 35 29 26 22
75 71 73 72 66 55 56 54 52 56 66 70 71 71 67 69 73 76 80 82 81 85 81 76 74 71 68 66 66 65 66 68 71 74 75 74 73 56 43 36 31 27 24 24
64 68 73 74 65 62 61 60 61 63 65 70 73 72 74 75 74 76 80 81 85 84 85 80 78 75 72 70 66 64 66 68 69 70 71 67 50 38 34 33 32 27 27 27
62 60 60 59 61 66 67 65 65 65 65 66 66 66 66 70 75 80 83 83 84 86 86 85 83 80 77 74 71 70 70 68 67 67 61 47 38 35 32 31 30 30 31 31
62 59 61 61 61 62 63 66 68 68 67 67 69 68 67 67 67 72 78 83 82 86 89 89 89 87 83 78 76 75 75 74 71 64 53 42 37 36 34 33 33 34 34 35

GFSCGP_prec_cthk_075.txt.gz
RH
99 90 69 54 50 58 65 68 71 71 71 75 77 76 75 74 75 66 65 62 60 58 54 46 41 40 36 33 34 34 36 40 45 45 42 42 41 44 42 41 41 43 46 48
95 90 77 65 53 55 60 61 65 68 71 74 75 75 74 72 66 62 60 56 52 55 50 46 39 37 35 32 31 31 31 31 32 33 36 38 38 39 38 40 45 45 43 46
96 86 80 72 62 56 59 62 66 66 66 72 73 73 65 56 58 57 53 46 44 46 44 43 44 38 35 33 32 31 30 30 29 29 28 29 30 31 32 32 32 32 34 36
94 90 82 71 63 59 63 58 60 60 67 73 66 71 55 48 52 50 47 46 47 47 45 42 42 42 40 36 34 33 31 29 28 27 27 27 27 26 27 27 26 26 26 25
95 84 87 82 67 62 65 64 61 61 61 64 59 64 48 47 45 39 41 45 49 52 48 47 45 44 42 41 38 35 33 30 29 27 26 24 24 25 25 25 23 22 22 22
95 89 89 83 74 69 68 67 68 69 68 72 60 61 47 41 38 37 35 38 46 51 51 50 49 48 46 42 39 37 35 31 28 25 23 24 23 23 23 22 20 21 21 21
97 94 87 83 82 76 76 76 86 84 82 75 58 59 39 33 33 35 34 34 41 46 50 51 49 51 50 46 42 37 33 30 28 26 26 27 26 26 25 22 19 19 20 19
94 91 87 84 78 77 77 74 82 76 78 72 64 56 39 33 36 36 35 34 35 41 45 50 50 50 50 48 44 41 38 34 32 31 30 27 24 23 22 22 22 21 20 20
86 88 88 82 79 72 81 86 73 72 69 73 58 43 36 36 36 39 37 35 37 39 47 48 49 49 49 48 42 39 36 33 32 31 28 25 25 26 25 25 24 24 24 24
77 87 83 82 80 78 74 78 85 83 81 77 60 57 44 41 42 39 40 37 39 46 49 51 52 52 49 46 42 38 34 31 30 29 29 30 30 30 29 29 28 29 29 29
72 71 78 78 84 74 78 79 82 81 74 74 66 53 46 46 44 42 41 40 42 49 55 52 49 48 46 45 43 40 36 33 32 31 31 31 31 31 31 30 30 29 29 30
72 74 75 76 78 80 81 77 80 82 78 77 72 57 47 48 47 46 42 46 48 55 53 53 49 43 42 45 42 39 39 39 38 37 36 36 35 33 31 30 29 28 27 26
81 89 95 94 88 81 77 74 79 85 84 77 77 60 50 50 51 48 50 48 50 55 61 58 55 53 52 47 46 46 44 43 43 42 41 37 36 36 35 32 30 30 30 28
88 88 82 85 78 85 93 89 86 88 88 79 70 60 55 57 58 57 56 54 54 55 56 56 56 58 56 54 53 52 51 48 45 44 43 43 42 39 36 33 33 34 35 36
72 76 77 74 73 76 75 79 88 87 83 82 68 70 66 64 64 64 62 59 57 53 54 56 57 58 60 58 57 56 54 53 51 50 47 45 42 40 38 41 43 43 42 42
68 70 69 69 64 67 70 70 70 80 83 84 79 70 66 67 65 63 66 66 58 57 55 53 53 57 61 62 60 58 56 55 56 52 49 45 42 43 44 47 49 49 48 46
70 73 72 69 64 64 65 52 54 58 59 63 72 58 58 59 60 65 61 55 52 52 52 52 55 61 61 57 58 58 60 60 54 51 47 47 45 46 48 51 53 52 50 49
73 72 74 77 72 76 49 45 48 48 46 50 49 48 49 50 54 58 56 58 56 52 53 51 56 60 59 59 59 59 59 60 58 55 51 50 49 50 53 55 54 54 54 53
74 76 81 82 80 60 46 45 49 51 46 44 45 44 42 43 48 48 49 54 58 58 57 60 73 64 61 62 62 62 62 64 66 63 57 55 53 53 56 59 58 58 58 56
78 77 76 83 84 75 51 53 50 51 55 51 49 47 46 46 51 49 51 52 54 50 52 60 66 67 64 62 64 65 66 68 67 66 66 61 58 59 61 61 61 61 60 48
78 83 85 85 81 69 51 50 56 63 54 59 58 54 46 47 46 48 51 52 51 51 62 69 70 68 66 66 68 69 69 68 65 65 66 65 64 65 64 65 66 55 40 32
75 82 83 84 83 74 52 55 59 58 61 64 61 54 51 48 49 49 50 55 64 73 73 73 75 75 74 71 69 68 68 66 64 65 66 67 68 66 68 66 46 37 33 29
69 66 74 72 65 55 55 54 55 54 57 66 67 64 54 52 53 57 60 73 83 80 77 84 78 79 77 73 70 69 68 68 68 71 72 72 70 71 70 47 40 36 32 28
63 62 66 68 61 60 58 58 60 59 62 66 72 76 79 78 71 76 80 82 84 84 85 86 88 81 80 77 74 70 67 67 70 72 72 71 71 71 50 43 36 30 28 28
63 64 61 62 65 67 66 65 63 62 64 65 68 72 74 78 82 81 81 84 84 85 88 88 89 85 84 82 78 75 72 70 68 68 68 67 64 47 38 35 32 30 30 30
63 59 63 58 51 51 57 63 64 66 66 67 68 71 72 71 70 73 76 82 86 87 86 89 89 91 88 87 84 79 77 76 75 73 70 63 52 41 37 35 33 31 30 29

GFSCGP_prec_cthk_078.txt.gz
RH
97 86 66 56 61 62 70 72 76 71 72 77 81 82 85 87 89 90 81 76 69 67 64 57 51 47 44 44 47 48 49 48 48 48 46 45 42 41 42 43 44 45 44 41
97 85 68 53 56 58 64 70 74 76 77 78 78 80 79 77 74 83 81 75 68 65 64 60 53 48 45 42 40 40 41 39 39 38 38 40 41 41 40 42 43 46 46 48
99 85 75 64 56 56 60 63 71 75 76 78 75 74 71 65 70 73 74 68 64 60 58 60 55 51 44 40 38 37 36 34 33 32 34 36 35 34 33 33 35 36 37 39
96 91 82 79 69 54 57 57 59 67 77 82 71 75 63 62 65 65 61 61 58 57 56 56 56 54 47 40 37 36 34 33 33 32 31 30 29 28 28 28 30 31 30 29
98 90 88 86 74 59 53 53 56 60 69 68 64 71 52 50 51 49 55 56 56 53 49 47 48 48 46 46 45 41 38 37 34 32 30 29 28 27 26 26 26 26 26 26
95 94 91 83 75 65 62 56 59 65 67 74 62 69 55 45 40 39 43 49 51 51 51 50 51 50 46 44 44 44 42 40 37 35 32 30 27 25 24 23 23 23 23 23
97 94 89 89 76 69 67 66 75 74 75 71 55 62 44 37 35 36 38 38 40 45 49 48 50 54 52 50 47 46 46 42 40 37 34 31 29 27 25 24 25 24 24 24
93 94 89 87 80 74 72 71 75 71 73 67 55 60 39 32 33 33 34 34 35 35 38 42 49 55 57 55 53 51 48 46 42 38 36 34 32 31 29 28 28 27 26 23
93 93 90 87 84 83 86 87 77 78 70 70 54 43 33 30 32 33 32 32 30 32 35 40 46 53 55 56 55 52 49 47 43 42 40 37 34 33 32 31 29 24 24 24
80 92 88 87 86 85 83 79 84 85 85 77 57 50 41 31 35 37 38 36 36 34 36 40 43 48 53 56 53 50 48 49 47 43 40 38 35 34 33 31 28 29 29 28
81 79 89 90 88 88 88 84 81 76 77 72 63 45 35 39 40 39 39 36 37 38 41 45 48 51 54 55 52 49 48 48 48 44 40 37 35 33 30 29 29 29 29 30
80 81 85 82 84 75 77 78 80 80 75 74 70 46 41 42 47 46 43 42 41 44 47 51 52 55 54 51 48 49 48 48 48 45 42 36 33 31 31 31 31 32 32 31
86 82 84 81 76 75 79 79 76 76 74 72 74 54 44 47 50 53 52 50 46 50 52 53 53 55 55 53 50 49 49 48 48 46 42 39 37 36 36 36 36 35 33 32
90 89 78 77 74 80 85 80 81 85 81 70 62 59 55 55 56 62 60 57 55 51 54 56 56 60 58 59 58 54 54 52 50 47 45 44 43 42 41 40 38 35 36 37
89 93 88 85 81 86 85 85 88 86 78 79 63 63 61 65 65 66 66 63 61 61 56 55 56 59 65 66 65 61 60 58 55 53 52 51 48 45 43 40 39 43 45 45
77 88 85 84 76 77 78 78 79 80 79 79 78 66 71 67 69 70 66 68 69 67 65 56 55 58 59 61 64 64 64 63 62 63 62 59 54 51 46 44 47 49 50 49
77 79 79 76 68 65 67 54 58 59 62 63 72 58 65 65 64 65 68 68 70 67 62 58 56 55 58 63 64 63 65 66 66 65 62 57 54 52 48 49 51 52 52 51
79 78 80 82 75 78 49 44 47 50 48 52 51 49 49 52 52 55 60 64 67 63 64 61 60 60 62 68 69 68 65 62 63 62 62 60 53 51 50 51 52 55 55 55
83 84 87 88 83 65 51 48 51 51 46 44 45 42 45 45 46 45 49 56 60 62 64 63 62 63 69 69 66 65 63 62 62 65 67 62 56 54 54 56 57 59 61 60
85 86 87 91 87 81 52 57 56 54 55 52 55 52 48 47 49 44 44 48 54 57 59 63 65 68 73 77 67 64 65 65 65 67 67 66 67 62 60 59 62 65 65 62
86 90 90 91 89 71 59 57 60 64 54 58 59 56 54 51 47 46 46 49 52 55 59 56 56 62 68 68 71 70 67 68 69 68 67 69 70 69 66 64 66 67 64 52
77 86 83 86 89 82 63 63 63 57 60 60 61 55 54 52 48 47 48 51 54 55 55 62 69 72 72 72 72 72 72 72 71 69 69 68 68 70 69 69 69 63 51 43
73 68 75 76 72 68 61 58 59 59 56 61 64 62 57 55 53 51 53 54 56 62 71 75 78 80 77 79 77 74 71 71 71 70 70 72 74 74 73 73 65 50 41 36
74 66 67 69 66 68 64 61 61 58 60 63 65 64 72 69 64 61 62 64 71 79 82 81 83 83 82 81 81 77 75 72 71 72 74 75 76 75 74 72 51 43 40 36
86 72 65 63 62 70 72 70 64 61 62 64 64 65 67 77 80 80 77 80 83 85 85 85 85 86 87 85 85 83 78 77 73 71 71 72 72 71 71 52 40 36 33 29
86 81 69 63 62 59 63 67 69 67 67 67 68 70 71 71 72 74 79 80 81 85 89 88 88 88 90 90 89 88 86 81 79 78 76 75 71 68 58 42 39 35 33 32

GFSCGP_prec_cthk_081.txt.gz
RH
94 90 80 75 67 63 65 64 63 62 62 63 63 64 67 71 71 77 78 74 70 67 66 64 63 64 65 68 69 69 68 70 68 65 60 57 53 51 48 46 47 47 45 47
97 89 78 67 66 63 64 66 70 68 66 68 66 65 64 71 70 77 86 78 75 73 67 64 62 58 59 59 59 57 58 59 59 57 54 51 49 46 44 44 43 42 43 46
95 92 79 68 72 66 69 67 70 70 68 70 69 68 66 68 69 71 77 79 75 72 68 63 63 60 56 54 52 49 48 50 49 46 43 40 37 34 34 34 35 35 35 36
95 91 83 72 68 59 62 61 65 66 69 77 68 73 62 62 65 61 66 78 73 71 71 67 63 63 60 55 50 46 41 41 40 38 37 35 34 33 31 30 31 31 31 31
98 91 85 79 67 49 56 58 59 60 65 68 71 76 56 56 57 58 63 72 75 73 71 69 67 63 60 58 55 50 46 40 37 35 34 32 31 30 29 28 28 28 27 28
96 94 87 83 81 67 55 57 62 65 61 68 61 64 53 48 47 50 58 63 67 75 67 65 64 62 59 56 54 51 49 48 46 43 39 35 33 31 30 28 26 26 25 24
98 93 89 87 86 78 66 60 69 72 72 66 54 60 45 41 41 44 48 53 58 62 60 59 59 54 54 53 53 53 52 51 49 46 43 40 38 37 34 31 28 27 26 25
96 95 92 89 81 77 71 65 64 66 66 58 49 53 37 33 37 39 42 44 45 48 52 56 54 53 52 50 52 52 51 49 49 47 46 43 38 37 36 34 32 30 28 27
86 90 90 88 89 81 73 76 65 69 66 63 49 48 33 29 30 32 33 33 36 38 39 42 48 50 51 50 52 55 57 55 52 49 46 45 42 40 39 37 36 34 33 31
84 92 88 89 88 88 82 74 78 81 82 74 57 52 39 32 33 35 34 33 32 31 31 33 38 43 48 48 50 55 58 56 54 50 48 47 44 42 41 41 39 38 35 33
80 82 91 91 91 89 90 88 86 79 78 74 66 48 38 35 34 35 37 37 36 32 32 34 37 39 44 50 53 54 53 53 52 50 47 46 47 46 42 39 38 35 33 31
83 85 89 88 87 85 84 83 83 83 77 77 69 52 39 37 38 44 46 44 42 38 37 40 42 45 47 49 51 52 51 53 52 51 49 47 46 47 45 39 35 33 30 29
84 93 93 92 89 86 87 86 82 82 79 78 75 56 40 39 45 50 49 50 49 44 43 43 48 52 53 53 53 51 49 48 49 49 47 48 48 48 47 42 37 33 32 31
88 89 80 77 67 69 77 76 72 74 78 69 58 54 44 40 45 54 55 58 56 53 51 50 54 54 54 53 52 54 55 55 56 55 53 52 50 48 47 44 41 36 36 36
96 99 94 86 76 77 73 74 78 80 73 73 56 52 48 50 52 55 55 60 62 60 61 61 56 55 56 55 58 60 59 60 59 58 58 57 57 53 49 44 42 40 39 41
89 95 93 93 86 83 82 83 84 81 78 76 72 60 59 58 58 59 61 62 62 63 61 63 61 58 51 55 59 63 67 67 67 66 62 61 62 60 56 52 49 47 47 49
89 91 95 94 88 86 84 73 70 69 69 67 71 55 54 55 58 60 61 60 62 61 64 65 64 60 56 55 58 61 67 69 69 68 68 66 65 64 61 59 59 57 56 57
96 92 91 91 82 86 60 51 54 54 48 52 53 46 48 48 48 51 54 57 60 62 64 68 65 63 62 59 58 62 65 70 68 66 67 67 69 67 62 58 59 62 59 56
88 94 96 93 85 69 55 50 52 54 47 44 44 41 42 45 47 44 48 49 54 59 61 65 64 66 66 67 67 69 72 72 73 73 70 68 66 66 63 59 57 56 57 58
89 90 99 94 90 81 57 59 57 58 59 55 55 54 53 52 50 44 45 43 45 53 58 60 62 63 69 70 74 76 77 73 70 69 70 72 70 72 72 65 63 64 64 64
96 97 94 94 91 77 63 65 63 69 57 61 60 59 55 55 52 48 46 44 42 45 50 56 58 63 67 68 67 74 76 77 72 72 73 72 72 72 74 75 69 67 67 67
88 93 91 94 93 84 63 68 71 63 63 64 62 60 55 52 53 50 48 48 49 49 54 57 61 61 63 61 67 71 72 73 76 75 75 74 75 73 74 75 73 72 73 65
94 85 84 77 69 63 64 66 63 63 62 63 66 65 59 54 55 54 53 53 54 55 57 59 61 69 72 75 76 78 76 77 78 77 77 76 75 74 73 74 73 74 66 54
97 90 82 73 64 66 65 66 66 65 64 65 65 68 66 71 63 61 60 60 61 61 63 65 76 81 82 83 83 84 83 81 78 76 75 77 77 78 79 77 78 73 55 46
91 92 86 72 64 64 63 66 68 65 65 65 67 67 69 71 76 81 78 74 72 72 79 86 85 85 90 86 85 85 88 86 82 80 77 75 76 79 78 78 76 56 47 43
72 77 84 83 73 67 60 60 64 69 71 72 72 73 74 73 72 74 82 87 88 88 87 89 89 88 87 90 91 91 91 90 88 85 83 82 79 76 74 73 63 45 40 38

GFSCGP_prec_cthk_084.txt.gz
RH
97 91 78 71 74 72 74 76 63 56 53 56 51 50 48 50 49 49 56 59 63 68 72 66 65 67 65 66 72 75 76 78 72 65 63 60 58 58 57 55 52 50 47 46
97 88 81 74 69 71 71 66 65 58 51 57 52 48 47 48 48 45 51 58 62 68 70 69 66 65 68 70 73 78 79 80 76 73 68 64 63 62 59 56 52 50 48 47
98 93 78 75 66 64 65 59 58 52 58 61 54 44 43 43 44 47 53 58 66 73 71 69 68 65 64 67 69 69 69 75 74 71 69 63 59 54 51 48 44 42 40 38
89 86 80 75 66 63 63 56 57 60 60 62 57 50 43 41 44 50 56 61 65 75 75 70 70 66 65 62 62 60 59 59 62 65 66 61 55 53 48 43 40 37 33 32
85 83 78 73 71 63 60 59 59 62 64 62 59 62 41 44 45 49 53 61 66 76 74 71 69 67 67 64 62 61 59 58 57 57 55 51 48 45 39 36 33 31 30 29
88 87 82 71 72 63 59 60 58 58 60 62 51 56 43 42 42 45 52 57 61 74 79 77 74 70 67 64 64 62 60 58 54 51 46 43 40 38 36 34 32 30 29 28
93 89 84 81 76 70 66 63 67 70 71 54 50 50 36 36 38 39 46 54 60 76 82 80 73 71 70 67 66 67 67 64 60 55 49 45 43 39 37 35 32 30 29 29
96 93 88 79 82 84 72 59 55 56 52 45 48 43 28 24 32 36 39 46 50 57 68 70 78 74 72 69 66 62 60 58 55 53 53 54 53 49 48 45 39 37 36 36
90 92 89 87 84 83 85 82 62 61 55 52 40 39 26 22 28 35 38 40 44 46 48 57 66 70 65 63 64 60 61 62 61 59 57 54 52 49 46 43 41 38 37 37
83 94 93 94 90 88 80 71 77 76 71 60 46 43 32 27 27 29 31 33 33 37 39 41 46 54 62 62 59 58 59 58 58 58 57 54 51 48 46 44 44 43 41 39
83 85 96 97 91 94 90 80 71 65 65 63 51 42 35 35 33 33 34 33 34 35 36 34 36 39 44 52 57 62 61 57 56 55 56 55 53 51 50 48 47 46 45 42
82 85 91 89 88 88 85 78 76 77 75 69 67 54 46 42 41 39 39 40 42 38 36 35 35 35 36 39 45 46 51 58 57 54 52 50 50 50 49 47 46 45 46 44
86 94 95 94 90 89 87 79 76 73 75 79 67 55 45 43 42 40 41 43 44 45 43 41 39 38 40 41 43 46 48 48 47 48 49 49 49 49 49 48 47 46 46 45
90 92 81 76 75 74 83 78 78 84 85 72 64 57 49 47 45 44 40 42 44 45 47 47 45 46 46 49 51 51 50 48 48 48 48 48 49 51 50 50 49 49 48 47
95 98 91 85 79 81 81 74 71 77 75 73 56 53 49 48 44 40 41 42 45 47 50 50 49 48 47 50 51 50 50 52 52 53 54 54 55 56 54 53 52 51 49 47
92 99 96 98 94 86 87 80 73 68 64 63 66 56 65 54 50 48 46 47 47 49 52 55 55 55 54 53 51 53 56 56 57 58 58 59 58 59 60 59 56 55 52 50
93 92 93 93 94 97 92 76 73 69 66 69 68 59 58 52 49 47 46 46 50 52 55 58 61 61 60 57 56 52 53 55 57 61 64 65 64 65 66 65 62 59 60 59
94 92 92 87 84 89 63 62 66 62 58 57 55 47 46 49 48 47 49 53 56 55 53 56 61 65 65 63 63 60 58 55 58 61 63 67 72 66 67 71 68 64 64 66
96 96 98 92 84 70 58 56 58 57 49 46 44 42 41 42 44 42 44 43 49 55 55 57 62 68 69 70 67 67 66 67 67 68 67 68 72 72 74 69 68 65 63 65
87 90 90 96 87 77 57 60 59 57 52 52 54 54 54 52 48 46 44 41 42 46 50 55 60 65 67 67 67 69 71 74 75 75 74 73 73 77 77 76 75 73 69 67
98 98 95 91 86 73 62 63 64 62 55 57 58 61 58 54 50 48 47 42 41 41 43 49 57 61 64 63 65 72 76 77 76 77 76 77 77 80 79 76 77 79 76 74
93 96 93 90 89 78 64 66 63 59 64 63 62 63 59 54 52 48 49 46 44 43 43 46 53 58 61 64 69 69 66 63 70 75 79 82 83 81 81 79 80 84 82 78
89 85 84 80 70 65 63 63 63 63 65 63 65 66 62 58 53 52 52 51 50 48 48 50 55 59 63 65 62 62 69 75 77 79 81 82 82 81 79 78 79 83 81 80
87 96 92 83 70 68 67 66 67 67 68 64 64 64 64 64 65 57 58 58 56 55 56 58 61 63 64 71 76 77 82 87 86 84 82 80 79 81 82 82 82 81 81 80
79 90 96 86 78 73 69 65 68 69 68 65 66 66 66 70 72 76 75 69 67 65 65 65 66 67 77 83 84 87 84 85 87 86 84 83 80 79 81 84 82 82 81 65
55 66 83 89 89 78 71 65 65 65 69 70 72 71 72 73 74 73 74 81 86 85 82 85 90 91 94 90 95 91 91 91 93 92 88 86 85 84 83 79 78 79 66 51

GFSCGP_prec_cthk_087.txt.gz
RH
97 93 78 71 66 68 66 64 56 57 71 71 68 67 61 56 49 47 43 44 45 48 54 56 64 63 65 67 66 69 69 73 77 76 68 67 71 69 66 63 62 61 60 58
95 89 82 73 69 69 71 65 63 60 62 60 59 57 51 49 45 42 41 42 42 49 53 53 62 66 68 71 68 68 70 77 79 78 77 74 72 68 64 65 64 63 62 58
92 78 77 75 72 66 68 68 75 67 59 55 53 51 46 41 40 39 39 39 40 43 51 55 60 66 70 70 73 73 69 71 69 70 77 78 76 75 72 68 64 62 58 55
82 75 74 70 70 67 68 66 68 66 62 59 54 40 33 33 35 38 38 39 40 41 48 56 58 64 66 68 75 77 76 74 74 74 77 77 77 76 75 67 58 52 50 48
83 81 72 71 66 60 70 68 66 65 62 64 60 60 39 41 37 34 36 40 41 43 52 60 56 62 67 67 70 70 76 72 71 72 73 74 77 74 70 67 57 50 45 42
85 81 75 74 71 68 74 65 62 60 64 83 54 56 43 39 38 36 36 36 39 41 52 64 62 64 69 68 68 66 65 65 65 65 63 62 63 61 57 55 51 47 42 39
86 85 79 84 82 73 70 63 73 76 77 59 47 44 41 37 37 35 34 33 38 45 53 63 69 67 71 71 70 67 68 67 66 65 64 62 59 56 53 51 48 44 41 37
88 92 82 78 76 71 62 64 66 66 58 50 52 43 35 28 28 33 34 34 35 43 52 61 73 74 70 70 70 69 70 68 69 66 65 64 59 57 53 49 46 45 43 41
90 92 85 85 82 81 73 74 65 71 62 61 49 38 28 21 25 28 30 32 37 40 50 59 71 76 75 77 75 72 72 72 69 69 70 69 66 63 60 58 57 55 50 48
92 98 91 90 87 88 93 82 84 76 70 59 39 41 33 27 25 29 28 30 33 35 42 49 53 73 84 82 79 74 74 73 72 67 65 62 60 60 58 57 57 53 50 48
77 84 93 96 91 79 88 87 83 80 62 62 54 50 36 33 32 28 27 30 31 34 36 40 45 50 56 70 76 77 78 73 69 68 64 64 63 62 60 57 55 51 49 48
79 86 98 91 89 87 84 81 80 81 76 67 64 60 45 40 37 35 36 36 33 36 35 35 37 40 41 46 54 62 60 64 67 67 64 61 59 56 54 53 53 52 51 50
79 91 93 97 95 91 91 87 86 80 76 93 75 59 52 49 47 44 43 40 38 38 39 40 38 37 38 38 40 42 47 53 55 57 58 58 61 59 56 54 50 49 49 48
91 85 80 82 84 75 82 79 82 86 95 79 70 62 58 54 52 49 46 45 41 42 41 39 42 41 39 41 44 43 44 45 46 48 47 47 47 46 48 50 48 47 47 47
98 98 92 84 82 81 78 77 77 81 80 83 72 66 60 52 47 49 50 45 44 40 40 43 44 44 44 45 45 45 47 49 49 48 48 48 48 48 48 49 49 50 52 50
98 99 95 96 97 85 83 77 78 75 75 72 70 58 62 54 52 47 48 49 46 40 41 44 48 48 49 49 49 48 48 46 47 50 51 52 53 53 54 54 56 56 55 54
98 98 92 95 96 98 96 74 71 70 71 68 64 58 59 55 51 47 43 42 42 40 43 46 50 52 53 54 56 55 52 49 51 52 54 55 56 57 58 60 60 61 60 60
83 98 97 95 96 94 67 62 66 65 64 62 59 55 54 50 48 46 45 43 40 43 48 48 51 55 58 59 61 59 58 56 56 56 57 57 58 59 61 64 67 67 67 66
76 94 98 93 83 67 64 59 58 60 57 55 50 47 45 44 44 41 44 43 42 44 49 55 54 57 62 62 66 65 63 61 63 62 67 70 67 65 65 65 68 72 73 73
90 98 99 97 95 74 62 58 56 57 55 53 51 50 51 52 52 50 50 48 45 45 46 53 56 58 63 65 68 68 65 66 65 67 68 71 71 72 71 73 76 77 82 77
88 92 91 84 83 73 63 62 63 62 61 62 58 57 57 55 51 49 47 45 45 42 45 46 51 57 63 67 66 63 63 63 68 71 73 74 76 75 76 79 82 82 82 81
91 90 94 94 93 81 64 67 66 65 63 60 59 61 61 57 52 48 48 47 47 44 42 42 47 54 59 61 62 62 63 66 68 69 67 65 70 78 79 83 84 82 81 82
81 83 92 83 79 75 72 66 66 65 65 65 66 70 67 63 60 53 51 50 51 48 47 47 48 51 55 57 59 62 66 66 63 66 69 73 76 81 82 84 84 82 82 85
68 78 83 77 73 75 75 70 68 70 68 70 66 66 66 68 69 65 58 58 57 57 56 53 52 54 57 60 63 67 66 73 76 80 83 81 81 81 81 81 84 84 83 85
58 64 79 79 79 79 77 73 72 72 71 69 68 66 68 70 72 73 74 68 67 66 64 63 63 63 64 65 66 70 79 83 82 83 85 86 83 83 83 82 82 85 86 86
62 60 61 70 87 92 81 77 73 73 73 73 70 70 71 74 73 73 72 74 80 79 78 76 73 72 72 73 78 86 91 95 89 86 91 92 90 87 86 86 85 83 82 83

GFSCGP_prec_cthk_090.txt.gz
RH
76 85 74 68 71 68 61 57 59 61 73 83 77 73 69 66 60 50 45 45 46 46 45 43 46 52 56 60 60 62 62 63 66 64 64 73 70 67 66 67 68 66 62 63
85 84 76 69 69 69 66 63 57 77 78 82 74 68 63 64 57 50 41 38 41 44 48 40 43 46 50 55 63 65 64 62 64 65 63 69 78 78 71 69 71 69 67 66
84 84 75 72 68 68 64 68 70 73 78 67 65 64 57 54 53 50 43 39 38 41 47 44 41 43 46 52 56 66 68 72 65 63 63 77 82 89 86 83 77 77 78 73
81 82 78 75 72 69 71 72 75 75 69 68 64 63 49 44 44 44 40 37 36 37 38 44 43 40 42 48 52 61 70 72 74 69 68 79 78 78 82 81 83 84 75 62
83 78 76 75 70 67 69 68 72 75 75 71 70 70 40 43 41 40 37 35 34 35 35 41 42 39 38 41 49 60 67 76 76 78 76 74 73 74 75 76 79 81 77 70
79 76 75 72 73 69 73 76 70 75 74 84 59 65 47 40 38 39 41 36 33 33 33 38 48 41 39 38 43 51 67 74 78 80 75 76 76 73 73 78 80 78 68 66
74 76 72 71 78 77 75 81 90 91 89 78 53 62 46 37 40 40 39 36 36 35 35 37 48 43 42 43 48 52 59 68 74 77 72 68 75 68 67 66 61 58 54 50
78 82 76 71 76 79 73 75 80 81 77 60 45 54 43 34 37 37 35 33 31 34 35 36 43 47 44 46 51 58 62 65 69 70 66 65 66 67 63 60 55 55 54 53
80 74 74 74 75 77 76 74 70 94 74 71 63 50 39 32 30 25 29 33 32 31 37 40 44 49 50 55 60 66 67 65 70 70 68 67 66 66 64 66 65 63 63 64
87 89 79 79 81 80 82 74 80 88 90 69 51 47 46 36 28 27 28 29 33 33 33 35 38 48 53 60 71 75 75 75 73 74 74 73 72 75 75 72 69 68 63 61
88 97 93 94 86 86 90 91 90 79 71 74 63 57 49 38 32 32 31 30 30 32 32 33 36 43 55 64 66 74 82 83 77 76 77 77 76 73 71 67 65 63 61 61
82 98 94 90 90 86 86 88 94 96 83 76 78 68 56 49 38 35 38 34 33 34 34 33 34 39 43 48 56 57 76 90 88 86 83 81 79 77 71 68 67 65 61 56
85 97 98 98 97 93 92 86 84 88 89 86 85 63 55 52 48 46 44 41 39 38 35 34 34 35 37 39 41 43 52 66 75 74 68 70 72 72 71 71 70 67 64 61
95 93 80 78 82 83 92 86 84 90 95 80 76 66 63 61 57 53 52 47 44 42 41 40 38 37 39 39 39 42 45 48 49 49 54 62 65 63 62 58 56 54 53 51
98 98 93 78 79 86 91 88 87 92 91 87 72 71 65 64 60 57 53 52 52 46 44 42 43 42 41 42 43 44 46 47 48 49 49 51 52 51 49 49 48 48 48 47
98 97 97 94 92 92 90 87 83 78 81 81 76 66 64 61 59 56 49 46 49 51 45 44 41 42 43 47 48 48 48 48 50 51 51 50 51 51 51 52 50 50 50 51
94 95 98 98 97 99 98 87 77 75 76 76 77 65 64 57 55 51 49 48 43 42 43 41 40 39 44 46 50 52 52 54 54 50 49 50 52 53 53 53 53 54 56 56
82 83 90 98 98 96 65 67 69 68 67 66 64 63 64 61 54 51 51 46 43 42 39 40 41 44 46 49 52 54 57 57 56 56 55 55 56 58 57 57 56 55 57 59
68 79 91 98 91 78 71 65 69 69 65 62 61 60 58 53 51 49 44 45 44 42 40 38 41 50 50 51 56 60 62 63 62 60 59 60 62 62 64 65 67 64 62 63
75 77 92 94 92 92 72 65 63 62 63 55 53 57 58 56 58 57 54 51 49 46 44 41 45 50 55 58 62 65 68 68 65 64 66 65 65 65 67 68 67 69 70 71
87 90 82 94 96 82 72 69 66 67 72 66 64 64 64 62 59 55 49 46 45 44 45 44 47 51 56 64 67 68 73 74 70 68 67 68 68 69 69 68 70 73 75 77
82 89 84 87 94 88 75 71 71 72 70 64 63 65 62 62 57 53 50 48 47 45 48 44 44 49 55 61 65 69 72 70 67 69 69 67 66 68 64 66 70 78 79 81
75 84 91 95 87 82 78 76 71 70 68 68 68 70 69 67 64 62 56 55 53 50 47 48 47 48 53 61 66 66 67 67 70 71 68 68 70 69 69 71 76 79 83 84
62 63 74 79 76 88 83 75 72 68 70 71 71 67 65 65 68 70 70 64 61 58 56 53 52 53 56 61 64 63 66 70 71 71 75 76 78 81 79 80 81 82 82 83
62 57 63 64 68 76 75 74 73 74 76 76 73 71 70 69 71 75 78 77 71 68 65 64 63 61 60 62 65 67 70 73 75 79 85 83 83 86 84 82 82 84 85 84
63 66 65 69 72 78 84 81 78 83 80 79 79 79 77 76 78 79 76 74 75 78 77 75 74 74 71 71 72 74 75 78 81 87 92 88 88 89 89 89 87 87 88 87

GFSCGP_prec_cthk_093.txt.gz
RH
61 69 72 66 59 51 56 68 78 77 84 83 88 89 74 68 64 60 55 53 53 50 54 52 50 51 59 60 61 58 57 62 64 62 61 59 59 63 65 72 72 68 62 56
58 61 64 67 67 65 64 63 64 76 77 86 82 80 74 67 64 65 62 54 51 51 51 49 52 50 50 56 57 56 58 59 59 59 59 62 65 69 71 77 80 83 78 72
66 66 67 63 65 65 64 69 69 74 76 85 83 83 72 68 62 61 59 50 41 42 45 45 47 46 45 45 48 51 52 56 61 62 64 64 70 74 80 82 88 91 86 90
68 71 72 72 67 63 72 71 74 75 75 88 74 77 59 57 53 55 55 52 46 37 38 39 42 43 40 39 43 46 49 53 56 63 70 75 74 76 79 82 89 88 83 83
68 73 73 71 70 74 73 68 71 81 78 75 69 71 57 53 51 44 44 44 45 42 39 35 35 38 38 41 41 43 47 52 55 58 64 74 80 81 80 82 83 80 79 77
75 73 74 73 71 73 74 80 77 80 84 92 73 71 56 47 41 45 43 40 37 38 35 36 36 35 37 37 38 41 43 48 52 59 68 74 81 85 83 83 82 78 78 75
74 72 75 72 72 74 74 82 95 95 96 83 65 71 48 42 43 41 41 39 38 38 37 34 34 34 38 39 39 40 42 44 49 55 65 71 78 84 83 81 83 78 79 78
82 74 75 74 73 80 80 84 90 85 87 71 63 64 46 41 43 41 40 37 37 36 36 38 34 34 38 40 42 43 41 44 48 55 59 65 77 81 81 86 78 78 71 67
88 81 76 76 77 76 79 83 79 84 83 82 69 53 45 38 38 43 39 39 39 36 35 36 38 37 39 42 44 44 43 42 45 51 57 62 69 72 75 81 73 68 66 64
80 86 78 79 82 82 80 80 84 91 91 81 62 59 51 41 38 39 38 36 32 37 33 35 39 41 41 42 48 49 49 49 50 52 58 62 67 69 70 71 70 69 71 71
84 94 90 90 84 81 90 91 85 80 80 80 66 56 44 41 41 37 37 29 27 29 33 34 37 39 39 39 44 49 54 56 56 60 65 70 74 72 73 77 77 76 75 74
93 97 96 96 90 87 84 89 87 90 81 74 71 58 46 46 47 44 39 36 32 30 32 34 33 32 33 38 44 51 57 64 69 70 73 83 85 78 77 78 77 77 76 75
92 97 96 99 97 97 98 90 89 89 88 82 77 62 56 57 55 51 47 42 38 35 34 34 34 33 34 36 40 47 52 52 58 59 72 87 88 89 91 85 87 86 82 79
87 98 98 93 96 91 98 90 90 95 98 83 77 66 61 61 60 56 52 49 42 41 38 37 37 36 35 37 39 40 42 47 50 54 59 68 75 84 85 79 73 70 71 69
78 96 96 96 92 96 97 92 95 97 89 87 71 73 66 65 67 64 62 57 53 47 43 40 40 39 38 39 39 41 41 43 45 48 52 52 51 54 56 56 57 57 55 52
70 86 98 90 88 92 87 86 92 92 93 89 80 71 68 67 65 66 66 64 60 54 51 49 46 44 42 39 40 41 43 44 45 46 48 49 52 53 54 55 55 53 52 51
59 85 91 87 92 98 93 81 85 79 81 81 80 66 73 64 64 61 61 60 56 52 48 46 46 45 44 42 42 42 44 49 51 52 54 54 54 53 54 54 55 54 53 52
58 83 86 89 97 96 77 71 75 72 72 75 72 71 69 67 66 61 55 50 50 50 46 44 43 42 42 42 42 45 48 51 54 58 59 58 60 60 58 58 59 60 60 60
58 78 85 88 96 89 75 74 76 76 73 74 71 67 63 63 61 61 56 51 47 45 43 40 40 38 41 43 49 51 52 57 60 63 63 64 64 63 64 65 64 65 67 67
64 74 80 86 95 89 76 70 69 70 72 65 57 57 58 60 58 57 54 55 52 48 46 45 43 40 40 45 55 58 56 60 67 69 69 69 69 69 71 69 67 66 68 69
77 78 81 83 92 79 76 73 69 66 69 76 71 66 64 66 65 62 58 53 49 46 45 44 44 44 43 49 59 65 67 69 73 75 75 74 72 72 73 71 69 69 67 66
75 82 88 85 88 88 76 76 73 72 73 70 69 68 67 67 66 64 61 55 53 50 46 44 46 47 45 50 60 70 76 77 79 79 76 73 76 75 73 69 69 70 67 69
66 70 77 88 91 85 85 80 76 72 72 73 73 77 81 74 73 69 71 61 57 54 50 48 48 49 49 51 59 68 72 77 79 75 73 77 77 73 72 73 74 73 73 75
63 61 65 61 66 78 96 94 87 81 75 74 76 77 76 73 73 73 75 75 69 64 61 54 52 53 55 59 66 72 74 74 71 71 74 74 73 77 79 81 85 84 82 83
57 59 61 64 62 59 71 86 88 84 82 81 78 78 77 79 78 77 79 80 78 75 72 67 63 60 60 63 67 71 71 70 71 72 73 77 79 84 88 87 88 87 84 83
55 58 64 70 67 70 71 72 81 87 83 84 85 84 83 83 83 84 80 80 79 80 83 79 75 73 72 72 71 72 73 74 75 77 77 80 85 90 90 90 92 90 91 90

GFSCGP_prec_cthk_096.txt.gz
RH
67 66 72 73 67 61 63 72 76 78 85 89 88 91 91 86 82 74 70 64 57 55 53 52 53 57 63 66 70 74 61 62 63 63 65 64 65 69 68 65 64 64 64 69
61 62 67 63 60 59 59 57 65 70 74 76 79 78 79 88 75 71 68 63 58 53 51 50 51 54 58 64 68 68 64 62 61 62 62 65 66 66 65 65 66 68 70 74
58 62 61 62 62 61 54 53 54 60 72 79 79 83 84 77 74 69 67 62 55 51 51 49 49 50 54 57 62 63 62 62 61 59 60 62 63 62 60 62 68 73 80 84
62 58 61 61 66 66 69 64 57 63 75 87 81 84 68 71 70 67 61 60 58 55 49 48 47 45 46 50 55 55 54 56 57 57 60 60 58 60 64 66 68 75 83 84
63 67 70 67 67 66 64 66 67 67 76 74 78 76 63 59 58 57 58 55 53 50 48 41 39 45 46 50 53 56 57 56 56 55 55 62 67 69 71 69 72 78 81 82
69 69 72 74 74 71 69 71 73 88 86 91 69 72 63 52 47 49 50 45 43 46 46 42 38 35 41 48 49 53 53 50 52 51 53 59 62 66 69 72 75 77 83 84
70 71 73 79 78 78 78 92 95 95 97 90 73 82 55 44 41 39 42 38 37 37 36 38 39 39 38 35 37 44 46 46 49 51 54 59 71 67 69 74 87 85 82 86
76 72 74 75 75 76 80 87 94 85 87 81 78 77 50 42 37 37 38 38 37 36 35 34 35 36 39 42 39 39 41 43 45 47 49 51 54 57 62 75 83 94 90 84
79 71 66 74 76 77 80 85 80 89 84 82 66 54 46 43 42 38 39 38 38 37 36 36 36 36 39 41 41 43 44 43 43 44 47 50 54 58 64 65 73 85 86 79
70 84 77 79 83 83 80 80 94 97 97 87 66 61 50 43 45 42 42 42 40 38 36 36 35 36 39 43 43 44 46 46 43 43 45 48 54 64 67 68 66 69 69 68
66 85 86 92 89 85 89 90 86 82 84 86 69 59 49 51 46 45 43 41 43 39 38 36 38 35 39 43 46 47 46 49 48 48 47 48 52 57 60 59 60 60 61 66
74 90 93 86 87 89 86 87 85 89 82 80 78 63 55 52 49 49 49 40 39 38 32 31 36 38 40 43 45 44 43 46 51 54 54 54 55 57 60 61 66 68 73 77
80 97 97 93 96 95 94 87 84 85 86 82 80 63 59 55 56 54 50 46 39 38 35 34 33 34 35 34 35 38 42 46 51 55 56 59 59 63 72 78 78 81 87 88
66 87 94 97 97 97 97 97 90 92 95 81 76 64 58 61 62 62 59 51 46 42 37 36 37 35 36 35 36 39 41 43 46 51 55 58 60 60 69 74 89 91 91 86
62 75 87 86 89 98 98 96 96 98 92 88 73 72 67 65 66 65 64 59 53 48 43 40 38 37 38 37 35 35 38 42 43 46 51 54 58 63 65 64 65 67 69 73
58 62 68 71 81 89 87 89 94 98 96 86 87 79 73 75 72 68 66 67 63 57 51 47 46 43 41 39 38 37 37 38 42 44 49 54 55 57 53 54 56 56 58 59
55 66 68 69 80 89 82 78 84 86 87 87 89 68 80 81 74 74 71 66 62 62 60 55 54 52 46 41 41 40 40 41 43 45 48 50 53 53 55 55 55 55 54 54
53 61 84 81 91 95 81 77 73 74 76 78 74 75 77 74 74 71 69 66 64 62 60 57 53 49 48 47 46 46 47 46 47 48 52 56 57 59 57 57 56 55 57 58
54 65 80 87 94 88 75 74 82 83 77 69 68 72 73 71 68 67 68 64 61 57 53 51 49 44 40 42 44 45 47 51 53 52 56 60 61 61 63 62 62 63 63 61
66 68 71 78 86 84 80 74 73 75 75 73 64 66 71 69 68 64 62 60 61 54 51 47 46 46 45 43 41 43 52 58 57 59 61 63 67 68 67 67 68 68 67 66
62 66 73 74 80 83 83 76 70 69 72 77 74 71 68 67 64 63 61 59 57 55 50 46 43 42 44 44 43 45 55 61 66 68 69 69 70 73 73 72 72 69 69 70
61 69 75 78 86 84 82 77 80 80 77 72 73 73 71 68 65 63 63 62 59 55 51 47 45 45 47 47 46 51 59 67 74 76 79 80 79 79 76 76 75 75 71 69
63 64 66 73 71 80 82 84 83 83 81 80 76 78 75 71 71 69 68 69 68 63 58 52 50 49 49 50 49 55 62 72 80 84 87 89 86 80 79 80 79 76 74 75
53 58 65 65 65 63 68 78 98 92 87 83 79 74 76 74 74 71 72 76 77 72 64 58 55 55 54 55 57 62 68 73 78 82 86 84 79 80 79 79 77 81 81 83
48 52 55 63 64 64 67 64 65 92 96 90 84 77 77 78 80 81 81 87 82 81 76 69 65 62 60 62 65 70 75 78 80 78 76 77 78 78 79 81 84 86 89 88
47 50 54 59 61 64 62 66 68 68 86 97 89 84 85 85 87 89 91 87 84 81 81 82 78 75 71 70 70 72 75 76 76 76 76 76 77 80 84 84 90 93 92 92

GFSCGP_prec_cthk_099.txt.gz
RH
54 69 73 68 58 60 66 65 74 84 86 90 95 93 93 85 77 67 61 56 55 57 57 61 73 76 77 78 75 77 79 82 85 84 71 70 66 69 68 69 64 64 63 61
52 55 66 65 58 54 54 61 66 74 79 86 83 88 92 91 79 73 66 58 53 54 54 52 57 65 70 75 75 73 69 69 70 71 74 73 71 71 68 69 68 66 65 65
51 54 54 57 62 58 54 52 58 65 76 82 79 80 77 79 82 77 68 61 54 51 50 52 50 50 54 58 68 71 71 69 73 73 64 69 69 66 67 71 69 65 62 64
53 50 54 58 60 58 59 54 50 62 69 76 73 77 67 69 69 73 64 62 56 54 52 49 49 49 50 52 53 56 64 71 73 74 67 64 65 64 64 69 71 72 69 68
53 57 54 58 59 65 63 60 60 65 65 68 77 74 62 61 65 60 60 60 57 56 56 55 54 51 50 51 52 55 57 61 67 74 73 72 70 65 69 67 68 76 78 79
60 61 61 61 60 63 66 73 74 78 77 84 67 73 64 62 55 53 52 56 56 54 52 50 51 48 47 49 49 50 54 58 63 67 65 66 68 68 65 62 67 73 79 85
57 61 64 69 69 66 71 77 88 89 94 83 67 76 56 54 53 46 44 45 48 50 51 49 50 46 45 45 49 50 53 55 60 61 61 62 63 65 66 63 66 67 72 80
65 57 69 70 72 78 83 86 88 86 86 92 78 79 55 46 47 45 43 40 42 44 42 43 45 45 44 43 43 50 52 51 53 56 58 57 54 55 57 62 67 69 75 77
69 64 60 70 79 82 87 91 85 98 86 81 76 63 49 48 45 43 43 41 39 43 41 40 39 37 39 42 43 43 42 41 42 46 50 52 52 52 55 56 55 62 67 77
57 70 68 74 82 88 87 86 94 94 97 94 71 64 55 44 44 44 42 39 38 37 39 38 36 36 37 37 36 39 42 45 45 43 44 46 47 50 51 52 56 61 65 74
60 71 71 89 87 85 92 90 84 87 91 86 70 55 47 46 44 44 44 42 41 39 37 36 36 37 37 40 42 41 39 41 43 45 46 45 43 46 50 55 58 60 62 70
59 75 82 79 88 91 91 89 88 92 90 83 78 62 50 52 51 48 49 49 45 44 39 39 37 38 39 40 41 44 43 43 43 42 46 47 50 51 53 55 57 56 54 56
65 84 87 90 89 93 98 93 90 92 89 84 83 61 52 59 61 58 54 52 50 47 41 37 36 33 36 46 45 46 45 45 42 42 45 48 52 54 56 57 55 56 60 61
52 65 80 88 93 97 98 98 92 94 98 77 67 59 59 61 64 62 59 57 56 51 45 41 41 37 35 36 37 37 38 39 41 43 46 48 54 56 57 59 60 61 65 64
50 55 61 75 85 90 91 95 95 97 87 85 65 68 69 66 68 66 65 62 59 56 51 46 44 42 39 38 37 38 38 39 41 42 44 48 53 57 60 63 63 62 65 63
57 57 64 59 68 81 88 88 91 96 97 93 88 80 75 74 69 65 67 65 63 60 52 49 46 43 43 42 40 39 42 41 40 41 44 48 51 54 56 59 64 63 56 53
52 58 66 65 68 85 84 81 82 80 89 93 98 77 83 82 74 70 68 70 67 62 59 56 52 50 46 46 44 41 38 39 40 41 43 46 50 55 58 58 59 57 56 54
51 59 74 73 75 84 78 79 78 75 81 87 83 80 79 79 80 79 78 74 71 67 62 60 58 57 57 53 50 46 42 40 41 43 45 46 48 50 52 54 56 58 57 55
49 59 71 78 81 82 78 79 80 86 80 80 78 73 77 83 83 80 78 73 70 69 67 65 62 57 55 53 51 46 46 46 47 50 53 53 52 54 57 59 58 59 59 59
55 58 65 70 80 80 80 80 73 78 84 85 81 74 72 81 82 79 74 69 66 65 64 62 58 52 51 52 50 47 45 47 50 53 56 61 63 61 59 61 64 64 65 66
51 55 62 68 72 64 78 80 75 78 80 90 88 85 79 77 77 76 73 68 66 63 61 59 56 50 48 48 50 50 48 48 53 59 64 66 66 64 65 66 68 71 72 71
55 59 62 65 72 70 74 77 83 89 87 90 91 88 88 84 80 76 73 69 65 62 59 55 54 51 48 48 47 48 49 53 60 66 69 72 74 73 73 75 76 76 73 74
55 51 57 61 56 64 69 75 82 86 87 87 87 86 84 85 80 80 78 75 71 69 64 58 55 53 51 50 50 51 53 57 62 68 73 79 83 85 87 86 85 82 80 79
46 54 57 57 53 56 61 66 66 65 80 90 88 90 83 79 80 79 81 82 79 74 72 66 60 59 57 55 55 54 56 62 67 71 75 80 88 91 91 89 85 82 82 82
42 45 47 49 48 55 59 60 61 62 62 73 95 92 86 80 77 80 83 86 85 81 81 77 70 66 63 62 63 63 63 66 69 74 78 81 86 88 86 85 85 84 81 78
40 42 45 47 49 54 58 58 59 61 62 65 76 94 92 87 83 83 88 92 91 86 85 84 81 77 73 71 70 72 75 77 77 79 80 80 79 80 80 79 78 79 82 84

GFSCGP_prec_cthk_102.txt.gz
RH
55 63 65 65 68 66 67 73 76 79 90 89 93 88 80 75 71 72 70 67 67 69 75 82 81 85 85 90 85 87 86 84 88 89 89 87 78 72 68 68 68 67 69 67
55 65 63 64 60 60 70 75 77 81 82 85 93 86 81 77 77 73 74 69 65 63 65 70 72 84 91 84 86 90 94 90 92 87 85 89 88 84 81 78 76 75 78 77
51 53 54 57 61 61 62 66 66 67 79 83 85 88 82 79 78 73 70 71 66 61 60 63 64 69 76 78 85 92 92 93 92 95 95 90 94 93 89 81 85 83 77 72
49 49 51 53 54 56 61 59 57 64 68 74 74 74 81 72 73 73 71 68 67 64 61 59 59 59 60 61 67 74 79 76 80 90 86 88 88 83 82 82 79 82 81 81
47 53 53 51 52 55 57 58 60 65 67 70 71 73 66 71 68 69 72 65 63 65 64 59 58 56 55 56 57 60 65 68 72 77 83 85 84 81 78 79 80 76 74 74
44 50 56 55 54 56 58 61 65 73 73 77 64 68 63 63 57 60 61 62 64 64 64 61 60 60 58 56 55 56 56 60 63 70 73 75 77 79 76 77 75 76 74 69
42 42 48 56 63 63 63 70 85 90 90 81 68 76 51 48 51 52 53 52 52 57 60 61 61 60 62 60 57 55 54 54 59 63 66 67 68 72 73 74 75 75 71 68
54 46 47 54 63 72 77 74 80 81 86 82 76 73 56 42 45 46 47 44 46 54 53 54 58 60 62 60 56 52 49 52 55 57 60 62 63 66 68 68 66 64 65 66
60 57 50 56 72 77 84 92 83 87 82 84 77 60 48 46 40 38 39 43 42 41 46 47 50 53 56 57 54 52 49 48 53 56 56 56 58 59 60 60 61 61 59 60
54 64 52 65 71 84 88 86 97 98 97 96 73 58 49 46 48 44 41 43 44 42 44 46 45 46 47 50 49 50 48 46 47 48 52 55 55 54 57 58 59 59 58 59
59 66 59 71 86 87 95 98 95 93 91 88 75 59 49 48 53 50 48 45 46 46 44 44 47 47 47 45 44 42 41 42 44 46 48 48 48 48 46 46 45 46 50 58
53 67 70 66 75 89 93 98 98 95 94 84 76 65 51 51 50 50 52 53 49 47 44 44 43 43 43 43 43 43 43 43 41 40 41 44 45 45 45 45 49 53 57 60
56 71 75 65 84 86 96 98 95 99 87 86 86 63 53 54 55 51 53 56 54 52 47 43 40 39 42 42 43 44 43 43 42 41 40 39 41 45 47 49 51 55 57 55
46 58 61 66 75 90 88 88 91 99 98 92 74 64 55 57 60 64 63 58 54 52 51 49 44 40 37 37 38 40 44 43 41 41 41 40 43 45 47 50 51 52 54 58
46 55 56 53 58 80 86 82 82 95 92 94 72 69 68 66 61 62 65 64 62 59 54 52 50 46 42 40 38 37 37 36 36 38 39 43 46 47 50 54 55 55 57 58
53 55 54 52 51 63 75 79 82 83 90 86 86 81 73 70 66 65 68 70 66 64 61 59 56 54 48 45 46 43 41 41 40 39 41 44 44 47 51 54 57 56 58 61
48 51 64 64 57 66 80 83 80 81 85 90 88 81 89 83 74 70 72 71 70 67 66 64 61 57 53 49 45 44 40 38 38 38 42 44 46 48 50 53 56 60 62 57
49 58 65 69 68 68 76 82 84 85 86 83 86 92 86 86 80 70 71 71 69 68 66 65 64 63 60 58 55 51 45 42 39 37 38 44 46 47 48 51 58 59 55 53
45 55 62 67 72 71 79 86 84 95 93 88 88 89 78 73 81 77 80 77 74 70 67 66 65 64 63 62 56 51 49 47 43 41 40 42 47 49 49 50 51 52 54 56
50 53 57 61 69 72 78 86 84 84 95 92 89 89 79 74 80 87 84 81 80 77 75 72 68 65 62 60 55 54 52 48 42 45 47 50 52 54 57 58 58 59 60 60
46 51 54 57 62 52 61 77 83 88 83 95 95 94 93 91 86 85 83 82 83 78 70 64 60 59 58 58 52 51 51 52 50 50 54 56 58 61 63 65 66 66 67 66
49 52 52 58 61 59 60 67 78 90 92 93 95 95 95 95 91 89 86 84 81 77 70 63 60 57 54 53 56 53 51 52 54 57 59 61 65 68 71 72 72 72 71 70
53 45 52 52 50 52 57 61 65 73 83 92 94 95 95 94 90 88 86 84 81 77 74 69 63 60 58 54 54 56 54 54 55 58 63 66 71 75 79 78 79 79 79 80
42 47 52 51 46 48 49 57 60 62 63 60 64 83 91 92 88 85 85 86 87 85 82 80 71 66 64 60 55 55 57 57 60 63 65 70 73 76 81 84 87 89 89 86
37 42 46 46 44 47 52 53 57 59 61 62 65 64 75 94 88 86 83 84 87 90 87 87 83 75 71 70 68 66 65 66 68 68 69 71 74 79 84 86 89 89 86 85
34 36 40 40 40 44 48 53 54 52 56 57 58 66 67 94 94 89 85 87 86 91 89 93 90 86 83 78 78 77 75 73 72 75 76 77 78 79 82 86 86 85 83 81

GFSCGP_prec_cthk_105.txt.gz
RH
57 66 71 64 62 60 63 68 77 74 83 97 92 83 74 74 76 75 73 74 77 83 84 90 91 93 89 84 84 81 78 76 76 80 89 81 75 71 68 64 62 65 70 65
55 64 58 62 61 59 65 64 69 69 85 90 87 86 78 74 72 72 69 67 69 73 78 81 86 92 88 88 88 81 82 86 83 83 91 96 85 81 78 74 70 69 73 70
49 50 53 55 57 59 62 62 66 69 81 83 80 83 80 75 78 74 70 66 67 68 69 73 79 83 89 88 91 89 89 87 88 89 88 89 85 84 83 77 86 83 84 85
47 48 48 49 52 51 57 57 61 70 79 84 79 81 78 78 77 78 75 70 67 66 66 67 70 75 77 81 86 91 93 93 90 88 86 89 89 88 85 87 89 96 96 92
46 50 48 49 48 50 50 56 61 68 70 71 77 77 75 72 68 67 73 75 73 68 66 67 68 68 71 74 81 81 80 91 88 82 87 95 96 95 96 88 92 97 88 86
42 46 49 52 54 56 57 61 66 70 70 79 64 69 58 67 61 65 64 65 70 72 71 68 67 66 66 65 65 69 70 77 81 80 88 90 93 85 87 87 87 93 86 81
35 39 47 54 59 61 66 68 79 80 79 70 63 71 49 50 47 55 58 62 73 74 72 69 66 64 64 65 64 62 60 63 68 79 77 76 75 81 84 82 80 81 84 77
49 41 46 55 63 71 77 75 76 78 79 75 72 73 50 45 41 49 55 58 65 72 65 70 69 67 64 61 60 60 58 58 59 61 64 68 70 72 72 71 71 73 74 74
50 49 47 54 62 75 82 92 86 89 78 71 66 57 44 43 42 40 46 50 51 59 61 64 71 70 66 63 62 60 57 56 57 57 57 59 61 62 65 66 65 66 67 66
48 58 51 57 62 75 89 92 99 97 97 89 66 58 47 43 44 41 42 44 50 52 55 57 61 58 59 64 64 62 59 57 55 56 57 56 54 55 57 58 59 59 60 60
52 61 56 53 68 80 88 95 96 96 91 85 76 58 47 43 44 49 46 46 46 49 53 52 52 56 51 56 62 60 59 57 55 53 52 52 51 50 53 55 56 59 59 58
49 57 60 54 65 75 89 99 99 95 94 85 75 63 56 54 50 51 51 47 52 50 49 51 50 50 54 55 56 56 56 55 51 48 48 48 48 49 50 51 51 49 49 53
48 62 63 49 60 73 83 88 92 98 97 86 79 66 57 59 59 52 53 56 55 54 53 49 49 50 51 54 57 55 55 54 51 48 46 43 42 42 43 44 47 48 50 54
42 52 55 59 52 70 82 78 85 91 97 97 83 72 64 63 64 62 61 58 58 57 57 54 51 48 47 49 51 51 53 54 54 52 51 49 47 44 44 46 48 51 55 55
40 49 55 53 53 53 67 75 81 83 85 97 93 83 74 73 69 67 67 64 61 59 57 56 54 52 47 47 44 44 44 47 50 51 51 49 46 44 44 46 48 50 51 53
44 46 54 55 50 48 65 66 70 72 72 81 84 86 82 81 73 66 68 71 70 66 62 58 55 55 52 51 49 46 44 42 39 39 40 42 42 43 45 47 51 56 58 60
43 51 59 58 56 55 67 75 81 79 78 77 80 75 82 80 77 74 73 72 71 71 71 68 65 60 58 56 53 51 48 45 43 41 42 43 44 46 48 50 50 52 55 59
45 52 55 61 62 62 77 77 85 87 85 85 82 79 80 76 74 76 76 71 68 67 67 68 69 71 70 69 64 56 49 46 45 44 41 42 44 47 48 49 49 50 52 57
41 49 54 57 60 57 69 77 81 83 90 91 93 92 84 79 70 79 87 80 73 70 71 68 69 72 71 69 65 65 59 54 50 48 46 43 42 44 45 47 48 51 54 56
45 47 48 53 60 59 58 65 72 80 91 96 95 91 90 82 85 84 87 90 82 78 76 73 71 68 67 65 62 59 59 56 52 49 48 46 46 48 52 52 54 55 55 56
44 44 49 53 55 44 46 59 66 81 80 93 98 97 93 90 90 89 87 90 88 86 82 78 73 69 65 62 59 57 55 52 53 51 49 51 54 55 59 60 59 60 63 65
43 48 48 50 55 50 50 56 60 66 77 88 93 96 96 93 91 91 90 89 89 87 84 81 73 67 64 62 58 57 56 53 49 52 53 58 61 61 62 64 65 67 70 71
47 40 44 44 42 40 48 49 52 59 62 63 67 76 89 93 95 91 88 90 89 86 82 79 78 75 66 59 55 54 54 55 56 57 59 63 65 66 70 72 75 81 81 82
39 41 47 45 39 42 44 47 53 54 57 61 61 62 63 73 89 94 89 85 84 87 86 83 78 74 69 64 61 56 57 58 59 65 67 68 69 69 73 78 81 84 85 87
34 40 42 41 38 40 44 45 49 50 51 53 55 56 62 64 69 88 90 86 86 84 85 86 85 83 79 73 69 65 63 64 66 67 71 71 71 74 77 81 83 86 87 89
31 32 35 33 31 33 38 44 48 48 49 50 50 54 57 61 66 79 93 87 83 84 84 85 85 83 82 82 78 76 75 75 76 77 75 74 75 77 78 80 83 88 90 92

GFSCGP_prec_cthk_108.txt.gz
RH
61 73 66 62 62 59 58 58 53 68 64 67 88 86 84 77 80 72 72 77 87 89 91 90 93 94 98 91 93 83 79 67 61 63 63 61 60 60 62 61 64 65 67 68
56 59 59 62 61 61 61 57 61 58 55 70 83 85 80 74 76 74 72 78 80 89 89 91 94 96 96 94 93 90 80 68 67 64 67 71 74 77 75 73 69 66 66 68
54 52 52 54 54 56 59 57 58 55 56 71 77 77 80 76 77 73 70 72 77 80 81 79 86 87 94 98 93 90 84 75 71 64 66 77 80 80 82 84 79 77 75 74
44 45 49 51 49 47 51 53 55 57 60 76 71 69 82 80 75 71 70 68 70 74 76 80 81 81 76 77 91 91 88 83 77 70 66 76 81 78 83 89 91 82 78 84
42 45 45 47 48 50 52 52 50 54 57 61 70 70 69 78 78 72 68 65 63 66 71 70 73 80 78 89 80 86 91 92 89 82 78 87 85 91 90 84 86 87 84 86
38 41 47 49 51 55 55 56 60 62 62 59 51 63 48 62 70 77 75 74 75 71 67 67 70 74 76 82 89 89 88 87 91 97 91 87 87 92 97 90 89 86 86 86
36 35 40 49 54 55 60 66 73 71 74 55 52 61 46 50 64 72 70 75 76 75 71 68 67 66 68 73 77 79 80 81 86 96 89 94 91 93 90 89 87 84 86 84
42 41 42 50 57 65 70 73 74 69 64 54 54 55 44 45 48 63 64 61 61 60 69 72 68 66 65 64 65 68 69 71 72 76 77 81 86 94 94 92 89 89 87 84
39 42 40 45 53 62 88 83 81 81 70 65 56 45 43 42 43 50 62 53 53 58 63 71 71 68 66 66 67 67 66 62 61 62 63 65 76 78 82 79 81 81 78 76
40 51 48 50 52 62 82 89 98 95 92 74 55 47 42 44 44 43 52 55 53 56 64 64 69 73 74 72 69 69 67 64 60 57 56 60 65 71 71 69 67 66 66 67
45 50 48 49 54 64 70 85 94 98 91 72 60 51 47 47 48 47 46 51 53 52 52 55 58 56 69 75 74 71 69 67 65 62 61 63 65 64 64 61 60 59 61 61
45 49 52 43 50 64 77 92 93 95 92 93 74 63 59 58 57 51 51 55 58 61 58 54 52 52 52 57 65 71 72 69 66 64 62 61 59 59 58 56 55 56 56 57
41 52 50 41 54 57 76 83 85 90 95 87 76 69 68 63 61 55 58 58 59 63 60 58 55 54 49 48 51 61 67 68 65 64 61 59 56 55 53 53 53 53 51 53
38 49 51 46 51 55 68 70 75 84 92 93 81 75 63 65 63 64 62 62 62 59 56 58 53 52 56 55 54 52 55 59 61 63 62 60 57 53 49 47 45 44 45 47
33 40 45 40 41 42 55 61 61 76 76 83 88 94 74 74 72 67 69 67 67 68 66 62 59 55 52 53 57 58 56 58 60 61 60 59 56 52 49 46 44 46 48 52
38 46 49 47 45 47 48 52 58 66 66 70 69 78 76 76 74 73 75 72 70 66 67 68 65 62 60 57 54 52 54 56 58 57 56 57 53 50 48 46 45 46 49 51
37 44 49 46 45 57 62 64 73 79 77 80 79 71 74 77 78 80 77 76 74 72 69 66 65 64 63 62 60 59 56 52 49 48 46 45 44 44 45 46 46 48 49 50
37 42 45 47 51 56 59 62 74 77 83 83 81 81 80 79 79 82 80 78 75 74 74 72 70 69 68 67 66 64 63 61 57 53 51 48 46 46 46 47 48 49 53 54
37 39 43 46 42 46 56 62 64 66 81 88 90 91 90 86 82 78 80 82 79 75 74 73 72 73 73 72 70 68 66 63 60 58 55 53 53 49 49 51 50 50 52 56
40 39 41 42 43 38 47 52 59 63 66 79 88 91 90 91 91 89 88 85 83 80 78 75 73 73 73 71 70 70 68 65 63 61 59 56 54 54 54 54 54 57 60 59
41 40 39 38 40 30 34 45 52 63 59 71 82 87 90 92 94 96 95 93 91 90 92 86 78 71 70 70 69 66 64 63 61 58 59 58 58 60 61 61 63 64 63 66
32 35 36 38 45 36 35 46 47 46 47 55 62 72 84 88 91 91 91 91 92 94 95 93 88 80 73 71 67 64 62 59 58 56 54 54 55 57 61 63 61 65 72 72
35 30 31 32 28 31 38 39 41 45 49 51 51 53 57 64 80 93 91 89 88 92 91 90 88 86 83 75 70 67 62 59 58 57 55 56 61 66 67 67 69 71 72 73
34 34 34 35 30 31 34 38 40 43 46 48 48 52 55 58 60 69 90 91 87 86 89 88 84 80 80 79 79 74 65 61 59 59 61 65 68 71 72 71 74 76 80 82
29 35 34 33 31 32 33 34 36 42 44 45 46 48 49 51 55 58 64 91 87 86 83 83 86 84 83 81 77 72 69 66 65 65 67 71 74 77 80 80 80 82 84 88
26 28 28 25 26 26 29 31 36 39 41 41 41 41 44 47 49 54 60 75 83 83 79 79 81 84 83 82 82 82 76 74 73 76 78 79 80 79 79 81 83 85 87 90

GFSCGP_prec_cthk_111.txt.gz
RH
64 75 75 62 60 58 59 58 55 52 60 61 60 67 85 83 80 77 79 79 76 79 91 83 82 84 86 88 99 93 88 81 62 48 43 42 42 44 51 51 51 51 54 58
56 62 64 60 63 63 59 54 53 57 52 53 55 71 79 80 79 81 76 74 73 85 87 90 88 91 90 92 96 95 91 89 71 58 50 46 46 48 51 53 54 59 63 64
53 63 51 54 58 57 58 62 58 56 58 52 62 68 79 74 75 75 75 73 78 80 81 97 93 95 93 90 93 97 96 93 83 75 69 66 62 63 63 62 64 63 65 66
41 44 46 51 55 57 59 54 55 56 58 58 55 81 74 73 73 75 74 75 77 84 83 82 88 88 88 93 92 94 89 91 84 96 78 73 71 71 67 72 76 79 81 80
45 41 45 44 47 53 58 56 53 51 52 53 55 61 73 73 73 69 71 73 75 78 80 83 84 86 88 84 84 83 92 95 94 89 86 83 80 75 72 74 82 87 88 89
32 35 40 45 47 46 50 53 55 57 55 56 49 54 68 72 76 75 71 72 73 74 80 82 83 83 87 84 82 88 90 93 94 95 90 80 74 74 74 76 77 83 88 90
36 34 34 40 47 49 52 63 81 77 72 56 48 50 62 56 68 77 74 72 69 71 74 72 70 76 78 84 83 84 84 86 87 85 80 80 79 78 74 72 75 81 83 88
39 47 37 41 50 65 78 79 85 87 75 56 53 53 63 50 51 67 72 74 72 72 72 70 71 72 76 80 76 75 78 86 86 92 91 83 80 77 75 85 82 83 88 92
39 40 36 41 44 54 75 81 80 85 69 61 56 48 46 44 47 52 64 73 73 71 70 77 76 74 73 71 75 77 80 85 91 88 86 90 93 91 93 96 91 88 85 89
42 48 43 44 43 61 68 86 89 83 85 69 57 49 64 49 50 47 51 62 67 69 70 69 70 73 73 70 69 71 75 84 82 81 77 83 83 87 83 86 84 85 88 88
39 47 48 44 52 55 69 83 86 96 91 94 73 70 57 54 52 53 48 51 60 62 68 74 71 73 72 71 70 71 73 75 73 69 67 67 68 72 73 76 82 80 78 73
42 43 50 40 40 52 65 73 82 84 96 82 85 86 70 61 55 56 59 52 59 62 67 70 70 72 68 67 76 75 75 75 73 70 66 65 67 68 69 70 73 74 72 70
38 47 50 46 55 53 59 68 71 86 90 86 82 88 74 69 66 64 62 59 54 54 61 61 61 59 59 61 65 76 83 78 79 75 70 71 72 71 69 68 66 67 66 64
37 46 46 41 47 48 57 57 59 76 86 81 78 88 78 78 75 72 69 67 63 58 58 63 63 63 63 62 57 59 70 81 82 79 77 76 73 70 67 63 59 58 56 57
33 41 39 39 39 40 45 50 52 65 69 75 68 72 79 77 76 79 74 70 68 70 66 64 63 62 61 63 62 60 59 67 79 80 76 74 71 68 65 63 59 55 52 51
34 46 44 45 41 44 44 44 45 53 61 62 63 65 69 78 76 80 81 77 76 70 70 68 65 62 62 61 61 64 68 66 68 68 67 67 66 67 66 63 59 55 52 54
34 41 48 42 40 54 57 53 57 62 63 67 67 62 65 66 70 76 77 82 84 81 74 70 69 68 66 64 62 61 60 61 64 66 67 66 67 67 66 62 57 53 52 53
33 38 41 42 49 55 49 50 58 60 64 70 70 71 74 72 71 73 74 77 80 81 81 77 72 71 69 67 65 63 63 62 60 59 57 56 56 54 53 52 52 52 53 55
31 35 40 41 34 34 42 48 52 53 58 67 74 77 77 78 79 76 74 84 84 83 82 82 83 79 73 72 70 69 67 64 62 60 59 58 58 55 54 54 54 54 53 54
32 31 37 40 38 33 35 42 46 48 53 58 68 74 81 81 83 89 89 84 83 85 85 85 84 83 81 78 75 73 71 70 67 62 59 58 57 57 55 54 53 54 54 53
37 36 38 32 35 25 30 35 40 52 56 53 57 65 75 81 84 84 88 92 91 86 84 82 82 80 77 74 73 74 73 70 67 66 65 63 61 62 60 59 59 60 61 61
29 33 33 31 37 34 27 35 39 42 41 44 45 49 53 58 72 81 83 83 85 86 88 85 85 86 80 78 75 71 70 67 65 66 63 60 60 61 63 64 67 70 69 70
30 25 30 26 27 27 27 33 33 35 38 43 44 46 46 48 51 55 71 84 83 82 83 82 86 85 88 87 83 75 68 65 64 63 64 63 61 62 65 69 69 68 71 72
28 28 29 30 25 25 30 31 31 36 37 39 42 43 42 44 48 52 53 63 84 85 81 81 83 83 83 85 87 87 82 75 70 69 68 67 64 64 66 67 69 72 74 76
26 29 28 28 24 26 26 28 32 32 35 37 40 41 40 41 42 47 52 54 65 84 83 81 80 83 84 84 83 83 81 80 79 78 74 72 72 71 74 78 80 81 82 82
22 22 26 22 23 23 25 26 28 32 34 34 34 36 39 40 39 42 44 53 57 77 82 79 77 79 82 85 84 84 84 82 80 79 82 81 82 82 81 82 85 87 86 88

GFSCGP_prec_cthk_114.txt.gz
RH
65 73 85 82 67 64 69 67 67 62 64 62 59 56 64 72 78 77 72 71 79 79 93 85 79 76 66 58 65 78 89 98 79 89 78 55 52 45 39 36 37 37 40 43
58 62 65 69 60 68 68 70 72 71 66 62 52 51 68 74 77 74 71 70 77 79 92 93 80 79 77 68 74 78 92 97 79 69 90 70 58 51 43 40 43 46 49 49
48 49 53 55 56 64 66 75 70 73 62 59 64 59 66 78 78 78 72 74 80 88 91 91 88 85 81 79 80 87 96 98 87 61 53 62 61 56 52 52 54 54 54 55
41 41 45 46 50 56 60 68 60 54 61 82 63 64 63 72 80 83 79 76 73 83 87 87 82 88 91 87 90 93 88 99 97 78 56 53 50 48 45 47 51 57 57 59
40 43 44 45 52 51 53 55 62 53 59 60 58 62 90 74 72 78 75 78 81 78 85 85 80 83 88 87 91 96 96 95 99 97 82 69 62 55 55 60 64 63 60 61
33 29 34 40 37 42 44 46 51 58 64 70 58 61 96 82 83 79 76 73 74 78 85 82 76 75 84 87 86 87 91 93 95 96 96 92 85 79 78 71 72 76 67 73
39 37 39 42 44 48 68 64 86 91 85 76 55 58 77 67 75 83 87 79 77 79 85 86 82 81 82 84 87 87 86 89 92 95 93 96 87 85 85 86 82 81 78 78
48 52 42 36 46 54 71 86 97 96 96 93 59 81 66 58 65 76 91 87 81 77 80 85 87 89 85 85 90 90 86 85 87 89 92 90 86 91 91 84 79 77 80 78
52 40 41 43 39 54 70 87 85 96 77 76 70 61 54 53 53 64 77 84 78 75 80 80 79 79 83 86 84 85 83 82 83 84 90 91 89 85 85 86 85 82 78 79
46 54 46 43 49 63 77 81 89 90 90 73 75 74 73 60 56 55 58 65 72 83 76 79 81 77 77 76 81 85 89 83 84 87 93 90 88 92 89 88 87 83 75 77
43 47 44 46 52 51 68 82 83 91 91 97 96 95 71 66 57 57 57 61 68 76 80 79 80 79 78 80 78 77 83 89 89 90 94 90 87 84 85 93 85 83 90 90
39 39 53 50 51 51 59 67 79 86 86 93 98 98 76 69 63 62 60 57 62 70 74 73 73 71 72 75 77 77 77 79 80 83 81 78 75 72 69 73 76 77 78 80
34 43 55 57 59 50 53 58 62 81 83 85 92 98 78 72 68 65 62 58 59 61 69 71 72 73 77 80 81 79 81 78 77 80 84 79 75 72 70 68 72 75 75 78
34 44 46 53 47 42 51 51 54 68 80 83 87 89 95 78 75 68 68 69 64 62 64 66 71 72 69 67 66 67 73 80 83 83 86 81 79 78 78 76 76 76 73 73
34 40 39 37 37 41 44 45 46 58 61 74 70 72 74 74 74 76 71 70 73 68 64 63 63 66 67 68 69 70 66 70 79 83 86 88 87 85 82 77 72 70 69 65
32 46 45 44 35 39 40 39 39 45 54 57 63 68 74 73 72 67 72 72 72 70 69 66 64 64 64 63 65 68 67 66 67 74 81 88 88 85 80 76 72 69 69 66
33 41 49 45 39 52 53 46 48 52 56 59 63 67 70 70 67 66 67 70 70 72 72 70 70 68 66 66 63 62 65 71 73 77 79 83 86 84 79 75 73 68 66 66
31 38 42 46 49 55 40 40 46 46 49 54 60 66 70 71 71 69 68 68 70 75 78 79 77 73 71 70 67 65 65 63 64 67 72 74 76 76 73 69 67 62 57 57
29 36 41 47 45 32 35 34 42 40 41 46 52 59 64 69 71 77 79 75 73 73 73 76 81 82 79 77 74 70 67 66 66 65 64 63 61 61 59 58 56 55 56 57
29 28 41 44 43 37 38 34 35 36 53 46 45 53 59 64 71 79 82 84 82 76 76 75 71 72 78 79 75 72 70 70 68 65 65 65 63 63 61 61 62 63 63 63
38 39 40 45 41 30 30 29 32 45 42 40 39 41 44 50 60 69 76 82 88 84 82 81 78 76 74 71 69 70 70 70 68 68 68 68 66 64 62 61 60 62 62 61
33 40 40 34 40 40 25 28 36 34 35 37 38 37 39 42 43 45 56 70 79 82 85 83 79 75 74 72 69 69 67 65 63 63 64 64 64 63 66 68 69 70 70 69
33 26 35 29 31 24 23 26 27 29 31 34 38 40 40 38 38 41 44 46 59 77 79 79 82 80 77 75 73 72 69 66 65 63 63 65 64 62 67 69 70 72 72 73
26 25 28 27 23 23 22 25 27 27 29 30 34 36 38 38 37 38 41 44 45 56 75 78 78 81 81 79 80 80 79 82 78 74 71 68 66 66 65 66 71 75 76 77
25 28 28 26 23 24 23 24 26 27 28 30 32 33 34 34 35 36 36 41 46 46 60 70 74 76 77 78 82 81 81 80 78 77 77 80 80 74 71 71 73 79 84 84
22 23 27 27 20 22 22 22 24 26 27 31 31 31 32 35 37 37 36 38 42 44 51 62 72 75 74 74 78 82 85 86 85 84 82 82 81 82 83 84 87 86 89 88

GFSCGP_prec_cthk_117.txt.gz
RH
58 70 75 77 76 78 78 73 77 78 77 75 71 65 65 60 66 76 84 83 88 85 80 77 94 93 97 91 86 88 87 84 88 89 81 74 78 70 71 55 40 35 35 36
60 61 55 63 68 69 67 75 83 87 85 76 64 64 72 67 72 80 72 72 79 82 78 88 94 96 95 87 85 81 82 83 92 95 88 68 68 67 62 50 45 37 38 37
50 44 46 49 54 55 63 71 76 74 69 64 70 71 76 74 70 75 70 71 76 81 80 90 94 93 97 91 83 82 82 84 85 98 95 84 64 63 59 49 45 38 37 38
38 46 48 50 52 59 60 63 64 65 63 63 59 78 76 82 83 78 75 79 82 79 79 82 84 88 94 95 88 84 83 88 90 94 99 95 85 72 62 48 45 42 43 46
32 34 36 37 41 51 53 51 56 60 63 55 63 91 96 92 92 91 88 85 84 78 85 91 94 95 85 90 95 87 89 86 91 86 95 96 91 78 67 53 53 53 54 54
37 38 43 45 39 49 47 49 47 49 59 69 64 85 84 78 89 91 89 89 90 87 86 91 88 90 84 90 92 99 95 94 91 87 88 94 91 88 83 73 65 61 61 63
39 44 46 43 41 54 68 71 82 84 79 85 64 78 83 72 89 89 93 90 91 97 96 95 91 84 85 88 91 94 97 96 96 91 89 91 80 81 82 76 63 57 58 64
53 52 46 50 55 65 77 89 98 97 93 89 70 73 84 68 73 83 92 92 90 91 97 95 95 91 93 89 91 94 95 95 95 98 95 91 92 88 84 87 84 84 77 76
53 49 48 52 61 73 78 87 83 97 95 91 87 76 68 64 65 75 84 92 89 83 88 91 94 93 94 90 92 94 94 91 92 92 98 97 96 94 94 91 92 90 86 84
44 54 48 48 43 52 73 77 83 87 94 96 92 92 81 68 68 70 75 83 84 85 82 81 83 88 91 93 90 91 92 94 93 94 92 91 91 89 92 92 88 87 86 85
36 45 47 46 54 61 68 74 79 82 87 97 95 92 76 69 67 69 70 70 78 75 83 83 81 81 84 83 83 87 92 92 90 94 95 94 94 92 95 92 88 93 91 88
34 42 57 57 50 47 55 62 69 77 88 94 91 93 82 73 66 67 68 65 68 69 75 81 81 82 83 83 84 80 85 91 89 92 94 95 97 98 94 97 97 94 92 93
33 40 53 51 44 34 49 54 61 74 80 85 96 93 77 73 65 62 66 66 62 61 69 75 80 84 80 78 81 85 84 84 83 86 92 97 95 95 93 91 91 91 90 85
32 42 41 50 46 42 45 48 52 60 74 81 80 79 81 76 72 68 64 64 65 61 58 65 74 77 78 80 81 76 79 80 81 83 86 90 87 88 88 90 88 85 84 86
31 38 39 37 38 37 39 39 43 52 58 70 63 74 76 73 70 70 69 66 64 64 66 64 66 69 72 74 73 73 71 73 77 81 86 89 88 86 85 87 85 80 79 76
30 41 42 47 41 41 37 34 35 40 47 50 55 64 67 65 68 68 67 67 68 70 68 71 69 67 65 67 70 73 74 72 68 75 83 86 87 87 88 86 84 83 80 75
31 37 44 42 40 47 45 37 39 43 42 48 54 57 59 59 61 68 67 65 72 71 71 69 67 69 68 64 65 64 66 68 73 72 75 81 84 83 83 86 87 83 80 75
30 38 41 46 47 39 31 36 39 39 40 42 46 53 55 56 58 63 64 62 64 70 71 68 67 69 69 70 70 66 65 64 64 67 74 75 77 83 85 84 84 82 81 78
28 35 40 41 47 33 35 33 36 37 36 39 41 48 52 51 53 59 65 66 65 65 69 72 70 69 69 68 68 68 66 66 67 67 64 63 62 64 67 70 74 75 68 63
29 29 38 41 42 37 27 30 30 32 42 38 38 45 48 49 51 51 56 62 67 68 66 66 70 70 69 68 68 67 66 66 66 65 66 67 64 64 65 66 65 66 66 65
37 39 38 43 42 29 27 31 29 33 24 34 34 36 36 37 38 43 45 50 56 64 66 67 65 64 66 67 67 65 64 64 65 64 63 63 65 64 65 66 65 65 65 67
32 38 39 36 41 30 26 29 28 25 29 28 29 31 32 32 36 37 36 35 42 55 59 63 65 64 64 65 64 63 64 63 61 59 57 57 58 63 64 67 71 70 68 69
30 26 30 30 24 20 23 21 22 25 26 28 29 31 33 33 33 33 34 36 35 36 51 57 60 64 66 66 64 62 62 63 63 62 59 58 57 57 59 63 67 68 69 73
27 26 28 24 17 20 20 22 22 24 25 27 30 32 31 31 31 32 34 34 35 36 36 51 53 56 60 63 64 65 64 64 66 66 65 65 65 66 66 66 67 69 71 73
26 27 26 27 21 20 19 20 21 22 24 26 27 30 30 31 30 30 31 31 34 37 38 43 49 54 56 59 58 58 61 63 66 70 75 77 79 78 76 77 75 71 71 73
26 26 28 24 17 17 17 17 20 22 24 25 26 28 28 31 32 34 34 32 33 38 41 42 45 51 54 58 61 60 60 64 71 77 78 79 79 80 81 82 81 83 83 83